<?xml version="1.0" encoding="UTF-8" standalone="no" ?>
<gpx xmlns="http://www.topografix.com/GPX/1/1" xmlns:xsi="http://www.w3.org/2001/XMLSchema-instance" xsi:schemaLocation="http://www.topografix.com/GPX/1/1 http://www.topografix.com/GPX/1/1/gpx.xsd" version="1.1" creator="VisuGPX - https://www.visugpx.com">
  <metadata>
    <name>Ascension de la Pointe Percée</name>
    <desc><![CDATA[Parking au Col des Annes (possible d\'acheter au resto reblochon et confiture de myrtilles sur place -extra).
Rapide jusqu\'au refuge de Gramusset. Après il faut partir sur la gauche, dans le lapiaz. On rejoint un pierrier plus loin, puis il s\'agit d\'escalader en suivant bien les marques rouges. Paysage superbe à l\'arrivée avec quelques sensations près du sommet.
 ]]></desc>
  </metadata>
  <trk>
    <name><![CDATA[Trace actuel: 10 OCT 2010 12:11]]></name>
    <trkseg>
      <trkpt lat="45.97061" lon="6.52427">
        <ele>1736.76</ele>
        <time>2010-10-10T10:11:05Z</time>
      </trkpt>
      <trkpt lat="45.97068" lon="6.52423">
        <ele>1737.24</ele>
        <time>2010-10-10T10:11:19Z</time>
      </trkpt>
      <trkpt lat="45.97062" lon="6.52431">
        <ele>1741.57</ele>
        <time>2010-10-10T10:11:52Z</time>
      </trkpt>
      <trkpt lat="45.97061" lon="6.52432">
        <ele>1735.8</ele>
        <time>2010-10-10T10:11:53Z</time>
      </trkpt>
      <trkpt lat="45.97058" lon="6.52436">
        <ele>1732.91</ele>
        <time>2010-10-10T10:12:18Z</time>
      </trkpt>
      <trkpt lat="45.97058" lon="6.52434">
        <ele>1731.47</ele>
        <time>2010-10-10T10:12:26Z</time>
      </trkpt>
      <trkpt lat="45.97046" lon="6.52424">
        <ele>1730.51</ele>
        <time>2010-10-10T10:12:39Z</time>
      </trkpt>
      <trkpt lat="45.97034" lon="6.52405">
        <ele>1729.55</ele>
        <time>2010-10-10T10:12:54Z</time>
      </trkpt>
      <trkpt lat="45.9703" lon="6.52403">
        <ele>1730.03</ele>
        <time>2010-10-10T10:12:57Z</time>
      </trkpt>
      <trkpt lat="45.97016" lon="6.52416">
        <ele>1729.55</ele>
        <time>2010-10-10T10:13:10Z</time>
      </trkpt>
      <trkpt lat="45.97005" lon="6.52432">
        <ele>1729.55</ele>
        <time>2010-10-10T10:13:23Z</time>
      </trkpt>
      <trkpt lat="45.96992" lon="6.52443">
        <ele>1729.55</ele>
        <time>2010-10-10T10:13:34Z</time>
      </trkpt>
      <trkpt lat="45.96977" lon="6.52457">
        <ele>1730.51</ele>
        <time>2010-10-10T10:13:45Z</time>
      </trkpt>
      <trkpt lat="45.96963" lon="6.52478">
        <ele>1731.47</ele>
        <time>2010-10-10T10:13:58Z</time>
      </trkpt>
      <trkpt lat="45.96958" lon="6.52486">
        <ele>1731.95</ele>
        <time>2010-10-10T10:14:03Z</time>
      </trkpt>
      <trkpt lat="45.96948" lon="6.52495">
        <ele>1733.39</ele>
        <time>2010-10-10T10:14:12Z</time>
      </trkpt>
      <trkpt lat="45.96935" lon="6.52513">
        <ele>1735.8</ele>
        <time>2010-10-10T10:14:26Z</time>
      </trkpt>
      <trkpt lat="45.9692" lon="6.52527">
        <ele>1737.24</ele>
        <time>2010-10-10T10:14:40Z</time>
      </trkpt>
      <trkpt lat="45.96902" lon="6.52534">
        <ele>1739.16</ele>
        <time>2010-10-10T10:14:53Z</time>
      </trkpt>
      <trkpt lat="45.96888" lon="6.52539">
        <ele>1741.57</ele>
        <time>2010-10-10T10:15:05Z</time>
      </trkpt>
      <trkpt lat="45.96886" lon="6.5254">
        <ele>1741.57</ele>
        <time>2010-10-10T10:15:07Z</time>
      </trkpt>
      <trkpt lat="45.96882" lon="6.52545">
        <ele>1742.53</ele>
        <time>2010-10-10T10:15:12Z</time>
      </trkpt>
      <trkpt lat="45.96874" lon="6.52552">
        <ele>1743.97</ele>
        <time>2010-10-10T10:15:20Z</time>
      </trkpt>
      <trkpt lat="45.96866" lon="6.52561">
        <ele>1745.89</ele>
        <time>2010-10-10T10:15:27Z</time>
      </trkpt>
      <trkpt lat="45.96858" lon="6.52581">
        <ele>1747.81</ele>
        <time>2010-10-10T10:15:42Z</time>
      </trkpt>
      <trkpt lat="45.9685" lon="6.52589">
        <ele>1750.22</ele>
        <time>2010-10-10T10:15:51Z</time>
      </trkpt>
      <trkpt lat="45.96849" lon="6.52593">
        <ele>1751.18</ele>
        <time>2010-10-10T10:15:55Z</time>
      </trkpt>
      <trkpt lat="45.96845" lon="6.52596">
        <ele>1752.14</ele>
        <time>2010-10-10T10:15:59Z</time>
      </trkpt>
      <trkpt lat="45.96843" lon="6.52598">
        <ele>1752.62</ele>
        <time>2010-10-10T10:16:03Z</time>
      </trkpt>
      <trkpt lat="45.9684" lon="6.52603">
        <ele>1754.06</ele>
        <time>2010-10-10T10:16:07Z</time>
      </trkpt>
      <trkpt lat="45.96838" lon="6.52605">
        <ele>1753.58</ele>
        <time>2010-10-10T10:16:10Z</time>
      </trkpt>
      <trkpt lat="45.9683" lon="6.52616">
        <ele>1756.95</ele>
        <time>2010-10-10T10:16:22Z</time>
      </trkpt>
      <trkpt lat="45.96825" lon="6.52626">
        <ele>1757.91</ele>
        <time>2010-10-10T10:16:30Z</time>
      </trkpt>
      <trkpt lat="45.96815" lon="6.52633">
        <ele>1759.35</ele>
        <time>2010-10-10T10:16:40Z</time>
      </trkpt>
      <trkpt lat="45.96808" lon="6.52635">
        <ele>1760.79</ele>
        <time>2010-10-10T10:16:48Z</time>
      </trkpt>
      <trkpt lat="45.96793" lon="6.52622">
        <ele>1763.2</ele>
        <time>2010-10-10T10:17:03Z</time>
      </trkpt>
      <trkpt lat="45.9679" lon="6.5262">
        <ele>1764.16</ele>
        <time>2010-10-10T10:17:05Z</time>
      </trkpt>
      <trkpt lat="45.96783" lon="6.52614">
        <ele>1764.64</ele>
        <time>2010-10-10T10:17:12Z</time>
      </trkpt>
      <trkpt lat="45.96776" lon="6.5261">
        <ele>1766.08</ele>
        <time>2010-10-10T10:17:18Z</time>
      </trkpt>
      <trkpt lat="45.96766" lon="6.5261">
        <ele>1768.48</ele>
        <time>2010-10-10T10:17:28Z</time>
      </trkpt>
      <trkpt lat="45.96752" lon="6.52606">
        <ele>1771.37</ele>
        <time>2010-10-10T10:17:42Z</time>
      </trkpt>
      <trkpt lat="45.96745" lon="6.52602">
        <ele>1772.81</ele>
        <time>2010-10-10T10:17:49Z</time>
      </trkpt>
      <trkpt lat="45.96736" lon="6.52601">
        <ele>1773.29</ele>
        <time>2010-10-10T10:17:58Z</time>
      </trkpt>
      <trkpt lat="45.96719" lon="6.52592">
        <ele>1776.17</ele>
        <time>2010-10-10T10:18:13Z</time>
      </trkpt>
      <trkpt lat="45.96718" lon="6.52591">
        <ele>1776.65</ele>
        <time>2010-10-10T10:18:14Z</time>
      </trkpt>
      <trkpt lat="45.96704" lon="6.5259">
        <ele>1778.58</ele>
        <time>2010-10-10T10:18:26Z</time>
      </trkpt>
      <trkpt lat="45.9669" lon="6.5259">
        <ele>1780.5</ele>
        <time>2010-10-10T10:18:40Z</time>
      </trkpt>
      <trkpt lat="45.96686" lon="6.52599">
        <ele>1784.34</ele>
        <time>2010-10-10T10:18:53Z</time>
      </trkpt>
      <trkpt lat="45.96684" lon="6.52611">
        <ele>1786.75</ele>
        <time>2010-10-10T10:19:06Z</time>
      </trkpt>
      <trkpt lat="45.96682" lon="6.5262">
        <ele>1789.63</ele>
        <time>2010-10-10T10:19:16Z</time>
      </trkpt>
      <trkpt lat="45.96677" lon="6.5263">
        <ele>1792.03</ele>
        <time>2010-10-10T10:19:28Z</time>
      </trkpt>
      <trkpt lat="45.96675" lon="6.5264">
        <ele>1795.88</ele>
        <time>2010-10-10T10:19:40Z</time>
      </trkpt>
      <trkpt lat="45.96672" lon="6.52648">
        <ele>1797.32</ele>
        <time>2010-10-10T10:19:53Z</time>
      </trkpt>
      <trkpt lat="45.9667" lon="6.52653">
        <ele>1798.76</ele>
        <time>2010-10-10T10:19:58Z</time>
      </trkpt>
      <trkpt lat="45.96667" lon="6.52655">
        <ele>1799.24</ele>
        <time>2010-10-10T10:20:02Z</time>
      </trkpt>
      <trkpt lat="45.96664" lon="6.52655">
        <ele>1799.73</ele>
        <time>2010-10-10T10:20:05Z</time>
      </trkpt>
      <trkpt lat="45.96657" lon="6.52651">
        <ele>1802.13</ele>
        <time>2010-10-10T10:20:14Z</time>
      </trkpt>
      <trkpt lat="45.96653" lon="6.52651">
        <ele>1803.09</ele>
        <time>2010-10-10T10:20:18Z</time>
      </trkpt>
      <trkpt lat="45.96651" lon="6.5265">
        <ele>1803.57</ele>
        <time>2010-10-10T10:20:22Z</time>
      </trkpt>
      <trkpt lat="45.96647" lon="6.52647">
        <ele>1805.01</ele>
        <time>2010-10-10T10:20:29Z</time>
      </trkpt>
      <trkpt lat="45.96644" lon="6.52647">
        <ele>1805.49</ele>
        <time>2010-10-10T10:20:32Z</time>
      </trkpt>
      <trkpt lat="45.96637" lon="6.5264">
        <ele>1808.38</ele>
        <time>2010-10-10T10:20:45Z</time>
      </trkpt>
      <trkpt lat="45.96632" lon="6.52639">
        <ele>1809.82</ele>
        <time>2010-10-10T10:20:52Z</time>
      </trkpt>
      <trkpt lat="45.96618" lon="6.52635">
        <ele>1811.74</ele>
        <time>2010-10-10T10:21:07Z</time>
      </trkpt>
      <trkpt lat="45.96614" lon="6.52643">
        <ele>1815.11</ele>
        <time>2010-10-10T10:21:18Z</time>
      </trkpt>
      <trkpt lat="45.96612" lon="6.52648">
        <ele>1818.47</ele>
        <time>2010-10-10T10:21:31Z</time>
      </trkpt>
      <trkpt lat="45.96609" lon="6.52656">
        <ele>1820.39</ele>
        <time>2010-10-10T10:21:44Z</time>
      </trkpt>
      <trkpt lat="45.96608" lon="6.52661">
        <ele>1822.32</ele>
        <time>2010-10-10T10:21:52Z</time>
      </trkpt>
      <trkpt lat="45.96602" lon="6.52666">
        <ele>1825.2</ele>
        <time>2010-10-10T10:22:05Z</time>
      </trkpt>
      <trkpt lat="45.96594" lon="6.52671">
        <ele>1827.6</ele>
        <time>2010-10-10T10:22:20Z</time>
      </trkpt>
      <trkpt lat="45.96588" lon="6.52675">
        <ele>1830.97</ele>
        <time>2010-10-10T10:22:32Z</time>
      </trkpt>
      <trkpt lat="45.96584" lon="6.52677">
        <ele>1832.41</ele>
        <time>2010-10-10T10:22:45Z</time>
      </trkpt>
      <trkpt lat="45.96579" lon="6.5268">
        <ele>1835.77</ele>
        <time>2010-10-10T10:22:58Z</time>
      </trkpt>
      <trkpt lat="45.96575" lon="6.52681">
        <ele>1835.77</ele>
        <time>2010-10-10T10:23:12Z</time>
      </trkpt>
      <trkpt lat="45.96573" lon="6.52682">
        <ele>1838.66</ele>
        <time>2010-10-10T10:23:18Z</time>
      </trkpt>
      <trkpt lat="45.96566" lon="6.52686">
        <ele>1841.06</ele>
        <time>2010-10-10T10:23:32Z</time>
      </trkpt>
      <trkpt lat="45.96562" lon="6.52689">
        <ele>1842.98</ele>
        <time>2010-10-10T10:23:44Z</time>
      </trkpt>
      <trkpt lat="45.96559" lon="6.52691">
        <ele>1845.87</ele>
        <time>2010-10-10T10:23:51Z</time>
      </trkpt>
      <trkpt lat="45.96556" lon="6.52693">
        <ele>1846.35</ele>
        <time>2010-10-10T10:23:55Z</time>
      </trkpt>
      <trkpt lat="45.96548" lon="6.52695">
        <ele>1848.75</ele>
        <time>2010-10-10T10:24:09Z</time>
      </trkpt>
      <trkpt lat="45.96542" lon="6.52695">
        <ele>1851.64</ele>
        <time>2010-10-10T10:24:21Z</time>
      </trkpt>
      <trkpt lat="45.96534" lon="6.52695">
        <ele>1853.08</ele>
        <time>2010-10-10T10:24:32Z</time>
      </trkpt>
      <trkpt lat="45.96528" lon="6.52698">
        <ele>1855.96</ele>
        <time>2010-10-10T10:24:44Z</time>
      </trkpt>
      <trkpt lat="45.96521" lon="6.52699">
        <ele>1858.85</ele>
        <time>2010-10-10T10:24:58Z</time>
      </trkpt>
      <trkpt lat="45.96517" lon="6.52703">
        <ele>1862.21</ele>
        <time>2010-10-10T10:25:10Z</time>
      </trkpt>
      <trkpt lat="45.96511" lon="6.52709">
        <ele>1865.58</ele>
        <time>2010-10-10T10:25:23Z</time>
      </trkpt>
      <trkpt lat="45.96507" lon="6.52711">
        <ele>1867.02</ele>
        <time>2010-10-10T10:25:31Z</time>
      </trkpt>
      <trkpt lat="45.96504" lon="6.52718">
        <ele>1867.5</ele>
        <time>2010-10-10T10:25:39Z</time>
      </trkpt>
      <trkpt lat="45.965" lon="6.52727">
        <ele>1867.02</ele>
        <time>2010-10-10T10:25:45Z</time>
      </trkpt>
      <trkpt lat="45.96497" lon="6.52731">
        <ele>1866.54</ele>
        <time>2010-10-10T10:25:48Z</time>
      </trkpt>
      <trkpt lat="45.96488" lon="6.52749">
        <ele>1866.06</ele>
        <time>2010-10-10T10:26:02Z</time>
      </trkpt>
      <trkpt lat="45.9648" lon="6.5275">
        <ele>1866.06</ele>
        <time>2010-10-10T10:26:08Z</time>
      </trkpt>
      <trkpt lat="45.96475" lon="6.52773">
        <ele>1864.13</ele>
        <time>2010-10-10T10:26:23Z</time>
      </trkpt>
      <trkpt lat="45.96475" lon="6.52779">
        <ele>1864.13</ele>
        <time>2010-10-10T10:26:27Z</time>
      </trkpt>
      <trkpt lat="45.96476" lon="6.52788">
        <ele>1855.96</ele>
        <time>2010-10-10T10:26:34Z</time>
      </trkpt>
      <trkpt lat="45.96475" lon="6.52789">
        <ele>1863.17</ele>
        <time>2010-10-10T10:26:35Z</time>
      </trkpt>
      <trkpt lat="45.9647" lon="6.52818">
        <ele>1862.69</ele>
        <time>2010-10-10T10:26:50Z</time>
      </trkpt>
      <trkpt lat="45.96456" lon="6.5283">
        <ele>1863.65</ele>
        <time>2010-10-10T10:27:01Z</time>
      </trkpt>
      <trkpt lat="45.96453" lon="6.52833">
        <ele>1864.13</ele>
        <time>2010-10-10T10:27:04Z</time>
      </trkpt>
      <trkpt lat="45.96444" lon="6.52838">
        <ele>1865.58</ele>
        <time>2010-10-10T10:27:12Z</time>
      </trkpt>
      <trkpt lat="45.96441" lon="6.52839">
        <ele>1866.06</ele>
        <time>2010-10-10T10:27:15Z</time>
      </trkpt>
      <trkpt lat="45.96434" lon="6.52851">
        <ele>1867.02</ele>
        <time>2010-10-10T10:27:25Z</time>
      </trkpt>
      <trkpt lat="45.96432" lon="6.52856">
        <ele>1867.98</ele>
        <time>2010-10-10T10:27:29Z</time>
      </trkpt>
      <trkpt lat="45.96426" lon="6.52867">
        <ele>1868.94</ele>
        <time>2010-10-10T10:27:36Z</time>
      </trkpt>
      <trkpt lat="45.96422" lon="6.52872">
        <ele>1869.9</ele>
        <time>2010-10-10T10:27:41Z</time>
      </trkpt>
      <trkpt lat="45.96409" lon="6.52889">
        <ele>1871.34</ele>
        <time>2010-10-10T10:27:56Z</time>
      </trkpt>
      <trkpt lat="45.96406" lon="6.52892">
        <ele>1872.79</ele>
        <time>2010-10-10T10:28:00Z</time>
      </trkpt>
      <trkpt lat="45.96405" lon="6.52897">
        <ele>1873.27</ele>
        <time>2010-10-10T10:28:03Z</time>
      </trkpt>
      <trkpt lat="45.96402" lon="6.52909">
        <ele>1876.63</ele>
        <time>2010-10-10T10:28:15Z</time>
      </trkpt>
      <trkpt lat="45.96402" lon="6.52915">
        <ele>1878.55</ele>
        <time>2010-10-10T10:28:20Z</time>
      </trkpt>
      <trkpt lat="45.96395" lon="6.52927">
        <ele>1880.48</ele>
        <time>2010-10-10T10:28:33Z</time>
      </trkpt>
      <trkpt lat="45.96381" lon="6.5294">
        <ele>1879.51</ele>
        <time>2010-10-10T10:28:46Z</time>
      </trkpt>
      <trkpt lat="45.96381" lon="6.52942">
        <ele>1879.03</ele>
        <time>2010-10-10T10:28:47Z</time>
      </trkpt>
      <trkpt lat="45.96383" lon="6.52969">
        <ele>1878.55</ele>
        <time>2010-10-10T10:29:02Z</time>
      </trkpt>
      <trkpt lat="45.9638" lon="6.52979">
        <ele>1877.59</ele>
        <time>2010-10-10T10:29:14Z</time>
      </trkpt>
      <trkpt lat="45.96378" lon="6.52981">
        <ele>1877.59</ele>
        <time>2010-10-10T10:29:16Z</time>
      </trkpt>
      <trkpt lat="45.96377" lon="6.52987">
        <ele>1877.11</ele>
        <time>2010-10-10T10:29:20Z</time>
      </trkpt>
      <trkpt lat="45.96373" lon="6.52998">
        <ele>1880</ele>
        <time>2010-10-10T10:29:33Z</time>
      </trkpt>
      <trkpt lat="45.96372" lon="6.53">
        <ele>1879.51</ele>
        <time>2010-10-10T10:29:35Z</time>
      </trkpt>
      <trkpt lat="45.96374" lon="6.5302">
        <ele>1880.96</ele>
        <time>2010-10-10T10:29:48Z</time>
      </trkpt>
      <trkpt lat="45.96375" lon="6.53042">
        <ele>1880</ele>
        <time>2010-10-10T10:30:01Z</time>
      </trkpt>
      <trkpt lat="45.96375" lon="6.53067">
        <ele>1880.48</ele>
        <time>2010-10-10T10:30:15Z</time>
      </trkpt>
      <trkpt lat="45.96374" lon="6.53069">
        <ele>1880.96</ele>
        <time>2010-10-10T10:30:16Z</time>
      </trkpt>
      <trkpt lat="45.96371" lon="6.53082">
        <ele>1883.36</ele>
        <time>2010-10-10T10:30:29Z</time>
      </trkpt>
      <trkpt lat="45.9637" lon="6.53088">
        <ele>1883.84</ele>
        <time>2010-10-10T10:30:34Z</time>
      </trkpt>
      <trkpt lat="45.96364" lon="6.53098">
        <ele>1886.24</ele>
        <time>2010-10-10T10:30:48Z</time>
      </trkpt>
      <trkpt lat="45.96361" lon="6.53102">
        <ele>1887.21</ele>
        <time>2010-10-10T10:30:53Z</time>
      </trkpt>
      <trkpt lat="45.96359" lon="6.53113">
        <ele>1888.65</ele>
        <time>2010-10-10T10:31:01Z</time>
      </trkpt>
      <trkpt lat="45.96356" lon="6.53133">
        <ele>1891.05</ele>
        <time>2010-10-10T10:31:15Z</time>
      </trkpt>
      <trkpt lat="45.9635" lon="6.53145">
        <ele>1893.45</ele>
        <time>2010-10-10T10:31:26Z</time>
      </trkpt>
      <trkpt lat="45.96348" lon="6.53151">
        <ele>1894.9</ele>
        <time>2010-10-10T10:31:34Z</time>
      </trkpt>
      <trkpt lat="45.96348" lon="6.53154">
        <ele>1895.38</ele>
        <time>2010-10-10T10:31:36Z</time>
      </trkpt>
      <trkpt lat="45.96349" lon="6.53171">
        <ele>1898.26</ele>
        <time>2010-10-10T10:31:49Z</time>
      </trkpt>
      <trkpt lat="45.96351" lon="6.53186">
        <ele>1899.22</ele>
        <time>2010-10-10T10:32:01Z</time>
      </trkpt>
      <trkpt lat="45.9635" lon="6.53193">
        <ele>1900.66</ele>
        <time>2010-10-10T10:32:06Z</time>
      </trkpt>
      <trkpt lat="45.96347" lon="6.53209">
        <ele>1903.55</ele>
        <time>2010-10-10T10:32:20Z</time>
      </trkpt>
      <trkpt lat="45.96347" lon="6.53218">
        <ele>1904.51</ele>
        <time>2010-10-10T10:32:26Z</time>
      </trkpt>
      <trkpt lat="45.9635" lon="6.53228">
        <ele>1905.95</ele>
        <time>2010-10-10T10:32:34Z</time>
      </trkpt>
      <trkpt lat="45.9635" lon="6.53233">
        <ele>1905.47</ele>
        <time>2010-10-10T10:32:38Z</time>
      </trkpt>
      <trkpt lat="45.9635" lon="6.53242">
        <ele>1907.87</ele>
        <time>2010-10-10T10:32:46Z</time>
      </trkpt>
      <trkpt lat="45.96346" lon="6.53245">
        <ele>1908.35</ele>
        <time>2010-10-10T10:32:50Z</time>
      </trkpt>
      <trkpt lat="45.96336" lon="6.53235">
        <ele>1911.72</ele>
        <time>2010-10-10T10:33:04Z</time>
      </trkpt>
      <trkpt lat="45.96329" lon="6.53233">
        <ele>1914.6</ele>
        <time>2010-10-10T10:33:18Z</time>
      </trkpt>
      <trkpt lat="45.96325" lon="6.53237">
        <ele>1916.53</ele>
        <time>2010-10-10T10:33:27Z</time>
      </trkpt>
      <trkpt lat="45.96325" lon="6.53238">
        <ele>1916.04</ele>
        <time>2010-10-10T10:33:30Z</time>
      </trkpt>
      <trkpt lat="45.96324" lon="6.53242">
        <ele>1917.49</ele>
        <time>2010-10-10T10:33:34Z</time>
      </trkpt>
      <trkpt lat="45.96321" lon="6.53244">
        <ele>1918.93</ele>
        <time>2010-10-10T10:33:41Z</time>
      </trkpt>
      <trkpt lat="45.96322" lon="6.53255">
        <ele>1921.33</ele>
        <time>2010-10-10T10:33:54Z</time>
      </trkpt>
      <trkpt lat="45.96324" lon="6.53259">
        <ele>1921.33</ele>
        <time>2010-10-10T10:33:58Z</time>
      </trkpt>
      <trkpt lat="45.96324" lon="6.53262">
        <ele>1922.29</ele>
        <time>2010-10-10T10:34:00Z</time>
      </trkpt>
      <trkpt lat="45.96324" lon="6.53274">
        <ele>1922.77</ele>
        <time>2010-10-10T10:34:09Z</time>
      </trkpt>
      <trkpt lat="45.96326" lon="6.53282">
        <ele>1923.74</ele>
        <time>2010-10-10T10:34:17Z</time>
      </trkpt>
      <trkpt lat="45.96333" lon="6.53292">
        <ele>1926.14</ele>
        <time>2010-10-10T10:34:28Z</time>
      </trkpt>
      <trkpt lat="45.96335" lon="6.53295">
        <ele>1926.14</ele>
        <time>2010-10-10T10:34:31Z</time>
      </trkpt>
      <trkpt lat="45.96339" lon="6.53302">
        <ele>1927.1</ele>
        <time>2010-10-10T10:34:36Z</time>
      </trkpt>
      <trkpt lat="45.96342" lon="6.53313">
        <ele>1928.06</ele>
        <time>2010-10-10T10:34:44Z</time>
      </trkpt>
      <trkpt lat="45.96346" lon="6.53321">
        <ele>1928.54</ele>
        <time>2010-10-10T10:34:49Z</time>
      </trkpt>
      <trkpt lat="45.96351" lon="6.53337">
        <ele>1929.5</ele>
        <time>2010-10-10T10:35:00Z</time>
      </trkpt>
      <trkpt lat="45.96354" lon="6.53344">
        <ele>1930.46</ele>
        <time>2010-10-10T10:35:05Z</time>
      </trkpt>
      <trkpt lat="45.96362" lon="6.53361">
        <ele>1932.87</ele>
        <time>2010-10-10T10:35:19Z</time>
      </trkpt>
      <trkpt lat="45.96368" lon="6.53378">
        <ele>1931.91</ele>
        <time>2010-10-10T10:35:31Z</time>
      </trkpt>
      <trkpt lat="45.96368" lon="6.53382">
        <ele>1931.43</ele>
        <time>2010-10-10T10:35:34Z</time>
      </trkpt>
      <trkpt lat="45.96369" lon="6.53387">
        <ele>1929.98</ele>
        <time>2010-10-10T10:35:40Z</time>
      </trkpt>
      <trkpt lat="45.96372" lon="6.53391">
        <ele>1928.54</ele>
        <time>2010-10-10T10:35:44Z</time>
      </trkpt>
      <trkpt lat="45.96373" lon="6.53411">
        <ele>1928.54</ele>
        <time>2010-10-10T10:35:54Z</time>
      </trkpt>
      <trkpt lat="45.96373" lon="6.53415">
        <ele>1929.5</ele>
        <time>2010-10-10T10:35:58Z</time>
      </trkpt>
      <trkpt lat="45.9638" lon="6.53423">
        <ele>1929.5</ele>
        <time>2010-10-10T10:36:05Z</time>
      </trkpt>
      <trkpt lat="45.96388" lon="6.53427">
        <ele>1928.54</ele>
        <time>2010-10-10T10:36:12Z</time>
      </trkpt>
      <trkpt lat="45.96397" lon="6.53448">
        <ele>1928.54</ele>
        <time>2010-10-10T10:36:25Z</time>
      </trkpt>
      <trkpt lat="45.96407" lon="6.53463">
        <ele>1930.46</ele>
        <time>2010-10-10T10:36:38Z</time>
      </trkpt>
      <trkpt lat="45.9641" lon="6.53469">
        <ele>1931.91</ele>
        <time>2010-10-10T10:36:44Z</time>
      </trkpt>
      <trkpt lat="45.9641" lon="6.53477">
        <ele>1934.31</ele>
        <time>2010-10-10T10:36:53Z</time>
      </trkpt>
      <trkpt lat="45.96408" lon="6.53483">
        <ele>1937.67</ele>
        <time>2010-10-10T10:37:06Z</time>
      </trkpt>
      <trkpt lat="45.9641" lon="6.53485">
        <ele>1937.19</ele>
        <time>2010-10-10T10:37:08Z</time>
      </trkpt>
      <trkpt lat="45.96411" lon="6.53488">
        <ele>1937.67</ele>
        <time>2010-10-10T10:37:11Z</time>
      </trkpt>
      <trkpt lat="45.96413" lon="6.53492">
        <ele>1938.64</ele>
        <time>2010-10-10T10:37:14Z</time>
      </trkpt>
      <trkpt lat="45.96419" lon="6.53501">
        <ele>1939.6</ele>
        <time>2010-10-10T10:37:21Z</time>
      </trkpt>
      <trkpt lat="45.96426" lon="6.53507">
        <ele>1941.52</ele>
        <time>2010-10-10T10:37:33Z</time>
      </trkpt>
      <trkpt lat="45.96426" lon="6.53507">
        <ele>1942.96</ele>
        <time>2010-10-10T10:37:36Z</time>
      </trkpt>
      <trkpt lat="45.96427" lon="6.53516">
        <ele>1946.33</ele>
        <time>2010-10-10T10:37:48Z</time>
      </trkpt>
      <trkpt lat="45.96432" lon="6.53527">
        <ele>1948.73</ele>
        <time>2010-10-10T10:38:00Z</time>
      </trkpt>
      <trkpt lat="45.96434" lon="6.53535">
        <ele>1951.61</ele>
        <time>2010-10-10T10:38:12Z</time>
      </trkpt>
      <trkpt lat="45.96435" lon="6.53544">
        <ele>1954.5</ele>
        <time>2010-10-10T10:38:22Z</time>
      </trkpt>
      <trkpt lat="45.96436" lon="6.53555">
        <ele>1955.46</ele>
        <time>2010-10-10T10:38:35Z</time>
      </trkpt>
      <trkpt lat="45.96441" lon="6.53557">
        <ele>1952.57</ele>
        <time>2010-10-10T10:38:44Z</time>
      </trkpt>
      <trkpt lat="45.9645" lon="6.53565">
        <ele>1951.13</ele>
        <time>2010-10-10T10:38:52Z</time>
      </trkpt>
      <trkpt lat="45.96456" lon="6.53571">
        <ele>1950.65</ele>
        <time>2010-10-10T10:39:00Z</time>
      </trkpt>
      <trkpt lat="45.96462" lon="6.53573">
        <ele>1948.73</ele>
        <time>2010-10-10T10:39:06Z</time>
      </trkpt>
      <trkpt lat="45.96467" lon="6.53587">
        <ele>1947.29</ele>
        <time>2010-10-10T10:39:15Z</time>
      </trkpt>
      <trkpt lat="45.96471" lon="6.53595">
        <ele>1945.85</ele>
        <time>2010-10-10T10:39:20Z</time>
      </trkpt>
      <trkpt lat="45.96474" lon="6.53604">
        <ele>1946.33</ele>
        <time>2010-10-10T10:39:26Z</time>
      </trkpt>
      <trkpt lat="45.96473" lon="6.53613">
        <ele>1946.81</ele>
        <time>2010-10-10T10:39:31Z</time>
      </trkpt>
      <trkpt lat="45.96458" lon="6.53631">
        <ele>1947.29</ele>
        <time>2010-10-10T10:39:44Z</time>
      </trkpt>
      <trkpt lat="45.96448" lon="6.53646">
        <ele>1946.81</ele>
        <time>2010-10-10T10:39:56Z</time>
      </trkpt>
      <trkpt lat="45.96434" lon="6.53659">
        <ele>1944.88</ele>
        <time>2010-10-10T10:40:08Z</time>
      </trkpt>
      <trkpt lat="45.96423" lon="6.53673">
        <ele>1944.4</ele>
        <time>2010-10-10T10:40:19Z</time>
      </trkpt>
      <trkpt lat="45.96414" lon="6.53682">
        <ele>1943.92</ele>
        <time>2010-10-10T10:40:30Z</time>
      </trkpt>
      <trkpt lat="45.96412" lon="6.53686">
        <ele>1942.96</ele>
        <time>2010-10-10T10:40:46Z</time>
      </trkpt>
      <trkpt lat="45.96412" lon="6.53689">
        <ele>1942.96</ele>
        <time>2010-10-10T10:40:58Z</time>
      </trkpt>
      <trkpt lat="45.96409" lon="6.53692">
        <ele>1942.96</ele>
        <time>2010-10-10T10:41:11Z</time>
      </trkpt>
      <trkpt lat="45.96409" lon="6.53692">
        <ele>1942.96</ele>
        <time>2010-10-10T10:41:13Z</time>
      </trkpt>
      <trkpt lat="45.96404" lon="6.53708">
        <ele>1943.92</ele>
        <time>2010-10-10T10:41:23Z</time>
      </trkpt>
      <trkpt lat="45.96401" lon="6.53715">
        <ele>1943.92</ele>
        <time>2010-10-10T10:41:32Z</time>
      </trkpt>
      <trkpt lat="45.96401" lon="6.53725">
        <ele>1943.44</ele>
        <time>2010-10-10T10:41:49Z</time>
      </trkpt>
      <trkpt lat="45.96401" lon="6.53727">
        <ele>1942</ele>
        <time>2010-10-10T10:42:14Z</time>
      </trkpt>
      <trkpt lat="45.96398" lon="6.53731">
        <ele>1940.56</ele>
        <time>2010-10-10T10:42:19Z</time>
      </trkpt>
      <trkpt lat="45.96397" lon="6.53737">
        <ele>1938.64</ele>
        <time>2010-10-10T10:42:24Z</time>
      </trkpt>
      <trkpt lat="45.96395" lon="6.53743">
        <ele>1937.19</ele>
        <time>2010-10-10T10:42:28Z</time>
      </trkpt>
      <trkpt lat="45.96391" lon="6.53749">
        <ele>1933.35</ele>
        <time>2010-10-10T10:42:35Z</time>
      </trkpt>
      <trkpt lat="45.96385" lon="6.53755">
        <ele>1932.39</ele>
        <time>2010-10-10T10:42:40Z</time>
      </trkpt>
      <trkpt lat="45.96383" lon="6.53759">
        <ele>1930.95</ele>
        <time>2010-10-10T10:42:43Z</time>
      </trkpt>
      <trkpt lat="45.9638" lon="6.53768">
        <ele>1928.54</ele>
        <time>2010-10-10T10:42:51Z</time>
      </trkpt>
      <trkpt lat="45.96375" lon="6.53792">
        <ele>1927.1</ele>
        <time>2010-10-10T10:43:05Z</time>
      </trkpt>
      <trkpt lat="45.9637" lon="6.53799">
        <ele>1925.18</ele>
        <time>2010-10-10T10:43:13Z</time>
      </trkpt>
      <trkpt lat="45.96366" lon="6.53793">
        <ele>1921.81</ele>
        <time>2010-10-10T10:43:21Z</time>
      </trkpt>
      <trkpt lat="45.96366" lon="6.53793">
        <ele>1921.33</ele>
        <time>2010-10-10T10:43:22Z</time>
      </trkpt>
      <trkpt lat="45.9636" lon="6.538">
        <ele>1918.45</ele>
        <time>2010-10-10T10:43:30Z</time>
      </trkpt>
      <trkpt lat="45.9636" lon="6.53801">
        <ele>1918.45</ele>
        <time>2010-10-10T10:43:31Z</time>
      </trkpt>
      <trkpt lat="45.96355" lon="6.53813">
        <ele>1916.53</ele>
        <time>2010-10-10T10:43:40Z</time>
      </trkpt>
      <trkpt lat="45.96347" lon="6.53818">
        <ele>1913.64</ele>
        <time>2010-10-10T10:43:47Z</time>
      </trkpt>
      <trkpt lat="45.9634" lon="6.53818">
        <ele>1912.2</ele>
        <time>2010-10-10T10:43:50Z</time>
      </trkpt>
      <trkpt lat="45.96319" lon="6.53829">
        <ele>1910.28</ele>
        <time>2010-10-10T10:44:02Z</time>
      </trkpt>
      <trkpt lat="45.96292" lon="6.53835">
        <ele>1909.32</ele>
        <time>2010-10-10T10:44:18Z</time>
      </trkpt>
      <trkpt lat="45.9629" lon="6.53837">
        <ele>1910.28</ele>
        <time>2010-10-10T10:44:20Z</time>
      </trkpt>
      <trkpt lat="45.96276" lon="6.53844">
        <ele>1912.68</ele>
        <time>2010-10-10T10:44:33Z</time>
      </trkpt>
      <trkpt lat="45.96273" lon="6.53845">
        <ele>1912.68</ele>
        <time>2010-10-10T10:44:36Z</time>
      </trkpt>
      <trkpt lat="45.96267" lon="6.53854">
        <ele>1915.08</ele>
        <time>2010-10-10T10:44:44Z</time>
      </trkpt>
      <trkpt lat="45.96259" lon="6.53864">
        <ele>1918.45</ele>
        <time>2010-10-10T10:44:58Z</time>
      </trkpt>
      <trkpt lat="45.96259" lon="6.53866">
        <ele>1918.45</ele>
        <time>2010-10-10T10:44:59Z</time>
      </trkpt>
      <trkpt lat="45.96255" lon="6.5387">
        <ele>1919.41</ele>
        <time>2010-10-10T10:45:04Z</time>
      </trkpt>
      <trkpt lat="45.96251" lon="6.53875">
        <ele>1922.29</ele>
        <time>2010-10-10T10:45:11Z</time>
      </trkpt>
      <trkpt lat="45.96249" lon="6.53879">
        <ele>1922.77</ele>
        <time>2010-10-10T10:45:15Z</time>
      </trkpt>
      <trkpt lat="45.96244" lon="6.5388">
        <ele>1924.22</ele>
        <time>2010-10-10T10:45:21Z</time>
      </trkpt>
      <trkpt lat="45.96237" lon="6.5388">
        <ele>1924.7</ele>
        <time>2010-10-10T10:45:28Z</time>
      </trkpt>
      <trkpt lat="45.96229" lon="6.53906">
        <ele>1924.7</ele>
        <time>2010-10-10T10:45:45Z</time>
      </trkpt>
      <trkpt lat="45.96228" lon="6.53909">
        <ele>1924.22</ele>
        <time>2010-10-10T10:45:47Z</time>
      </trkpt>
      <trkpt lat="45.96227" lon="6.53915">
        <ele>1924.7</ele>
        <time>2010-10-10T10:45:52Z</time>
      </trkpt>
      <trkpt lat="45.96218" lon="6.53924">
        <ele>1921.81</ele>
        <time>2010-10-10T10:46:03Z</time>
      </trkpt>
      <trkpt lat="45.96213" lon="6.53927">
        <ele>1921.81</ele>
        <time>2010-10-10T10:46:09Z</time>
      </trkpt>
      <trkpt lat="45.9621" lon="6.53933">
        <ele>1920.85</ele>
        <time>2010-10-10T10:46:13Z</time>
      </trkpt>
      <trkpt lat="45.96206" lon="6.53938">
        <ele>1921.33</ele>
        <time>2010-10-10T10:46:18Z</time>
      </trkpt>
      <trkpt lat="45.96197" lon="6.53939">
        <ele>1921.81</ele>
        <time>2010-10-10T10:46:28Z</time>
      </trkpt>
      <trkpt lat="45.96187" lon="6.5393">
        <ele>1917.49</ele>
        <time>2010-10-10T10:46:39Z</time>
      </trkpt>
      <trkpt lat="45.96186" lon="6.53929">
        <ele>1921.81</ele>
        <time>2010-10-10T10:46:40Z</time>
      </trkpt>
      <trkpt lat="45.96181" lon="6.53923">
        <ele>1918.93</ele>
        <time>2010-10-10T10:46:50Z</time>
      </trkpt>
      <trkpt lat="45.96172" lon="6.53911">
        <ele>1926.14</ele>
        <time>2010-10-10T10:47:03Z</time>
      </trkpt>
      <trkpt lat="45.96159" lon="6.53903">
        <ele>1917.97</ele>
        <time>2010-10-10T10:47:17Z</time>
      </trkpt>
      <trkpt lat="45.96157" lon="6.53905">
        <ele>1920.85</ele>
        <time>2010-10-10T10:47:33Z</time>
      </trkpt>
      <trkpt lat="45.96155" lon="6.53906">
        <ele>1921.81</ele>
        <time>2010-10-10T10:47:35Z</time>
      </trkpt>
      <trkpt lat="45.96149" lon="6.53904">
        <ele>1924.22</ele>
        <time>2010-10-10T10:47:44Z</time>
      </trkpt>
      <trkpt lat="45.96148" lon="6.53904">
        <ele>1925.66</ele>
        <time>2010-10-10T10:47:48Z</time>
      </trkpt>
      <trkpt lat="45.96145" lon="6.53908">
        <ele>1927.1</ele>
        <time>2010-10-10T10:47:55Z</time>
      </trkpt>
      <trkpt lat="45.96138" lon="6.53917">
        <ele>1928.06</ele>
        <time>2010-10-10T10:48:04Z</time>
      </trkpt>
      <trkpt lat="45.96119" lon="6.53921">
        <ele>1930.46</ele>
        <time>2010-10-10T10:48:20Z</time>
      </trkpt>
      <trkpt lat="45.96118" lon="6.53921">
        <ele>1930.95</ele>
        <time>2010-10-10T10:48:21Z</time>
      </trkpt>
      <trkpt lat="45.96106" lon="6.53913">
        <ele>1930.46</ele>
        <time>2010-10-10T10:48:30Z</time>
      </trkpt>
      <trkpt lat="45.96096" lon="6.53921">
        <ele>1930.46</ele>
        <time>2010-10-10T10:48:40Z</time>
      </trkpt>
      <trkpt lat="45.96083" lon="6.5393">
        <ele>1933.35</ele>
        <time>2010-10-10T10:48:57Z</time>
      </trkpt>
      <trkpt lat="45.9608" lon="6.5393">
        <ele>1936.23</ele>
        <time>2010-10-10T10:49:06Z</time>
      </trkpt>
      <trkpt lat="45.96076" lon="6.5393">
        <ele>1937.19</ele>
        <time>2010-10-10T10:49:10Z</time>
      </trkpt>
      <trkpt lat="45.96065" lon="6.53934">
        <ele>1939.6</ele>
        <time>2010-10-10T10:49:23Z</time>
      </trkpt>
      <trkpt lat="45.96063" lon="6.53936">
        <ele>1941.52</ele>
        <time>2010-10-10T10:49:31Z</time>
      </trkpt>
      <trkpt lat="45.96061" lon="6.53939">
        <ele>1942.96</ele>
        <time>2010-10-10T10:49:35Z</time>
      </trkpt>
      <trkpt lat="45.96059" lon="6.53938">
        <ele>1943.92</ele>
        <time>2010-10-10T10:49:40Z</time>
      </trkpt>
      <trkpt lat="45.96053" lon="6.53939">
        <ele>1944.88</ele>
        <time>2010-10-10T10:49:48Z</time>
      </trkpt>
      <trkpt lat="45.96046" lon="6.53935">
        <ele>1948.25</ele>
        <time>2010-10-10T10:50:04Z</time>
      </trkpt>
      <trkpt lat="45.96045" lon="6.53935">
        <ele>1949.21</ele>
        <time>2010-10-10T10:50:07Z</time>
      </trkpt>
      <trkpt lat="45.96042" lon="6.53936">
        <ele>1950.65</ele>
        <time>2010-10-10T10:50:13Z</time>
      </trkpt>
      <trkpt lat="45.96042" lon="6.53936">
        <ele>1950.17</ele>
        <time>2010-10-10T10:50:14Z</time>
      </trkpt>
      <trkpt lat="45.96039" lon="6.53938">
        <ele>1950.65</ele>
        <time>2010-10-10T10:50:17Z</time>
      </trkpt>
      <trkpt lat="45.96035" lon="6.53935">
        <ele>1954.02</ele>
        <time>2010-10-10T10:50:28Z</time>
      </trkpt>
      <trkpt lat="45.96031" lon="6.53933">
        <ele>1955.46</ele>
        <time>2010-10-10T10:50:33Z</time>
      </trkpt>
      <trkpt lat="45.96029" lon="6.53933">
        <ele>1956.9</ele>
        <time>2010-10-10T10:50:34Z</time>
      </trkpt>
      <trkpt lat="45.96028" lon="6.53933">
        <ele>1955.46</ele>
        <time>2010-10-10T10:50:35Z</time>
      </trkpt>
      <trkpt lat="45.9602" lon="6.53933">
        <ele>1958.82</ele>
        <time>2010-10-10T10:50:46Z</time>
      </trkpt>
      <trkpt lat="45.96018" lon="6.53934">
        <ele>1958.34</ele>
        <time>2010-10-10T10:50:48Z</time>
      </trkpt>
      <trkpt lat="45.96013" lon="6.53935">
        <ele>1960.27</ele>
        <time>2010-10-10T10:50:57Z</time>
      </trkpt>
      <trkpt lat="45.96009" lon="6.53936">
        <ele>1962.19</ele>
        <time>2010-10-10T10:51:02Z</time>
      </trkpt>
      <trkpt lat="45.95993" lon="6.53933">
        <ele>1961.71</ele>
        <time>2010-10-10T10:51:16Z</time>
      </trkpt>
      <trkpt lat="45.95988" lon="6.53935">
        <ele>1964.59</ele>
        <time>2010-10-10T10:51:29Z</time>
      </trkpt>
      <trkpt lat="45.96007" lon="6.53942">
        <ele>1966.51</ele>
        <time>2010-10-10T10:51:36Z</time>
      </trkpt>
      <trkpt lat="45.96007" lon="6.53941">
        <ele>1966.51</ele>
        <time>2010-10-10T10:51:37Z</time>
      </trkpt>
      <trkpt lat="45.96005" lon="6.5394">
        <ele>1967.96</ele>
        <time>2010-10-10T10:51:53Z</time>
      </trkpt>
      <trkpt lat="45.95998" lon="6.53945">
        <ele>1967.48</ele>
        <time>2010-10-10T10:52:07Z</time>
      </trkpt>
      <trkpt lat="45.95994" lon="6.53947">
        <ele>1965.55</ele>
        <time>2010-10-10T10:52:15Z</time>
      </trkpt>
      <trkpt lat="45.95991" lon="6.53949">
        <ele>1965.07</ele>
        <time>2010-10-10T10:52:17Z</time>
      </trkpt>
      <trkpt lat="45.95987" lon="6.53949">
        <ele>1965.55</ele>
        <time>2010-10-10T10:52:21Z</time>
      </trkpt>
      <trkpt lat="45.95978" lon="6.53956">
        <ele>1966.51</ele>
        <time>2010-10-10T10:52:36Z</time>
      </trkpt>
      <trkpt lat="45.9597" lon="6.53962">
        <ele>1967.96</ele>
        <time>2010-10-10T10:52:49Z</time>
      </trkpt>
      <trkpt lat="45.95963" lon="6.53965">
        <ele>1969.4</ele>
        <time>2010-10-10T10:53:01Z</time>
      </trkpt>
      <trkpt lat="45.95949" lon="6.53968">
        <ele>1969.4</ele>
        <time>2010-10-10T10:53:19Z</time>
      </trkpt>
      <trkpt lat="45.95946" lon="6.53968">
        <ele>1972.76</ele>
        <time>2010-10-10T10:53:34Z</time>
      </trkpt>
      <trkpt lat="45.95947" lon="6.53966">
        <ele>1972.76</ele>
        <time>2010-10-10T10:53:36Z</time>
      </trkpt>
      <trkpt lat="45.9595" lon="6.53959">
        <ele>1972.76</ele>
        <time>2010-10-10T10:53:43Z</time>
      </trkpt>
      <trkpt lat="45.95947" lon="6.53955">
        <ele>1973.72</ele>
        <time>2010-10-10T10:53:45Z</time>
      </trkpt>
      <trkpt lat="45.95946" lon="6.53955">
        <ele>1973.72</ele>
        <time>2010-10-10T10:53:47Z</time>
      </trkpt>
      <trkpt lat="45.95937" lon="6.53958">
        <ele>1975.65</ele>
        <time>2010-10-10T10:53:57Z</time>
      </trkpt>
      <trkpt lat="45.95933" lon="6.53961">
        <ele>1976.61</ele>
        <time>2010-10-10T10:54:01Z</time>
      </trkpt>
      <trkpt lat="45.95933" lon="6.5397">
        <ele>1977.09</ele>
        <time>2010-10-10T10:54:11Z</time>
      </trkpt>
      <trkpt lat="45.95925" lon="6.53978">
        <ele>1979.97</ele>
        <time>2010-10-10T10:54:25Z</time>
      </trkpt>
      <trkpt lat="45.95928" lon="6.53985">
        <ele>1981.9</ele>
        <time>2010-10-10T10:54:40Z</time>
      </trkpt>
      <trkpt lat="45.95928" lon="6.53994">
        <ele>1985.26</ele>
        <time>2010-10-10T10:54:53Z</time>
      </trkpt>
      <trkpt lat="45.95928" lon="6.53996">
        <ele>1985.26</ele>
        <time>2010-10-10T10:55:10Z</time>
      </trkpt>
      <trkpt lat="45.95922" lon="6.53995">
        <ele>1984.78</ele>
        <time>2010-10-10T10:55:24Z</time>
      </trkpt>
      <trkpt lat="45.95918" lon="6.53991">
        <ele>1988.14</ele>
        <time>2010-10-10T10:55:31Z</time>
      </trkpt>
      <trkpt lat="45.95912" lon="6.53993">
        <ele>1987.66</ele>
        <time>2010-10-10T10:55:38Z</time>
      </trkpt>
      <trkpt lat="45.95906" lon="6.53993">
        <ele>1987.66</ele>
        <time>2010-10-10T10:55:45Z</time>
      </trkpt>
      <trkpt lat="45.95901" lon="6.53988">
        <ele>1988.62</ele>
        <time>2010-10-10T10:55:51Z</time>
      </trkpt>
      <trkpt lat="45.9589" lon="6.53987">
        <ele>1990.07</ele>
        <time>2010-10-10T10:56:05Z</time>
      </trkpt>
      <trkpt lat="45.95887" lon="6.53988">
        <ele>1990.55</ele>
        <time>2010-10-10T10:56:09Z</time>
      </trkpt>
      <trkpt lat="45.95885" lon="6.53989">
        <ele>1990.55</ele>
        <time>2010-10-10T10:56:11Z</time>
      </trkpt>
      <trkpt lat="45.95879" lon="6.53991">
        <ele>1993.91</ele>
        <time>2010-10-10T10:56:21Z</time>
      </trkpt>
      <trkpt lat="45.95875" lon="6.53994">
        <ele>1994.87</ele>
        <time>2010-10-10T10:56:29Z</time>
      </trkpt>
      <trkpt lat="45.95871" lon="6.53996">
        <ele>1995.35</ele>
        <time>2010-10-10T10:56:33Z</time>
      </trkpt>
      <trkpt lat="45.95868" lon="6.53997">
        <ele>1995.83</ele>
        <time>2010-10-10T10:56:37Z</time>
      </trkpt>
      <trkpt lat="45.95867" lon="6.53999">
        <ele>1996.8</ele>
        <time>2010-10-10T10:56:39Z</time>
      </trkpt>
      <trkpt lat="45.95858" lon="6.54002">
        <ele>1997.28</ele>
        <time>2010-10-10T10:56:46Z</time>
      </trkpt>
      <trkpt lat="45.95848" lon="6.54006">
        <ele>1998.72</ele>
        <time>2010-10-10T10:56:56Z</time>
      </trkpt>
      <trkpt lat="45.95845" lon="6.54008">
        <ele>1999.2</ele>
        <time>2010-10-10T10:57:00Z</time>
      </trkpt>
      <trkpt lat="45.95839" lon="6.54008">
        <ele>2001.12</ele>
        <time>2010-10-10T10:57:07Z</time>
      </trkpt>
      <trkpt lat="45.95831" lon="6.54012">
        <ele>2003.04</ele>
        <time>2010-10-10T10:57:16Z</time>
      </trkpt>
      <trkpt lat="45.9582" lon="6.54016">
        <ele>2005.45</ele>
        <time>2010-10-10T10:57:30Z</time>
      </trkpt>
      <trkpt lat="45.95816" lon="6.54017">
        <ele>2006.41</ele>
        <time>2010-10-10T10:57:35Z</time>
      </trkpt>
      <trkpt lat="45.95805" lon="6.5402">
        <ele>2008.33</ele>
        <time>2010-10-10T10:57:45Z</time>
      </trkpt>
      <trkpt lat="45.95804" lon="6.54021">
        <ele>2008.81</ele>
        <time>2010-10-10T10:57:47Z</time>
      </trkpt>
      <trkpt lat="45.95796" lon="6.5402">
        <ele>2009.29</ele>
        <time>2010-10-10T10:57:55Z</time>
      </trkpt>
      <trkpt lat="45.95791" lon="6.54017">
        <ele>2009.29</ele>
        <time>2010-10-10T10:58:00Z</time>
      </trkpt>
      <trkpt lat="45.95789" lon="6.54016">
        <ele>2008.81</ele>
        <time>2010-10-10T10:58:02Z</time>
      </trkpt>
      <trkpt lat="45.95775" lon="6.54016">
        <ele>2009.29</ele>
        <time>2010-10-10T10:58:16Z</time>
      </trkpt>
      <trkpt lat="45.95773" lon="6.54019">
        <ele>2009.77</ele>
        <time>2010-10-10T10:58:18Z</time>
      </trkpt>
      <trkpt lat="45.95758" lon="6.54021">
        <ele>2011.7</ele>
        <time>2010-10-10T10:58:32Z</time>
      </trkpt>
      <trkpt lat="45.95752" lon="6.54018">
        <ele>2013.14</ele>
        <time>2010-10-10T10:58:39Z</time>
      </trkpt>
      <trkpt lat="45.95742" lon="6.54011">
        <ele>2016.5</ele>
        <time>2010-10-10T10:58:52Z</time>
      </trkpt>
      <trkpt lat="45.95738" lon="6.54004">
        <ele>2016.5</ele>
        <time>2010-10-10T10:58:58Z</time>
      </trkpt>
      <trkpt lat="45.95734" lon="6.54001">
        <ele>2016.98</ele>
        <time>2010-10-10T10:59:02Z</time>
      </trkpt>
      <trkpt lat="45.95726" lon="6.54003">
        <ele>2019.39</ele>
        <time>2010-10-10T10:59:16Z</time>
      </trkpt>
      <trkpt lat="45.95725" lon="6.54004">
        <ele>2018.43</ele>
        <time>2010-10-10T10:59:17Z</time>
      </trkpt>
      <trkpt lat="45.9572" lon="6.54011">
        <ele>2020.83</ele>
        <time>2010-10-10T10:59:27Z</time>
      </trkpt>
      <trkpt lat="45.95715" lon="6.54014">
        <ele>2022.27</ele>
        <time>2010-10-10T10:59:34Z</time>
      </trkpt>
      <trkpt lat="45.95712" lon="6.54018">
        <ele>2023.71</ele>
        <time>2010-10-10T10:59:39Z</time>
      </trkpt>
      <trkpt lat="45.95704" lon="6.54023">
        <ele>2025.15</ele>
        <time>2010-10-10T10:59:52Z</time>
      </trkpt>
      <trkpt lat="45.95699" lon="6.54027">
        <ele>2027.08</ele>
        <time>2010-10-10T11:00:01Z</time>
      </trkpt>
      <trkpt lat="45.95694" lon="6.54031">
        <ele>2027.08</ele>
        <time>2010-10-10T11:00:08Z</time>
      </trkpt>
      <trkpt lat="45.95694" lon="6.54035">
        <ele>2030.92</ele>
        <time>2010-10-10T11:00:21Z</time>
      </trkpt>
      <trkpt lat="45.95702" lon="6.54047">
        <ele>2032.36</ele>
        <time>2010-10-10T11:00:36Z</time>
      </trkpt>
      <trkpt lat="45.95706" lon="6.54056">
        <ele>2034.29</ele>
        <time>2010-10-10T11:00:46Z</time>
      </trkpt>
      <trkpt lat="45.95702" lon="6.54061">
        <ele>2035.73</ele>
        <time>2010-10-10T11:00:55Z</time>
      </trkpt>
      <trkpt lat="45.95691" lon="6.54062">
        <ele>2038.13</ele>
        <time>2010-10-10T11:01:09Z</time>
      </trkpt>
      <trkpt lat="45.95682" lon="6.54062">
        <ele>2041.5</ele>
        <time>2010-10-10T11:01:21Z</time>
      </trkpt>
      <trkpt lat="45.95672" lon="6.54066">
        <ele>2042.94</ele>
        <time>2010-10-10T11:01:35Z</time>
      </trkpt>
      <trkpt lat="45.9568" lon="6.54073">
        <ele>2044.38</ele>
        <time>2010-10-10T11:01:47Z</time>
      </trkpt>
      <trkpt lat="45.95682" lon="6.54077">
        <ele>2044.86</ele>
        <time>2010-10-10T11:01:52Z</time>
      </trkpt>
      <trkpt lat="45.95684" lon="6.54082">
        <ele>2046.3</ele>
        <time>2010-10-10T11:01:57Z</time>
      </trkpt>
      <trkpt lat="45.95683" lon="6.54089">
        <ele>2047.75</ele>
        <time>2010-10-10T11:02:05Z</time>
      </trkpt>
      <trkpt lat="45.9568" lon="6.54086">
        <ele>2048.71</ele>
        <time>2010-10-10T11:02:13Z</time>
      </trkpt>
      <trkpt lat="45.95678" lon="6.54093">
        <ele>2049.19</ele>
        <time>2010-10-10T11:02:18Z</time>
      </trkpt>
      <trkpt lat="45.95668" lon="6.54096">
        <ele>2053.03</ele>
        <time>2010-10-10T11:02:30Z</time>
      </trkpt>
      <trkpt lat="45.95657" lon="6.54104">
        <ele>2055.92</ele>
        <time>2010-10-10T11:02:45Z</time>
      </trkpt>
      <trkpt lat="45.9565" lon="6.54113">
        <ele>2058.32</ele>
        <time>2010-10-10T11:03:00Z</time>
      </trkpt>
      <trkpt lat="45.95655" lon="6.54115">
        <ele>2058.32</ele>
        <time>2010-10-10T11:03:06Z</time>
      </trkpt>
      <trkpt lat="45.95657" lon="6.54121">
        <ele>2061.68</ele>
        <time>2010-10-10T11:03:18Z</time>
      </trkpt>
      <trkpt lat="45.95651" lon="6.54129">
        <ele>2063.13</ele>
        <time>2010-10-10T11:03:33Z</time>
      </trkpt>
      <trkpt lat="45.95657" lon="6.54142">
        <ele>2065.05</ele>
        <time>2010-10-10T11:03:46Z</time>
      </trkpt>
      <trkpt lat="45.95661" lon="6.54153">
        <ele>2067.93</ele>
        <time>2010-10-10T11:03:57Z</time>
      </trkpt>
      <trkpt lat="45.95655" lon="6.54157">
        <ele>2068.89</ele>
        <time>2010-10-10T11:04:09Z</time>
      </trkpt>
      <trkpt lat="45.95652" lon="6.54156">
        <ele>2070.34</ele>
        <time>2010-10-10T11:04:12Z</time>
      </trkpt>
      <trkpt lat="45.95651" lon="6.54156">
        <ele>2071.3</ele>
        <time>2010-10-10T11:04:15Z</time>
      </trkpt>
      <trkpt lat="45.95649" lon="6.54157">
        <ele>2071.3</ele>
        <time>2010-10-10T11:04:17Z</time>
      </trkpt>
      <trkpt lat="45.95646" lon="6.54162">
        <ele>2073.7</ele>
        <time>2010-10-10T11:04:26Z</time>
      </trkpt>
      <trkpt lat="45.95657" lon="6.54174">
        <ele>2075.62</ele>
        <time>2010-10-10T11:04:42Z</time>
      </trkpt>
      <trkpt lat="45.95657" lon="6.54183">
        <ele>2078.03</ele>
        <time>2010-10-10T11:04:54Z</time>
      </trkpt>
      <trkpt lat="45.95652" lon="6.54182">
        <ele>2078.51</ele>
        <time>2010-10-10T11:05:00Z</time>
      </trkpt>
      <trkpt lat="45.95645" lon="6.54188">
        <ele>2080.91</ele>
        <time>2010-10-10T11:05:15Z</time>
      </trkpt>
      <trkpt lat="45.9565" lon="6.54193">
        <ele>2082.83</ele>
        <time>2010-10-10T11:05:24Z</time>
      </trkpt>
      <trkpt lat="45.95653" lon="6.54198">
        <ele>2082.83</ele>
        <time>2010-10-10T11:05:30Z</time>
      </trkpt>
      <trkpt lat="45.9566" lon="6.54213">
        <ele>2086.68</ele>
        <time>2010-10-10T11:05:46Z</time>
      </trkpt>
      <trkpt lat="45.95654" lon="6.54216">
        <ele>2088.12</ele>
        <time>2010-10-10T11:05:58Z</time>
      </trkpt>
      <trkpt lat="45.95643" lon="6.54217">
        <ele>2091</ele>
        <time>2010-10-10T11:06:12Z</time>
      </trkpt>
      <trkpt lat="45.95643" lon="6.54222">
        <ele>2091.97</ele>
        <time>2010-10-10T11:06:23Z</time>
      </trkpt>
      <trkpt lat="45.95645" lon="6.54227">
        <ele>2094.85</ele>
        <time>2010-10-10T11:06:28Z</time>
      </trkpt>
      <trkpt lat="45.95647" lon="6.54233">
        <ele>2094.85</ele>
        <time>2010-10-10T11:06:34Z</time>
      </trkpt>
      <trkpt lat="45.95649" lon="6.54241">
        <ele>2096.29</ele>
        <time>2010-10-10T11:06:48Z</time>
      </trkpt>
      <trkpt lat="45.95645" lon="6.54239">
        <ele>2098.21</ele>
        <time>2010-10-10T11:06:59Z</time>
      </trkpt>
      <trkpt lat="45.95638" lon="6.54246">
        <ele>2101.1</ele>
        <time>2010-10-10T11:07:13Z</time>
      </trkpt>
      <trkpt lat="45.95635" lon="6.54262">
        <ele>2103.98</ele>
        <time>2010-10-10T11:07:27Z</time>
      </trkpt>
      <trkpt lat="45.95636" lon="6.54278">
        <ele>2107.35</ele>
        <time>2010-10-10T11:07:43Z</time>
      </trkpt>
      <trkpt lat="45.95638" lon="6.5429">
        <ele>2110.71</ele>
        <time>2010-10-10T11:07:58Z</time>
      </trkpt>
      <trkpt lat="45.95642" lon="6.54301">
        <ele>2111.67</ele>
        <time>2010-10-10T11:08:10Z</time>
      </trkpt>
      <trkpt lat="45.95645" lon="6.54314">
        <ele>2114.56</ele>
        <time>2010-10-10T11:08:24Z</time>
      </trkpt>
      <trkpt lat="45.95646" lon="6.54315">
        <ele>2115.04</ele>
        <time>2010-10-10T11:08:25Z</time>
      </trkpt>
      <trkpt lat="45.95647" lon="6.54323">
        <ele>2116.48</ele>
        <time>2010-10-10T11:08:33Z</time>
      </trkpt>
      <trkpt lat="45.95646" lon="6.54334">
        <ele>2120.32</ele>
        <time>2010-10-10T11:08:45Z</time>
      </trkpt>
      <trkpt lat="45.95645" lon="6.54349">
        <ele>2121.29</ele>
        <time>2010-10-10T11:09:00Z</time>
      </trkpt>
      <trkpt lat="45.95642" lon="6.54355">
        <ele>2123.21</ele>
        <time>2010-10-10T11:09:09Z</time>
      </trkpt>
      <trkpt lat="45.95646" lon="6.54365">
        <ele>2125.61</ele>
        <time>2010-10-10T11:09:23Z</time>
      </trkpt>
      <trkpt lat="45.95648" lon="6.54372">
        <ele>2126.57</ele>
        <time>2010-10-10T11:09:30Z</time>
      </trkpt>
      <trkpt lat="45.95649" lon="6.54375">
        <ele>2127.53</ele>
        <time>2010-10-10T11:09:32Z</time>
      </trkpt>
      <trkpt lat="45.95643" lon="6.54385">
        <ele>2129.94</ele>
        <time>2010-10-10T11:09:45Z</time>
      </trkpt>
      <trkpt lat="45.9564" lon="6.54391">
        <ele>2132.34</ele>
        <time>2010-10-10T11:09:58Z</time>
      </trkpt>
      <trkpt lat="45.95638" lon="6.54396">
        <ele>2135.23</ele>
        <time>2010-10-10T11:10:12Z</time>
      </trkpt>
      <trkpt lat="45.95633" lon="6.54405">
        <ele>2137.63</ele>
        <time>2010-10-10T11:10:26Z</time>
      </trkpt>
      <trkpt lat="45.95631" lon="6.5441">
        <ele>2140.03</ele>
        <time>2010-10-10T11:10:40Z</time>
      </trkpt>
      <trkpt lat="45.95624" lon="6.54415">
        <ele>2141.95</ele>
        <time>2010-10-10T11:10:53Z</time>
      </trkpt>
      <trkpt lat="45.95617" lon="6.54416">
        <ele>2145.32</ele>
        <time>2010-10-10T11:11:06Z</time>
      </trkpt>
      <trkpt lat="45.95609" lon="6.5442">
        <ele>2146.76</ele>
        <time>2010-10-10T11:11:19Z</time>
      </trkpt>
      <trkpt lat="45.95598" lon="6.5442">
        <ele>2149.16</ele>
        <time>2010-10-10T11:11:32Z</time>
      </trkpt>
      <trkpt lat="45.95596" lon="6.54421">
        <ele>2150.13</ele>
        <time>2010-10-10T11:11:47Z</time>
      </trkpt>
      <trkpt lat="45.95593" lon="6.54423">
        <ele>2150.13</ele>
        <time>2010-10-10T11:12:05Z</time>
      </trkpt>
      <trkpt lat="45.9559" lon="6.54422">
        <ele>2151.57</ele>
        <time>2010-10-10T11:12:08Z</time>
      </trkpt>
      <trkpt lat="45.95581" lon="6.54418">
        <ele>2152.05</ele>
        <time>2010-10-10T11:12:15Z</time>
      </trkpt>
      <trkpt lat="45.95579" lon="6.54419">
        <ele>2152.53</ele>
        <time>2010-10-10T11:12:17Z</time>
      </trkpt>
      <trkpt lat="45.95573" lon="6.54427">
        <ele>2154.45</ele>
        <time>2010-10-10T11:12:26Z</time>
      </trkpt>
      <trkpt lat="45.95564" lon="6.54438">
        <ele>2157.82</ele>
        <time>2010-10-10T11:12:40Z</time>
      </trkpt>
      <trkpt lat="45.95553" lon="6.54444">
        <ele>2157.82</ele>
        <time>2010-10-10T11:12:54Z</time>
      </trkpt>
      <trkpt lat="45.95552" lon="6.54446">
        <ele>2158.3</ele>
        <time>2010-10-10T11:12:55Z</time>
      </trkpt>
      <trkpt lat="45.95544" lon="6.5445">
        <ele>2159.26</ele>
        <time>2010-10-10T11:13:02Z</time>
      </trkpt>
      <trkpt lat="45.95537" lon="6.54456">
        <ele>2160.22</ele>
        <time>2010-10-10T11:13:11Z</time>
      </trkpt>
      <trkpt lat="45.95529" lon="6.54454">
        <ele>2159.74</ele>
        <time>2010-10-10T11:13:18Z</time>
      </trkpt>
      <trkpt lat="45.95525" lon="6.5445">
        <ele>2160.7</ele>
        <time>2010-10-10T11:13:32Z</time>
      </trkpt>
      <trkpt lat="45.95522" lon="6.54459">
        <ele>2161.18</ele>
        <time>2010-10-10T11:13:45Z</time>
      </trkpt>
      <trkpt lat="45.95522" lon="6.54466">
        <ele>2162.62</ele>
        <time>2010-10-10T11:13:51Z</time>
      </trkpt>
      <trkpt lat="45.95522" lon="6.5448">
        <ele>2164.06</ele>
        <time>2010-10-10T11:14:06Z</time>
      </trkpt>
      <trkpt lat="45.95521" lon="6.54488">
        <ele>2165.03</ele>
        <time>2010-10-10T11:14:21Z</time>
      </trkpt>
      <trkpt lat="45.95521" lon="6.54488">
        <ele>2165.51</ele>
        <time>2010-10-10T11:14:43Z</time>
      </trkpt>
      <trkpt lat="45.95521" lon="6.54488">
        <ele>2165.03</ele>
        <time>2010-10-10T11:15:14Z</time>
      </trkpt>
      <trkpt lat="45.95519" lon="6.54493">
        <ele>2166.95</ele>
        <time>2010-10-10T11:15:32Z</time>
      </trkpt>
      <trkpt lat="45.95519" lon="6.54495">
        <ele>2167.91</ele>
        <time>2010-10-10T11:15:54Z</time>
      </trkpt>
      <trkpt lat="45.95519" lon="6.54494">
        <ele>2167.43</ele>
        <time>2010-10-10T11:16:25Z</time>
      </trkpt>
      <trkpt lat="45.95519" lon="6.54494">
        <ele>2167.91</ele>
        <time>2010-10-10T11:16:50Z</time>
      </trkpt>
      <trkpt lat="45.95519" lon="6.54494">
        <ele>2167.91</ele>
        <time>2010-10-10T11:17:21Z</time>
      </trkpt>
      <trkpt lat="45.95519" lon="6.54495">
        <ele>2167.43</ele>
        <time>2010-10-10T11:17:48Z</time>
      </trkpt>
      <trkpt lat="45.95519" lon="6.54495">
        <ele>2167.91</ele>
        <time>2010-10-10T11:18:20Z</time>
      </trkpt>
      <trkpt lat="45.95519" lon="6.545">
        <ele>2167.91</ele>
        <time>2010-10-10T11:18:38Z</time>
      </trkpt>
      <trkpt lat="45.95521" lon="6.54506">
        <ele>2170.79</ele>
        <time>2010-10-10T11:18:52Z</time>
      </trkpt>
      <trkpt lat="45.95523" lon="6.5451">
        <ele>2171.27</ele>
        <time>2010-10-10T11:19:04Z</time>
      </trkpt>
      <trkpt lat="45.95527" lon="6.54515">
        <ele>2172.72</ele>
        <time>2010-10-10T11:19:17Z</time>
      </trkpt>
      <trkpt lat="45.95532" lon="6.5452">
        <ele>2174.16</ele>
        <time>2010-10-10T11:19:31Z</time>
      </trkpt>
      <trkpt lat="45.95536" lon="6.54526">
        <ele>2175.12</ele>
        <time>2010-10-10T11:19:44Z</time>
      </trkpt>
      <trkpt lat="45.95539" lon="6.54534">
        <ele>2178.48</ele>
        <time>2010-10-10T11:19:57Z</time>
      </trkpt>
      <trkpt lat="45.95541" lon="6.5454">
        <ele>2178.48</ele>
        <time>2010-10-10T11:20:14Z</time>
      </trkpt>
      <trkpt lat="45.95543" lon="6.54549">
        <ele>2180.41</ele>
        <time>2010-10-10T11:20:29Z</time>
      </trkpt>
      <trkpt lat="45.95545" lon="6.54555">
        <ele>2182.33</ele>
        <time>2010-10-10T11:20:42Z</time>
      </trkpt>
      <trkpt lat="45.95547" lon="6.5456">
        <ele>2185.21</ele>
        <time>2010-10-10T11:20:55Z</time>
      </trkpt>
      <trkpt lat="45.95548" lon="6.54565">
        <ele>2184.73</ele>
        <time>2010-10-10T11:21:08Z</time>
      </trkpt>
      <trkpt lat="45.95548" lon="6.54565">
        <ele>2185.69</ele>
        <time>2010-10-10T11:21:10Z</time>
      </trkpt>
      <trkpt lat="45.95546" lon="6.54578">
        <ele>2188.58</ele>
        <time>2010-10-10T11:21:24Z</time>
      </trkpt>
      <trkpt lat="45.95544" lon="6.54586">
        <ele>2190.02</ele>
        <time>2010-10-10T11:21:35Z</time>
      </trkpt>
      <trkpt lat="45.95545" lon="6.54594">
        <ele>2192.42</ele>
        <time>2010-10-10T11:21:47Z</time>
      </trkpt>
      <trkpt lat="45.95547" lon="6.54604">
        <ele>2195.79</ele>
        <time>2010-10-10T11:22:02Z</time>
      </trkpt>
      <trkpt lat="45.95548" lon="6.54608">
        <ele>2197.23</ele>
        <time>2010-10-10T11:22:15Z</time>
      </trkpt>
      <trkpt lat="45.95549" lon="6.54614">
        <ele>2200.59</ele>
        <time>2010-10-10T11:22:28Z</time>
      </trkpt>
      <trkpt lat="45.95552" lon="6.54622">
        <ele>2202.04</ele>
        <time>2010-10-10T11:22:42Z</time>
      </trkpt>
      <trkpt lat="45.95551" lon="6.54626">
        <ele>2203</ele>
        <time>2010-10-10T11:22:56Z</time>
      </trkpt>
      <trkpt lat="45.95553" lon="6.5463">
        <ele>2205.88</ele>
        <time>2010-10-10T11:23:10Z</time>
      </trkpt>
      <trkpt lat="45.95554" lon="6.54636">
        <ele>2207.81</ele>
        <time>2010-10-10T11:23:24Z</time>
      </trkpt>
      <trkpt lat="45.95556" lon="6.54642">
        <ele>2209.73</ele>
        <time>2010-10-10T11:23:39Z</time>
      </trkpt>
      <trkpt lat="45.95558" lon="6.5465">
        <ele>2211.65</ele>
        <time>2010-10-10T11:23:53Z</time>
      </trkpt>
      <trkpt lat="45.95559" lon="6.54658">
        <ele>2214.53</ele>
        <time>2010-10-10T11:24:08Z</time>
      </trkpt>
      <trkpt lat="45.95557" lon="6.54665">
        <ele>2217.9</ele>
        <time>2010-10-10T11:24:25Z</time>
      </trkpt>
      <trkpt lat="45.95558" lon="6.54671">
        <ele>2219.82</ele>
        <time>2010-10-10T11:24:38Z</time>
      </trkpt>
      <trkpt lat="45.95558" lon="6.54678">
        <ele>2221.74</ele>
        <time>2010-10-10T11:24:53Z</time>
      </trkpt>
      <trkpt lat="45.95559" lon="6.54685">
        <ele>2224.15</ele>
        <time>2010-10-10T11:25:06Z</time>
      </trkpt>
      <trkpt lat="45.95563" lon="6.54694">
        <ele>2226.55</ele>
        <time>2010-10-10T11:25:22Z</time>
      </trkpt>
      <trkpt lat="45.95565" lon="6.547">
        <ele>2228.47</ele>
        <time>2010-10-10T11:25:36Z</time>
      </trkpt>
      <trkpt lat="45.95565" lon="6.54707">
        <ele>2230.88</ele>
        <time>2010-10-10T11:25:50Z</time>
      </trkpt>
      <trkpt lat="45.95564" lon="6.54714">
        <ele>2232.8</ele>
        <time>2010-10-10T11:25:57Z</time>
      </trkpt>
      <trkpt lat="45.95558" lon="6.5472">
        <ele>2234.24</ele>
        <time>2010-10-10T11:26:12Z</time>
      </trkpt>
      <trkpt lat="45.95557" lon="6.54726">
        <ele>2237.13</ele>
        <time>2010-10-10T11:26:27Z</time>
      </trkpt>
      <trkpt lat="45.95555" lon="6.54736">
        <ele>2238.57</ele>
        <time>2010-10-10T11:26:40Z</time>
      </trkpt>
      <trkpt lat="45.95554" lon="6.54743">
        <ele>2241.45</ele>
        <time>2010-10-10T11:26:54Z</time>
      </trkpt>
      <trkpt lat="45.95553" lon="6.54748">
        <ele>2243.85</ele>
        <time>2010-10-10T11:27:09Z</time>
      </trkpt>
      <trkpt lat="45.95552" lon="6.54752">
        <ele>2245.3</ele>
        <time>2010-10-10T11:27:15Z</time>
      </trkpt>
      <trkpt lat="45.95549" lon="6.54762">
        <ele>2247.7</ele>
        <time>2010-10-10T11:27:29Z</time>
      </trkpt>
      <trkpt lat="45.95549" lon="6.54762">
        <ele>2247.22</ele>
        <time>2010-10-10T11:27:46Z</time>
      </trkpt>
      <trkpt lat="45.95549" lon="6.54763">
        <ele>2247.22</ele>
        <time>2010-10-10T11:28:14Z</time>
      </trkpt>
      <trkpt lat="45.95548" lon="6.54763">
        <ele>2247.7</ele>
        <time>2010-10-10T11:28:42Z</time>
      </trkpt>
      <trkpt lat="45.95542" lon="6.54775">
        <ele>2248.66</ele>
        <time>2010-10-10T11:28:56Z</time>
      </trkpt>
      <trkpt lat="45.9554" lon="6.54785">
        <ele>2248.66</ele>
        <time>2010-10-10T11:29:08Z</time>
      </trkpt>
      <trkpt lat="45.9554" lon="6.54786">
        <ele>2248.18</ele>
        <time>2010-10-10T11:29:09Z</time>
      </trkpt>
      <trkpt lat="45.95532" lon="6.54796">
        <ele>2248.66</ele>
        <time>2010-10-10T11:29:20Z</time>
      </trkpt>
      <trkpt lat="45.95531" lon="6.54803">
        <ele>2249.62</ele>
        <time>2010-10-10T11:29:27Z</time>
      </trkpt>
      <trkpt lat="45.95528" lon="6.54809">
        <ele>2251.54</ele>
        <time>2010-10-10T11:29:37Z</time>
      </trkpt>
      <trkpt lat="45.95522" lon="6.54817">
        <ele>2252.99</ele>
        <time>2010-10-10T11:29:51Z</time>
      </trkpt>
      <trkpt lat="45.95515" lon="6.54818">
        <ele>2254.91</ele>
        <time>2010-10-10T11:30:05Z</time>
      </trkpt>
      <trkpt lat="45.95507" lon="6.54824">
        <ele>2256.83</ele>
        <time>2010-10-10T11:30:19Z</time>
      </trkpt>
      <trkpt lat="45.95508" lon="6.54831">
        <ele>2256.83</ele>
        <time>2010-10-10T11:30:34Z</time>
      </trkpt>
      <trkpt lat="45.95513" lon="6.54837">
        <ele>2258.75</ele>
        <time>2010-10-10T11:30:47Z</time>
      </trkpt>
      <trkpt lat="45.95516" lon="6.5485">
        <ele>2260.2</ele>
        <time>2010-10-10T11:31:01Z</time>
      </trkpt>
      <trkpt lat="45.95513" lon="6.54861">
        <ele>2259.72</ele>
        <time>2010-10-10T11:31:14Z</time>
      </trkpt>
      <trkpt lat="45.95514" lon="6.54865">
        <ele>2263.08</ele>
        <time>2010-10-10T11:31:26Z</time>
      </trkpt>
      <trkpt lat="45.95519" lon="6.54875">
        <ele>2263.08</ele>
        <time>2010-10-10T11:31:39Z</time>
      </trkpt>
      <trkpt lat="45.95519" lon="6.54886">
        <ele>2266.45</ele>
        <time>2010-10-10T11:31:53Z</time>
      </trkpt>
      <trkpt lat="45.95519" lon="6.54891">
        <ele>2266.45</ele>
        <time>2010-10-10T11:32:07Z</time>
      </trkpt>
      <trkpt lat="45.9552" lon="6.54891">
        <ele>2267.41</ele>
        <time>2010-10-10T11:32:29Z</time>
      </trkpt>
      <trkpt lat="45.95524" lon="6.54894">
        <ele>2267.41</ele>
        <time>2010-10-10T11:32:38Z</time>
      </trkpt>
      <trkpt lat="45.95529" lon="6.54904">
        <ele>2268.85</ele>
        <time>2010-10-10T11:32:52Z</time>
      </trkpt>
      <trkpt lat="45.95537" lon="6.54912">
        <ele>2269.81</ele>
        <time>2010-10-10T11:33:07Z</time>
      </trkpt>
      <trkpt lat="45.95542" lon="6.54916">
        <ele>2272.21</ele>
        <time>2010-10-10T11:33:20Z</time>
      </trkpt>
      <trkpt lat="45.95542" lon="6.54916">
        <ele>2275.1</ele>
        <time>2010-10-10T11:33:33Z</time>
      </trkpt>
      <trkpt lat="45.95542" lon="6.54916">
        <ele>2277.5</ele>
        <time>2010-10-10T11:33:47Z</time>
      </trkpt>
      <trkpt lat="45.95546" lon="6.54916">
        <ele>2278.46</ele>
        <time>2010-10-10T11:34:02Z</time>
      </trkpt>
      <trkpt lat="45.95546" lon="6.54916">
        <ele>2278.94</ele>
        <time>2010-10-10T11:34:06Z</time>
      </trkpt>
      <trkpt lat="45.95549" lon="6.5492">
        <ele>2280.38</ele>
        <time>2010-10-10T11:34:09Z</time>
      </trkpt>
      <trkpt lat="45.95559" lon="6.54929">
        <ele>2282.31</ele>
        <time>2010-10-10T11:34:24Z</time>
      </trkpt>
      <trkpt lat="45.95563" lon="6.54933">
        <ele>2283.75</ele>
        <time>2010-10-10T11:34:34Z</time>
      </trkpt>
      <trkpt lat="45.95572" lon="6.54935">
        <ele>2287.59</ele>
        <time>2010-10-10T11:34:51Z</time>
      </trkpt>
      <trkpt lat="45.95576" lon="6.54935">
        <ele>2288.56</ele>
        <time>2010-10-10T11:34:59Z</time>
      </trkpt>
      <trkpt lat="45.95582" lon="6.54939">
        <ele>2290.48</ele>
        <time>2010-10-10T11:35:15Z</time>
      </trkpt>
      <trkpt lat="45.95586" lon="6.54946">
        <ele>2292.88</ele>
        <time>2010-10-10T11:35:30Z</time>
      </trkpt>
      <trkpt lat="45.95592" lon="6.54946">
        <ele>2294.8</ele>
        <time>2010-10-10T11:35:46Z</time>
      </trkpt>
      <trkpt lat="45.95597" lon="6.5495">
        <ele>2297.69</ele>
        <time>2010-10-10T11:35:59Z</time>
      </trkpt>
      <trkpt lat="45.95591" lon="6.54956">
        <ele>2300.09</ele>
        <time>2010-10-10T11:36:14Z</time>
      </trkpt>
      <trkpt lat="45.95586" lon="6.54959">
        <ele>2301.53</ele>
        <time>2010-10-10T11:36:29Z</time>
      </trkpt>
      <trkpt lat="45.95581" lon="6.54961">
        <ele>2304.42</ele>
        <time>2010-10-10T11:36:44Z</time>
      </trkpt>
      <trkpt lat="45.9558" lon="6.54965">
        <ele>2306.82</ele>
        <time>2010-10-10T11:36:58Z</time>
      </trkpt>
      <trkpt lat="45.95578" lon="6.54969">
        <ele>2309.22</ele>
        <time>2010-10-10T11:37:14Z</time>
      </trkpt>
      <trkpt lat="45.95578" lon="6.5497">
        <ele>2309.22</ele>
        <time>2010-10-10T11:37:17Z</time>
      </trkpt>
      <trkpt lat="45.95575" lon="6.54975">
        <ele>2312.11</ele>
        <time>2010-10-10T11:37:32Z</time>
      </trkpt>
      <trkpt lat="45.95575" lon="6.54975">
        <ele>2314.51</ele>
        <time>2010-10-10T11:37:48Z</time>
      </trkpt>
      <trkpt lat="45.95573" lon="6.54976">
        <ele>2316.91</ele>
        <time>2010-10-10T11:38:03Z</time>
      </trkpt>
      <trkpt lat="45.95571" lon="6.54979">
        <ele>2316.91</ele>
        <time>2010-10-10T11:38:06Z</time>
      </trkpt>
      <trkpt lat="45.95567" lon="6.54984">
        <ele>2319.32</ele>
        <time>2010-10-10T11:38:22Z</time>
      </trkpt>
      <trkpt lat="45.95563" lon="6.54989">
        <ele>2321.24</ele>
        <time>2010-10-10T11:38:32Z</time>
      </trkpt>
      <trkpt lat="45.9556" lon="6.54998">
        <ele>2323.64</ele>
        <time>2010-10-10T11:38:47Z</time>
      </trkpt>
      <trkpt lat="45.9556" lon="6.5501">
        <ele>2325.09</ele>
        <time>2010-10-10T11:39:02Z</time>
      </trkpt>
      <trkpt lat="45.95563" lon="6.55017">
        <ele>2326.53</ele>
        <time>2010-10-10T11:39:15Z</time>
      </trkpt>
      <trkpt lat="45.95564" lon="6.55025">
        <ele>2329.41</ele>
        <time>2010-10-10T11:39:30Z</time>
      </trkpt>
      <trkpt lat="45.95566" lon="6.55035">
        <ele>2331.33</ele>
        <time>2010-10-10T11:39:43Z</time>
      </trkpt>
      <trkpt lat="45.95569" lon="6.55044">
        <ele>2333.26</ele>
        <time>2010-10-10T11:39:56Z</time>
      </trkpt>
      <trkpt lat="45.95574" lon="6.55055">
        <ele>2334.22</ele>
        <time>2010-10-10T11:40:12Z</time>
      </trkpt>
      <trkpt lat="45.95575" lon="6.55058">
        <ele>2336.62</ele>
        <time>2010-10-10T11:40:27Z</time>
      </trkpt>
      <trkpt lat="45.95576" lon="6.5506">
        <ele>2339.02</ele>
        <time>2010-10-10T11:40:45Z</time>
      </trkpt>
      <trkpt lat="45.95578" lon="6.55065">
        <ele>2340.47</ele>
        <time>2010-10-10T11:40:59Z</time>
      </trkpt>
      <trkpt lat="45.95578" lon="6.55065">
        <ele>2340.47</ele>
        <time>2010-10-10T11:41:28Z</time>
      </trkpt>
      <trkpt lat="45.95577" lon="6.55067">
        <ele>2340.95</ele>
        <time>2010-10-10T11:41:50Z</time>
      </trkpt>
      <trkpt lat="45.95579" lon="6.55075">
        <ele>2343.35</ele>
        <time>2010-10-10T11:42:04Z</time>
      </trkpt>
      <trkpt lat="45.95579" lon="6.55076">
        <ele>2345.27</ele>
        <time>2010-10-10T11:42:19Z</time>
      </trkpt>
      <trkpt lat="45.9558" lon="6.5508">
        <ele>2347.2</ele>
        <time>2010-10-10T11:42:31Z</time>
      </trkpt>
      <trkpt lat="45.95583" lon="6.5509">
        <ele>2349.12</ele>
        <time>2010-10-10T11:42:43Z</time>
      </trkpt>
      <trkpt lat="45.95583" lon="6.55092">
        <ele>2350.56</ele>
        <time>2010-10-10T11:43:00Z</time>
      </trkpt>
      <trkpt lat="45.95584" lon="6.55093">
        <ele>2351.04</ele>
        <time>2010-10-10T11:43:04Z</time>
      </trkpt>
      <trkpt lat="45.95585" lon="6.55103">
        <ele>2353.44</ele>
        <time>2010-10-10T11:43:20Z</time>
      </trkpt>
      <trkpt lat="45.95584" lon="6.55104">
        <ele>2354.89</ele>
        <time>2010-10-10T11:43:33Z</time>
      </trkpt>
      <trkpt lat="45.95584" lon="6.55104">
        <ele>2354.41</ele>
        <time>2010-10-10T11:43:53Z</time>
      </trkpt>
      <trkpt lat="45.95587" lon="6.55105">
        <ele>2354.41</ele>
        <time>2010-10-10T11:44:15Z</time>
      </trkpt>
      <trkpt lat="45.95587" lon="6.55105">
        <ele>2354.41</ele>
        <time>2010-10-10T11:44:31Z</time>
      </trkpt>
      <trkpt lat="45.95587" lon="6.55106">
        <ele>2354.89</ele>
        <time>2010-10-10T11:44:56Z</time>
      </trkpt>
      <trkpt lat="45.95587" lon="6.55106">
        <ele>2356.33</ele>
        <time>2010-10-10T11:45:00Z</time>
      </trkpt>
      <trkpt lat="45.95587" lon="6.55106">
        <ele>2357.77</ele>
        <time>2010-10-10T11:45:03Z</time>
      </trkpt>
      <trkpt lat="45.95587" lon="6.55106">
        <ele>2359.69</ele>
        <time>2010-10-10T11:45:20Z</time>
      </trkpt>
      <trkpt lat="45.95586" lon="6.55109">
        <ele>2359.21</ele>
        <time>2010-10-10T11:45:23Z</time>
      </trkpt>
      <trkpt lat="45.95586" lon="6.55111">
        <ele>2361.14</ele>
        <time>2010-10-10T11:45:44Z</time>
      </trkpt>
      <trkpt lat="45.95585" lon="6.55113">
        <ele>2363.06</ele>
        <time>2010-10-10T11:46:05Z</time>
      </trkpt>
      <trkpt lat="45.95584" lon="6.55116">
        <ele>2364.02</ele>
        <time>2010-10-10T11:46:23Z</time>
      </trkpt>
      <trkpt lat="45.95584" lon="6.55117">
        <ele>2364.98</ele>
        <time>2010-10-10T11:46:28Z</time>
      </trkpt>
      <trkpt lat="45.95582" lon="6.55123">
        <ele>2365.46</ele>
        <time>2010-10-10T11:46:30Z</time>
      </trkpt>
      <trkpt lat="45.95581" lon="6.55127">
        <ele>2366.42</ele>
        <time>2010-10-10T11:46:32Z</time>
      </trkpt>
      <trkpt lat="45.95581" lon="6.55134">
        <ele>2368.83</ele>
        <time>2010-10-10T11:46:49Z</time>
      </trkpt>
      <trkpt lat="45.9558" lon="6.55138">
        <ele>2369.31</ele>
        <time>2010-10-10T11:46:51Z</time>
      </trkpt>
      <trkpt lat="45.9558" lon="6.55143">
        <ele>2370.27</ele>
        <time>2010-10-10T11:46:54Z</time>
      </trkpt>
      <trkpt lat="45.9558" lon="6.55146">
        <ele>2371.23</ele>
        <time>2010-10-10T11:47:00Z</time>
      </trkpt>
      <trkpt lat="45.9558" lon="6.55146">
        <ele>2373.15</ele>
        <time>2010-10-10T11:47:14Z</time>
      </trkpt>
      <trkpt lat="45.9558" lon="6.55147">
        <ele>2376.04</ele>
        <time>2010-10-10T11:47:26Z</time>
      </trkpt>
      <trkpt lat="45.9558" lon="6.55147">
        <ele>2377.48</ele>
        <time>2010-10-10T11:47:41Z</time>
      </trkpt>
      <trkpt lat="45.9558" lon="6.55147">
        <ele>2378.92</ele>
        <time>2010-10-10T11:47:54Z</time>
      </trkpt>
      <trkpt lat="45.9558" lon="6.55147">
        <ele>2380.36</ele>
        <time>2010-10-10T11:48:08Z</time>
      </trkpt>
      <trkpt lat="45.9558" lon="6.55147">
        <ele>2381.8</ele>
        <time>2010-10-10T11:48:16Z</time>
      </trkpt>
      <trkpt lat="45.95579" lon="6.55149">
        <ele>2380.84</ele>
        <time>2010-10-10T11:48:21Z</time>
      </trkpt>
      <trkpt lat="45.95579" lon="6.55149">
        <ele>2383.73</ele>
        <time>2010-10-10T11:48:25Z</time>
      </trkpt>
      <trkpt lat="45.95579" lon="6.55149">
        <ele>2384.69</ele>
        <time>2010-10-10T11:48:41Z</time>
      </trkpt>
      <trkpt lat="45.95579" lon="6.55149">
        <ele>2386.13</ele>
        <time>2010-10-10T11:48:55Z</time>
      </trkpt>
      <trkpt lat="45.95579" lon="6.55163">
        <ele>2388.53</ele>
        <time>2010-10-10T11:49:10Z</time>
      </trkpt>
      <trkpt lat="45.9558" lon="6.55172">
        <ele>2388.53</ele>
        <time>2010-10-10T11:49:17Z</time>
      </trkpt>
      <trkpt lat="45.9558" lon="6.55173">
        <ele>2402.47</ele>
        <time>2010-10-10T11:49:32Z</time>
      </trkpt>
      <trkpt lat="45.9558" lon="6.55173">
        <ele>2390.94</ele>
        <time>2010-10-10T11:49:33Z</time>
      </trkpt>
      <trkpt lat="45.9558" lon="6.55173">
        <ele>2389.49</ele>
        <time>2010-10-10T11:49:51Z</time>
      </trkpt>
      <trkpt lat="45.9558" lon="6.55173">
        <ele>2390.94</ele>
        <time>2010-10-10T11:49:53Z</time>
      </trkpt>
      <trkpt lat="45.95575" lon="6.55192">
        <ele>2391.9</ele>
        <time>2010-10-10T11:50:08Z</time>
      </trkpt>
      <trkpt lat="45.95572" lon="6.55195">
        <ele>2392.38</ele>
        <time>2010-10-10T11:50:25Z</time>
      </trkpt>
      <trkpt lat="45.95566" lon="6.55204">
        <ele>2393.82</ele>
        <time>2010-10-10T11:50:31Z</time>
      </trkpt>
      <trkpt lat="45.95565" lon="6.55206">
        <ele>2396.22</ele>
        <time>2010-10-10T11:50:34Z</time>
      </trkpt>
      <trkpt lat="45.95565" lon="6.55215">
        <ele>2398.15</ele>
        <time>2010-10-10T11:50:47Z</time>
      </trkpt>
      <trkpt lat="45.95565" lon="6.55215">
        <ele>2399.11</ele>
        <time>2010-10-10T11:51:07Z</time>
      </trkpt>
      <trkpt lat="45.95566" lon="6.55219">
        <ele>2400.07</ele>
        <time>2010-10-10T11:51:29Z</time>
      </trkpt>
      <trkpt lat="45.95566" lon="6.55219">
        <ele>2399.59</ele>
        <time>2010-10-10T11:51:45Z</time>
      </trkpt>
      <trkpt lat="45.95567" lon="6.5522">
        <ele>2400.55</ele>
        <time>2010-10-10T11:52:10Z</time>
      </trkpt>
      <trkpt lat="45.95576" lon="6.55221">
        <ele>2402.47</ele>
        <time>2010-10-10T11:52:19Z</time>
      </trkpt>
      <trkpt lat="45.95577" lon="6.55221">
        <ele>2403.91</ele>
        <time>2010-10-10T11:52:36Z</time>
      </trkpt>
      <trkpt lat="45.95578" lon="6.55218">
        <ele>2403.43</ele>
        <time>2010-10-10T11:52:45Z</time>
      </trkpt>
      <trkpt lat="45.95578" lon="6.55218">
        <ele>2404.39</ele>
        <time>2010-10-10T11:53:04Z</time>
      </trkpt>
      <trkpt lat="45.95578" lon="6.55217">
        <ele>2407.28</ele>
        <time>2010-10-10T11:53:20Z</time>
      </trkpt>
      <trkpt lat="45.95579" lon="6.55218">
        <ele>2404.39</ele>
        <time>2010-10-10T11:53:25Z</time>
      </trkpt>
      <trkpt lat="45.95579" lon="6.55218">
        <ele>2407.28</ele>
        <time>2010-10-10T11:53:28Z</time>
      </trkpt>
      <trkpt lat="45.95579" lon="6.55218">
        <ele>2407.28</ele>
        <time>2010-10-10T11:53:47Z</time>
      </trkpt>
      <trkpt lat="45.95579" lon="6.55218">
        <ele>2406.32</ele>
        <time>2010-10-10T11:54:07Z</time>
      </trkpt>
      <trkpt lat="45.95579" lon="6.55218">
        <ele>2406.32</ele>
        <time>2010-10-10T11:54:34Z</time>
      </trkpt>
      <trkpt lat="45.95579" lon="6.55218">
        <ele>2406.32</ele>
        <time>2010-10-10T11:55:07Z</time>
      </trkpt>
      <trkpt lat="45.95579" lon="6.55217">
        <ele>2405.84</ele>
        <time>2010-10-10T11:55:34Z</time>
      </trkpt>
      <trkpt lat="45.95579" lon="6.55217">
        <ele>2405.84</ele>
        <time>2010-10-10T11:56:10Z</time>
      </trkpt>
      <trkpt lat="45.95579" lon="6.55217">
        <ele>2405.84</ele>
        <time>2010-10-10T11:56:43Z</time>
      </trkpt>
      <trkpt lat="45.9558" lon="6.55218">
        <ele>2405.84</ele>
        <time>2010-10-10T11:57:04Z</time>
      </trkpt>
      <trkpt lat="45.95581" lon="6.55218">
        <ele>2406.32</ele>
        <time>2010-10-10T11:57:16Z</time>
      </trkpt>
      <trkpt lat="45.95581" lon="6.55213">
        <ele>2406.8</ele>
        <time>2010-10-10T11:57:33Z</time>
      </trkpt>
      <trkpt lat="45.95585" lon="6.55215">
        <ele>2409.2</ele>
        <time>2010-10-10T11:57:43Z</time>
      </trkpt>
      <trkpt lat="45.95589" lon="6.55226">
        <ele>2413.05</ele>
        <time>2010-10-10T11:57:57Z</time>
      </trkpt>
      <trkpt lat="45.95589" lon="6.55226">
        <ele>2413.05</ele>
        <time>2010-10-10T11:57:58Z</time>
      </trkpt>
      <trkpt lat="45.95589" lon="6.55232">
        <ele>2414.49</ele>
        <time>2010-10-10T11:58:13Z</time>
      </trkpt>
      <trkpt lat="45.9559" lon="6.5523">
        <ele>2417.85</ele>
        <time>2010-10-10T11:58:23Z</time>
      </trkpt>
      <trkpt lat="45.95592" lon="6.55231">
        <ele>2417.37</ele>
        <time>2010-10-10T11:58:32Z</time>
      </trkpt>
      <trkpt lat="45.95593" lon="6.55235">
        <ele>2419.78</ele>
        <time>2010-10-10T11:58:47Z</time>
      </trkpt>
      <trkpt lat="45.95593" lon="6.55236">
        <ele>2424.58</ele>
        <time>2010-10-10T11:58:56Z</time>
      </trkpt>
      <trkpt lat="45.95593" lon="6.55236">
        <ele>2420.74</ele>
        <time>2010-10-10T11:58:57Z</time>
      </trkpt>
      <trkpt lat="45.95593" lon="6.55237">
        <ele>2422.66</ele>
        <time>2010-10-10T11:59:04Z</time>
      </trkpt>
      <trkpt lat="45.95593" lon="6.55243">
        <ele>2425.54</ele>
        <time>2010-10-10T11:59:17Z</time>
      </trkpt>
      <trkpt lat="45.95592" lon="6.55252">
        <ele>2427.47</ele>
        <time>2010-10-10T11:59:34Z</time>
      </trkpt>
      <trkpt lat="45.95591" lon="6.55252">
        <ele>2427.95</ele>
        <time>2010-10-10T11:59:35Z</time>
      </trkpt>
      <trkpt lat="45.95589" lon="6.55255">
        <ele>2429.87</ele>
        <time>2010-10-10T11:59:43Z</time>
      </trkpt>
      <trkpt lat="45.95589" lon="6.55259">
        <ele>2432.75</ele>
        <time>2010-10-10T11:59:58Z</time>
      </trkpt>
      <trkpt lat="45.95593" lon="6.55256">
        <ele>2436.6</ele>
        <time>2010-10-10T12:00:07Z</time>
      </trkpt>
      <trkpt lat="45.95594" lon="6.55255">
        <ele>2433.23</ele>
        <time>2010-10-10T12:00:09Z</time>
      </trkpt>
      <trkpt lat="45.95595" lon="6.55254">
        <ele>2433.71</ele>
        <time>2010-10-10T12:00:11Z</time>
      </trkpt>
      <trkpt lat="45.95604" lon="6.55246">
        <ele>2431.79</ele>
        <time>2010-10-10T12:00:22Z</time>
      </trkpt>
      <trkpt lat="45.9561" lon="6.55238">
        <ele>2432.75</ele>
        <time>2010-10-10T12:00:34Z</time>
      </trkpt>
      <trkpt lat="45.95617" lon="6.5523">
        <ele>2436.12</ele>
        <time>2010-10-10T12:00:48Z</time>
      </trkpt>
      <trkpt lat="45.95621" lon="6.5523">
        <ele>2436.12</ele>
        <time>2010-10-10T12:01:02Z</time>
      </trkpt>
      <trkpt lat="45.95622" lon="6.55231">
        <ele>2439.48</ele>
        <time>2010-10-10T12:01:16Z</time>
      </trkpt>
      <trkpt lat="45.95623" lon="6.55228">
        <ele>2440.92</ele>
        <time>2010-10-10T12:01:22Z</time>
      </trkpt>
      <trkpt lat="45.95627" lon="6.55228">
        <ele>2443.81</ele>
        <time>2010-10-10T12:01:38Z</time>
      </trkpt>
      <trkpt lat="45.95627" lon="6.55228">
        <ele>2440.44</ele>
        <time>2010-10-10T12:01:41Z</time>
      </trkpt>
      <trkpt lat="45.95627" lon="6.55228">
        <ele>2443.33</ele>
        <time>2010-10-10T12:01:42Z</time>
      </trkpt>
      <trkpt lat="45.9563" lon="6.55228">
        <ele>2446.69</ele>
        <time>2010-10-10T12:01:55Z</time>
      </trkpt>
      <trkpt lat="45.95631" lon="6.55231">
        <ele>2448.13</ele>
        <time>2010-10-10T12:02:16Z</time>
      </trkpt>
      <trkpt lat="45.95632" lon="6.55231">
        <ele>2448.62</ele>
        <time>2010-10-10T12:02:20Z</time>
      </trkpt>
      <trkpt lat="45.95632" lon="6.55231">
        <ele>2448.13</ele>
        <time>2010-10-10T12:02:21Z</time>
      </trkpt>
      <trkpt lat="45.95634" lon="6.55234">
        <ele>2450.06</ele>
        <time>2010-10-10T12:02:24Z</time>
      </trkpt>
      <trkpt lat="45.95634" lon="6.5524">
        <ele>2451.98</ele>
        <time>2010-10-10T12:02:39Z</time>
      </trkpt>
      <trkpt lat="45.95634" lon="6.55243">
        <ele>2455.34</ele>
        <time>2010-10-10T12:02:52Z</time>
      </trkpt>
      <trkpt lat="45.95637" lon="6.55249">
        <ele>2457.27</ele>
        <time>2010-10-10T12:03:06Z</time>
      </trkpt>
      <trkpt lat="45.95637" lon="6.55257">
        <ele>2458.23</ele>
        <time>2010-10-10T12:03:20Z</time>
      </trkpt>
      <trkpt lat="45.95635" lon="6.55264">
        <ele>2461.11</ele>
        <time>2010-10-10T12:03:32Z</time>
      </trkpt>
      <trkpt lat="45.95632" lon="6.55266">
        <ele>2463.04</ele>
        <time>2010-10-10T12:03:48Z</time>
      </trkpt>
      <trkpt lat="45.95631" lon="6.5527">
        <ele>2464.96</ele>
        <time>2010-10-10T12:04:04Z</time>
      </trkpt>
      <trkpt lat="45.95632" lon="6.55275">
        <ele>2469.28</ele>
        <time>2010-10-10T12:04:20Z</time>
      </trkpt>
      <trkpt lat="45.95639" lon="6.55279">
        <ele>2470.24</ele>
        <time>2010-10-10T12:04:34Z</time>
      </trkpt>
      <trkpt lat="45.95641" lon="6.55274">
        <ele>2470.24</ele>
        <time>2010-10-10T12:04:48Z</time>
      </trkpt>
      <trkpt lat="45.95643" lon="6.55269">
        <ele>2471.69</ele>
        <time>2010-10-10T12:04:55Z</time>
      </trkpt>
      <trkpt lat="45.95647" lon="6.55267">
        <ele>2472.17</ele>
        <time>2010-10-10T12:05:00Z</time>
      </trkpt>
      <trkpt lat="45.95658" lon="6.55267">
        <ele>2473.61</ele>
        <time>2010-10-10T12:05:14Z</time>
      </trkpt>
      <trkpt lat="45.95662" lon="6.5527">
        <ele>2475.05</ele>
        <time>2010-10-10T12:05:29Z</time>
      </trkpt>
      <trkpt lat="45.95664" lon="6.5527">
        <ele>2476.97</ele>
        <time>2010-10-10T12:05:44Z</time>
      </trkpt>
      <trkpt lat="45.95665" lon="6.55271">
        <ele>2476.97</ele>
        <time>2010-10-10T12:05:59Z</time>
      </trkpt>
      <trkpt lat="45.95666" lon="6.55272">
        <ele>2477.94</ele>
        <time>2010-10-10T12:06:28Z</time>
      </trkpt>
      <trkpt lat="45.95666" lon="6.55273">
        <ele>2479.38</ele>
        <time>2010-10-10T12:06:42Z</time>
      </trkpt>
      <trkpt lat="45.95668" lon="6.55276">
        <ele>2483.22</ele>
        <time>2010-10-10T12:06:59Z</time>
      </trkpt>
      <trkpt lat="45.95671" lon="6.55281">
        <ele>2484.18</ele>
        <time>2010-10-10T12:07:14Z</time>
      </trkpt>
      <trkpt lat="45.95676" lon="6.55284">
        <ele>2485.63</ele>
        <time>2010-10-10T12:07:32Z</time>
      </trkpt>
      <trkpt lat="45.95678" lon="6.55287">
        <ele>2487.55</ele>
        <time>2010-10-10T12:07:47Z</time>
      </trkpt>
      <trkpt lat="45.95678" lon="6.55287">
        <ele>2493.8</ele>
        <time>2010-10-10T12:07:56Z</time>
      </trkpt>
      <trkpt lat="45.95678" lon="6.55287">
        <ele>2487.55</ele>
        <time>2010-10-10T12:07:57Z</time>
      </trkpt>
      <trkpt lat="45.95678" lon="6.55287">
        <ele>2490.91</ele>
        <time>2010-10-10T12:07:59Z</time>
      </trkpt>
      <trkpt lat="45.95678" lon="6.55287">
        <ele>2487.07</ele>
        <time>2010-10-10T12:08:00Z</time>
      </trkpt>
      <trkpt lat="45.95678" lon="6.55287">
        <ele>2491.39</ele>
        <time>2010-10-10T12:08:09Z</time>
      </trkpt>
      <trkpt lat="45.95678" lon="6.55287">
        <ele>2486.11</ele>
        <time>2010-10-10T12:08:10Z</time>
      </trkpt>
      <trkpt lat="45.95677" lon="6.5529">
        <ele>2489.47</ele>
        <time>2010-10-10T12:08:37Z</time>
      </trkpt>
      <trkpt lat="45.95674" lon="6.55298">
        <ele>2492.36</ele>
        <time>2010-10-10T12:08:48Z</time>
      </trkpt>
      <trkpt lat="45.95673" lon="6.55301">
        <ele>2494.28</ele>
        <time>2010-10-10T12:09:00Z</time>
      </trkpt>
      <trkpt lat="45.95673" lon="6.55308">
        <ele>2496.2</ele>
        <time>2010-10-10T12:09:13Z</time>
      </trkpt>
      <trkpt lat="45.9567" lon="6.55317">
        <ele>2499.57</ele>
        <time>2010-10-10T12:09:28Z</time>
      </trkpt>
      <trkpt lat="45.95669" lon="6.5532">
        <ele>2501.49</ele>
        <time>2010-10-10T12:09:42Z</time>
      </trkpt>
      <trkpt lat="45.95667" lon="6.55323">
        <ele>2501.97</ele>
        <time>2010-10-10T12:09:56Z</time>
      </trkpt>
      <trkpt lat="45.95667" lon="6.55325">
        <ele>2504.37</ele>
        <time>2010-10-10T12:10:09Z</time>
      </trkpt>
      <trkpt lat="45.95665" lon="6.55333">
        <ele>2505.33</ele>
        <time>2010-10-10T12:10:25Z</time>
      </trkpt>
      <trkpt lat="45.95664" lon="6.55335">
        <ele>2508.7</ele>
        <time>2010-10-10T12:10:42Z</time>
      </trkpt>
      <trkpt lat="45.95665" lon="6.55342">
        <ele>2511.58</ele>
        <time>2010-10-10T12:10:57Z</time>
      </trkpt>
      <trkpt lat="45.95665" lon="6.55343">
        <ele>2512.06</ele>
        <time>2010-10-10T12:10:58Z</time>
      </trkpt>
      <trkpt lat="45.95666" lon="6.55343">
        <ele>2512.54</ele>
        <time>2010-10-10T12:11:13Z</time>
      </trkpt>
      <trkpt lat="45.95666" lon="6.55345">
        <ele>2513.02</ele>
        <time>2010-10-10T12:11:32Z</time>
      </trkpt>
      <trkpt lat="45.95666" lon="6.55345">
        <ele>2513.02</ele>
        <time>2010-10-10T12:12:03Z</time>
      </trkpt>
      <trkpt lat="45.95666" lon="6.55344">
        <ele>2515.43</ele>
        <time>2010-10-10T12:12:25Z</time>
      </trkpt>
      <trkpt lat="45.95666" lon="6.55344">
        <ele>2515.43</ele>
        <time>2010-10-10T12:12:35Z</time>
      </trkpt>
      <trkpt lat="45.9566" lon="6.55349">
        <ele>2515.43</ele>
        <time>2010-10-10T12:12:51Z</time>
      </trkpt>
      <trkpt lat="45.9566" lon="6.55349">
        <ele>2515.43</ele>
        <time>2010-10-10T12:12:53Z</time>
      </trkpt>
      <trkpt lat="45.95658" lon="6.55357">
        <ele>2518.31</ele>
        <time>2010-10-10T12:13:07Z</time>
      </trkpt>
      <trkpt lat="45.95654" lon="6.55364">
        <ele>2521.19</ele>
        <time>2010-10-10T12:13:25Z</time>
      </trkpt>
      <trkpt lat="45.95649" lon="6.5537">
        <ele>2523.6</ele>
        <time>2010-10-10T12:13:42Z</time>
      </trkpt>
      <trkpt lat="45.95648" lon="6.55371">
        <ele>2524.56</ele>
        <time>2010-10-10T12:13:44Z</time>
      </trkpt>
      <trkpt lat="45.95643" lon="6.55374">
        <ele>2526.96</ele>
        <time>2010-10-10T12:13:59Z</time>
      </trkpt>
      <trkpt lat="45.95642" lon="6.55378">
        <ele>2527.92</ele>
        <time>2010-10-10T12:14:05Z</time>
      </trkpt>
      <trkpt lat="45.95642" lon="6.55384">
        <ele>2529.37</ele>
        <time>2010-10-10T12:14:19Z</time>
      </trkpt>
      <trkpt lat="45.95642" lon="6.55384">
        <ele>2529.85</ele>
        <time>2010-10-10T12:14:22Z</time>
      </trkpt>
      <trkpt lat="45.9564" lon="6.55388">
        <ele>2532.73</ele>
        <time>2010-10-10T12:14:37Z</time>
      </trkpt>
      <trkpt lat="45.95635" lon="6.55392">
        <ele>2535.13</ele>
        <time>2010-10-10T12:14:56Z</time>
      </trkpt>
      <trkpt lat="45.95635" lon="6.55393">
        <ele>2534.17</ele>
        <time>2010-10-10T12:14:59Z</time>
      </trkpt>
      <trkpt lat="45.95627" lon="6.55396">
        <ele>2535.61</ele>
        <time>2010-10-10T12:15:11Z</time>
      </trkpt>
      <trkpt lat="45.95623" lon="6.55396">
        <ele>2535.13</ele>
        <time>2010-10-10T12:15:31Z</time>
      </trkpt>
      <trkpt lat="45.9562" lon="6.55397">
        <ele>2535.61</ele>
        <time>2010-10-10T12:15:49Z</time>
      </trkpt>
      <trkpt lat="45.9562" lon="6.55397">
        <ele>2529.85</ele>
        <time>2010-10-10T12:15:59Z</time>
      </trkpt>
      <trkpt lat="45.9562" lon="6.55397">
        <ele>2538.02</ele>
        <time>2010-10-10T12:16:00Z</time>
      </trkpt>
      <trkpt lat="45.9562" lon="6.55397">
        <ele>2541.86</ele>
        <time>2010-10-10T12:16:01Z</time>
      </trkpt>
      <trkpt lat="45.9562" lon="6.55397">
        <ele>2536.1</ele>
        <time>2010-10-10T12:16:02Z</time>
      </trkpt>
      <trkpt lat="45.95615" lon="6.55398">
        <ele>2534.65</ele>
        <time>2010-10-10T12:16:10Z</time>
      </trkpt>
      <trkpt lat="45.95608" lon="6.55398">
        <ele>2534.17</ele>
        <time>2010-10-10T12:16:33Z</time>
      </trkpt>
      <trkpt lat="45.95603" lon="6.55399">
        <ele>2537.06</ele>
        <time>2010-10-10T12:16:50Z</time>
      </trkpt>
      <trkpt lat="45.95602" lon="6.55401">
        <ele>2537.06</ele>
        <time>2010-10-10T12:16:53Z</time>
      </trkpt>
      <trkpt lat="45.95597" lon="6.55407">
        <ele>2538.98</ele>
        <time>2010-10-10T12:17:06Z</time>
      </trkpt>
      <trkpt lat="45.95594" lon="6.55412">
        <ele>2541.38</ele>
        <time>2010-10-10T12:17:22Z</time>
      </trkpt>
      <trkpt lat="45.95594" lon="6.55413">
        <ele>2542.82</ele>
        <time>2010-10-10T12:17:37Z</time>
      </trkpt>
      <trkpt lat="45.95594" lon="6.55414">
        <ele>2544.75</ele>
        <time>2010-10-10T12:17:54Z</time>
      </trkpt>
      <trkpt lat="45.9559" lon="6.55422">
        <ele>2547.63</ele>
        <time>2010-10-10T12:18:11Z</time>
      </trkpt>
      <trkpt lat="45.95592" lon="6.55425">
        <ele>2548.59</ele>
        <time>2010-10-10T12:18:26Z</time>
      </trkpt>
      <trkpt lat="45.95591" lon="6.55428">
        <ele>2551.48</ele>
        <time>2010-10-10T12:18:41Z</time>
      </trkpt>
      <trkpt lat="45.95586" lon="6.55431">
        <ele>2552.92</ele>
        <time>2010-10-10T12:18:57Z</time>
      </trkpt>
      <trkpt lat="45.95585" lon="6.55432">
        <ele>2553.88</ele>
        <time>2010-10-10T12:19:11Z</time>
      </trkpt>
      <trkpt lat="45.95583" lon="6.55435">
        <ele>2557.24</ele>
        <time>2010-10-10T12:19:28Z</time>
      </trkpt>
      <trkpt lat="45.95582" lon="6.55438">
        <ele>2557.73</ele>
        <time>2010-10-10T12:19:43Z</time>
      </trkpt>
      <trkpt lat="45.9558" lon="6.55442">
        <ele>2558.21</ele>
        <time>2010-10-10T12:19:58Z</time>
      </trkpt>
      <trkpt lat="45.95579" lon="6.55442">
        <ele>2559.65</ele>
        <time>2010-10-10T12:20:10Z</time>
      </trkpt>
      <trkpt lat="45.95577" lon="6.55442">
        <ele>2562.53</ele>
        <time>2010-10-10T12:20:18Z</time>
      </trkpt>
      <trkpt lat="45.95574" lon="6.55445">
        <ele>2562.05</ele>
        <time>2010-10-10T12:20:23Z</time>
      </trkpt>
      <trkpt lat="45.9557" lon="6.55446">
        <ele>2563.97</ele>
        <time>2010-10-10T12:20:33Z</time>
      </trkpt>
      <trkpt lat="45.95569" lon="6.55449">
        <ele>2566.86</ele>
        <time>2010-10-10T12:20:47Z</time>
      </trkpt>
      <trkpt lat="45.95566" lon="6.5545">
        <ele>2568.78</ele>
        <time>2010-10-10T12:21:02Z</time>
      </trkpt>
      <trkpt lat="45.95565" lon="6.5545">
        <ele>2568.3</ele>
        <time>2010-10-10T12:21:11Z</time>
      </trkpt>
      <trkpt lat="45.95567" lon="6.55451">
        <ele>2571.66</ele>
        <time>2010-10-10T12:21:19Z</time>
      </trkpt>
      <trkpt lat="45.95563" lon="6.55457">
        <ele>2573.59</ele>
        <time>2010-10-10T12:21:38Z</time>
      </trkpt>
      <trkpt lat="45.95558" lon="6.55455">
        <ele>2573.59</ele>
        <time>2010-10-10T12:21:53Z</time>
      </trkpt>
      <trkpt lat="45.95556" lon="6.55456">
        <ele>2576.47</ele>
        <time>2010-10-10T12:22:09Z</time>
      </trkpt>
      <trkpt lat="45.95554" lon="6.55457">
        <ele>2578.87</ele>
        <time>2010-10-10T12:22:25Z</time>
      </trkpt>
      <trkpt lat="45.95553" lon="6.55457">
        <ele>2584.16</ele>
        <time>2010-10-10T12:22:44Z</time>
      </trkpt>
      <trkpt lat="45.95553" lon="6.55457">
        <ele>2580.8</ele>
        <time>2010-10-10T12:22:45Z</time>
      </trkpt>
      <trkpt lat="45.95556" lon="6.55462">
        <ele>2579.84</ele>
        <time>2010-10-10T12:22:58Z</time>
      </trkpt>
      <trkpt lat="45.95557" lon="6.55466">
        <ele>2583.2</ele>
        <time>2010-10-10T12:23:11Z</time>
      </trkpt>
      <trkpt lat="45.95556" lon="6.55468">
        <ele>2584.16</ele>
        <time>2010-10-10T12:23:31Z</time>
      </trkpt>
      <trkpt lat="45.95557" lon="6.55473">
        <ele>2584.64</ele>
        <time>2010-10-10T12:23:46Z</time>
      </trkpt>
      <trkpt lat="45.95556" lon="6.55474">
        <ele>2587.53</ele>
        <time>2010-10-10T12:23:50Z</time>
      </trkpt>
      <trkpt lat="45.95554" lon="6.55476">
        <ele>2589.45</ele>
        <time>2010-10-10T12:23:59Z</time>
      </trkpt>
      <trkpt lat="45.95547" lon="6.55478">
        <ele>2591.37</ele>
        <time>2010-10-10T12:24:18Z</time>
      </trkpt>
      <trkpt lat="45.95547" lon="6.55475">
        <ele>2590.89</ele>
        <time>2010-10-10T12:24:22Z</time>
      </trkpt>
      <trkpt lat="45.95546" lon="6.55472">
        <ele>2590.89</ele>
        <time>2010-10-10T12:24:29Z</time>
      </trkpt>
      <trkpt lat="45.95542" lon="6.55466">
        <ele>2593.29</ele>
        <time>2010-10-10T12:24:53Z</time>
      </trkpt>
      <trkpt lat="45.95541" lon="6.55468">
        <ele>2595.22</ele>
        <time>2010-10-10T12:25:10Z</time>
      </trkpt>
      <trkpt lat="45.95539" lon="6.55472">
        <ele>2596.18</ele>
        <time>2010-10-10T12:25:28Z</time>
      </trkpt>
      <trkpt lat="45.95537" lon="6.55472">
        <ele>2598.1</ele>
        <time>2010-10-10T12:25:36Z</time>
      </trkpt>
      <trkpt lat="45.95537" lon="6.55468">
        <ele>2600.02</ele>
        <time>2010-10-10T12:25:56Z</time>
      </trkpt>
      <trkpt lat="45.95537" lon="6.55467">
        <ele>2601.46</ele>
        <time>2010-10-10T12:26:16Z</time>
      </trkpt>
      <trkpt lat="45.95536" lon="6.55467">
        <ele>2602.91</ele>
        <time>2010-10-10T12:26:36Z</time>
      </trkpt>
      <trkpt lat="45.95536" lon="6.55467">
        <ele>2602.91</ele>
        <time>2010-10-10T12:27:06Z</time>
      </trkpt>
      <trkpt lat="45.95534" lon="6.55467">
        <ele>2603.87</ele>
        <time>2010-10-10T12:27:23Z</time>
      </trkpt>
      <trkpt lat="45.95532" lon="6.55471">
        <ele>2606.27</ele>
        <time>2010-10-10T12:27:44Z</time>
      </trkpt>
      <trkpt lat="45.95532" lon="6.55471">
        <ele>2607.71</ele>
        <time>2010-10-10T12:28:05Z</time>
      </trkpt>
      <trkpt lat="45.95531" lon="6.55472">
        <ele>2610.12</ele>
        <time>2010-10-10T12:28:21Z</time>
      </trkpt>
      <trkpt lat="45.95531" lon="6.55471">
        <ele>2615.88</ele>
        <time>2010-10-10T12:28:39Z</time>
      </trkpt>
      <trkpt lat="45.95531" lon="6.55471">
        <ele>2612.04</ele>
        <time>2010-10-10T12:28:40Z</time>
      </trkpt>
      <trkpt lat="45.95531" lon="6.55471">
        <ele>2613.96</ele>
        <time>2010-10-10T12:28:53Z</time>
      </trkpt>
      <trkpt lat="45.95528" lon="6.55469">
        <ele>2613.96</ele>
        <time>2010-10-10T12:29:00Z</time>
      </trkpt>
      <trkpt lat="45.95523" lon="6.55468">
        <ele>2614.92</ele>
        <time>2010-10-10T12:29:08Z</time>
      </trkpt>
      <trkpt lat="45.95518" lon="6.55466">
        <ele>2615.4</ele>
        <time>2010-10-10T12:29:25Z</time>
      </trkpt>
      <trkpt lat="45.95518" lon="6.55465">
        <ele>2617.81</ele>
        <time>2010-10-10T12:29:31Z</time>
      </trkpt>
      <trkpt lat="45.95516" lon="6.55466">
        <ele>2617.33</ele>
        <time>2010-10-10T12:29:37Z</time>
      </trkpt>
      <trkpt lat="45.95512" lon="6.55465">
        <ele>2617.81</ele>
        <time>2010-10-10T12:29:53Z</time>
      </trkpt>
      <trkpt lat="45.95505" lon="6.55463">
        <ele>2617.81</ele>
        <time>2010-10-10T12:30:08Z</time>
      </trkpt>
      <trkpt lat="45.95503" lon="6.55462">
        <ele>2618.29</ele>
        <time>2010-10-10T12:30:17Z</time>
      </trkpt>
      <trkpt lat="45.95502" lon="6.55461">
        <ele>2619.25</ele>
        <time>2010-10-10T12:30:41Z</time>
      </trkpt>
      <trkpt lat="45.95502" lon="6.55461">
        <ele>2619.25</ele>
        <time>2010-10-10T12:31:03Z</time>
      </trkpt>
      <trkpt lat="45.95502" lon="6.55461">
        <ele>2620.21</ele>
        <time>2010-10-10T12:31:06Z</time>
      </trkpt>
      <trkpt lat="45.95506" lon="6.55463">
        <ele>2616.37</ele>
        <time>2010-10-10T12:31:13Z</time>
      </trkpt>
      <trkpt lat="45.95506" lon="6.55463">
        <ele>2620.69</ele>
        <time>2010-10-10T12:31:14Z</time>
      </trkpt>
      <trkpt lat="45.95506" lon="6.55464">
        <ele>2623.09</ele>
        <time>2010-10-10T12:31:26Z</time>
      </trkpt>
      <trkpt lat="45.95504" lon="6.55464">
        <ele>2623.58</ele>
        <time>2010-10-10T12:31:43Z</time>
      </trkpt>
      <trkpt lat="45.95504" lon="6.55464">
        <ele>2627.9</ele>
        <time>2010-10-10T12:31:58Z</time>
      </trkpt>
      <trkpt lat="45.95502" lon="6.55466">
        <ele>2628.38</ele>
        <time>2010-10-10T12:32:12Z</time>
      </trkpt>
      <trkpt lat="45.955" lon="6.55468">
        <ele>2628.86</ele>
        <time>2010-10-10T12:32:33Z</time>
      </trkpt>
      <trkpt lat="45.95499" lon="6.55469">
        <ele>2630.3</ele>
        <time>2010-10-10T12:32:53Z</time>
      </trkpt>
      <trkpt lat="45.95499" lon="6.55472">
        <ele>2632.23</ele>
        <time>2010-10-10T12:33:11Z</time>
      </trkpt>
      <trkpt lat="45.95501" lon="6.55476">
        <ele>2634.63</ele>
        <time>2010-10-10T12:33:29Z</time>
      </trkpt>
      <trkpt lat="45.95502" lon="6.55479">
        <ele>2634.15</ele>
        <time>2010-10-10T12:33:46Z</time>
      </trkpt>
      <trkpt lat="45.95504" lon="6.55484">
        <ele>2635.11</ele>
        <time>2010-10-10T12:33:53Z</time>
      </trkpt>
      <trkpt lat="45.95509" lon="6.55489">
        <ele>2636.07</ele>
        <time>2010-10-10T12:34:09Z</time>
      </trkpt>
      <trkpt lat="45.95509" lon="6.55489">
        <ele>2637.03</ele>
        <time>2010-10-10T12:34:28Z</time>
      </trkpt>
      <trkpt lat="45.95509" lon="6.55489">
        <ele>2638.48</ele>
        <time>2010-10-10T12:34:46Z</time>
      </trkpt>
      <trkpt lat="45.95509" lon="6.55489">
        <ele>2638.48</ele>
        <time>2010-10-10T12:34:47Z</time>
      </trkpt>
      <trkpt lat="45.95508" lon="6.5549">
        <ele>2639.44</ele>
        <time>2010-10-10T12:35:05Z</time>
      </trkpt>
      <trkpt lat="45.955" lon="6.55492">
        <ele>2641.84</ele>
        <time>2010-10-10T12:35:21Z</time>
      </trkpt>
      <trkpt lat="45.95496" lon="6.55488">
        <ele>2643.76</ele>
        <time>2010-10-10T12:35:36Z</time>
      </trkpt>
      <trkpt lat="45.95496" lon="6.55488">
        <ele>2643.28</ele>
        <time>2010-10-10T12:35:52Z</time>
      </trkpt>
      <trkpt lat="45.95498" lon="6.55491">
        <ele>2645.21</ele>
        <time>2010-10-10T12:36:09Z</time>
      </trkpt>
      <trkpt lat="45.95498" lon="6.55491">
        <ele>2645.69</ele>
        <time>2010-10-10T12:36:31Z</time>
      </trkpt>
      <trkpt lat="45.95501" lon="6.55495">
        <ele>2646.17</ele>
        <time>2010-10-10T12:36:48Z</time>
      </trkpt>
      <trkpt lat="45.95498" lon="6.55497">
        <ele>2646.65</ele>
        <time>2010-10-10T12:37:03Z</time>
      </trkpt>
      <trkpt lat="45.95499" lon="6.55502">
        <ele>2648.57</ele>
        <time>2010-10-10T12:37:17Z</time>
      </trkpt>
      <trkpt lat="45.95495" lon="6.55501">
        <ele>2651.45</ele>
        <time>2010-10-10T12:37:32Z</time>
      </trkpt>
      <trkpt lat="45.95491" lon="6.55497">
        <ele>2654.34</ele>
        <time>2010-10-10T12:37:48Z</time>
      </trkpt>
      <trkpt lat="45.95489" lon="6.55497">
        <ele>2654.82</ele>
        <time>2010-10-10T12:37:55Z</time>
      </trkpt>
      <trkpt lat="45.95487" lon="6.55495">
        <ele>2656.26</ele>
        <time>2010-10-10T12:38:14Z</time>
      </trkpt>
      <trkpt lat="45.95488" lon="6.55495">
        <ele>2659.14</ele>
        <time>2010-10-10T12:38:29Z</time>
      </trkpt>
      <trkpt lat="45.95488" lon="6.55495">
        <ele>2660.59</ele>
        <time>2010-10-10T12:38:42Z</time>
      </trkpt>
      <trkpt lat="45.95488" lon="6.55495">
        <ele>2660.11</ele>
        <time>2010-10-10T12:39:01Z</time>
      </trkpt>
      <trkpt lat="45.95492" lon="6.55507">
        <ele>2661.07</ele>
        <time>2010-10-10T12:39:14Z</time>
      </trkpt>
      <trkpt lat="45.95493" lon="6.55509">
        <ele>2662.51</ele>
        <time>2010-10-10T12:39:29Z</time>
      </trkpt>
      <trkpt lat="45.9549" lon="6.55512">
        <ele>2662.99</ele>
        <time>2010-10-10T12:39:42Z</time>
      </trkpt>
      <trkpt lat="45.95486" lon="6.55513">
        <ele>2665.39</ele>
        <time>2010-10-10T12:39:59Z</time>
      </trkpt>
      <trkpt lat="45.95484" lon="6.55514">
        <ele>2667.31</ele>
        <time>2010-10-10T12:40:13Z</time>
      </trkpt>
      <trkpt lat="45.95484" lon="6.55514">
        <ele>2668.76</ele>
        <time>2010-10-10T12:40:31Z</time>
      </trkpt>
      <trkpt lat="45.95484" lon="6.55514">
        <ele>2670.68</ele>
        <time>2010-10-10T12:40:47Z</time>
      </trkpt>
      <trkpt lat="45.95483" lon="6.55515">
        <ele>2672.12</ele>
        <time>2010-10-10T12:41:06Z</time>
      </trkpt>
      <trkpt lat="45.95483" lon="6.55516">
        <ele>2671.16</ele>
        <time>2010-10-10T12:41:19Z</time>
      </trkpt>
      <trkpt lat="45.95483" lon="6.55516">
        <ele>2672.12</ele>
        <time>2010-10-10T12:41:34Z</time>
      </trkpt>
      <trkpt lat="45.95483" lon="6.55517">
        <ele>2673.56</ele>
        <time>2010-10-10T12:41:53Z</time>
      </trkpt>
      <trkpt lat="45.95483" lon="6.55517">
        <ele>2675.49</ele>
        <time>2010-10-10T12:42:11Z</time>
      </trkpt>
      <trkpt lat="45.95483" lon="6.55517">
        <ele>2675.49</ele>
        <time>2010-10-10T12:42:34Z</time>
      </trkpt>
      <trkpt lat="45.95483" lon="6.55517">
        <ele>2680.29</ele>
        <time>2010-10-10T12:42:35Z</time>
      </trkpt>
      <trkpt lat="45.95483" lon="6.55517">
        <ele>2675.49</ele>
        <time>2010-10-10T12:42:36Z</time>
      </trkpt>
      <trkpt lat="45.95483" lon="6.55517">
        <ele>2675.97</ele>
        <time>2010-10-10T12:43:04Z</time>
      </trkpt>
      <trkpt lat="45.95483" lon="6.55517">
        <ele>2677.41</ele>
        <time>2010-10-10T12:43:11Z</time>
      </trkpt>
      <trkpt lat="45.95483" lon="6.55517">
        <ele>2678.37</ele>
        <time>2010-10-10T12:43:30Z</time>
      </trkpt>
      <trkpt lat="45.95483" lon="6.55517">
        <ele>2680.77</ele>
        <time>2010-10-10T12:43:49Z</time>
      </trkpt>
      <trkpt lat="45.95483" lon="6.55517">
        <ele>2680.77</ele>
        <time>2010-10-10T12:44:08Z</time>
      </trkpt>
      <trkpt lat="45.95483" lon="6.55517">
        <ele>2681.73</ele>
        <time>2010-10-10T12:44:26Z</time>
      </trkpt>
      <trkpt lat="45.95482" lon="6.55518">
        <ele>2682.7</ele>
        <time>2010-10-10T12:44:40Z</time>
      </trkpt>
      <trkpt lat="45.95482" lon="6.55518">
        <ele>2682.7</ele>
        <time>2010-10-10T12:44:54Z</time>
      </trkpt>
      <trkpt lat="45.95482" lon="6.55518">
        <ele>2681.73</ele>
        <time>2010-10-10T12:45:08Z</time>
      </trkpt>
      <trkpt lat="45.95482" lon="6.55518">
        <ele>2681.25</ele>
        <time>2010-10-10T12:45:39Z</time>
      </trkpt>
      <trkpt lat="45.95482" lon="6.55518">
        <ele>2681.73</ele>
        <time>2010-10-10T12:46:16Z</time>
      </trkpt>
      <trkpt lat="45.9548" lon="6.55521">
        <ele>2681.25</ele>
        <time>2010-10-10T12:46:48Z</time>
      </trkpt>
      <trkpt lat="45.95478" lon="6.55524">
        <ele>2681.25</ele>
        <time>2010-10-10T12:47:28Z</time>
      </trkpt>
      <trkpt lat="45.95478" lon="6.55524">
        <ele>2681.25</ele>
        <time>2010-10-10T12:47:58Z</time>
      </trkpt>
      <trkpt lat="45.95478" lon="6.55524">
        <ele>2681.73</ele>
        <time>2010-10-10T12:48:20Z</time>
      </trkpt>
      <trkpt lat="45.95477" lon="6.55526">
        <ele>2681.73</ele>
        <time>2010-10-10T12:48:34Z</time>
      </trkpt>
      <trkpt lat="45.95477" lon="6.55526">
        <ele>2681.25</ele>
        <time>2010-10-10T12:49:06Z</time>
      </trkpt>
      <trkpt lat="45.95477" lon="6.55526">
        <ele>2681.73</ele>
        <time>2010-10-10T12:49:28Z</time>
      </trkpt>
      <trkpt lat="45.95477" lon="6.55528">
        <ele>2681.25</ele>
        <time>2010-10-10T12:49:59Z</time>
      </trkpt>
      <trkpt lat="45.95477" lon="6.55528">
        <ele>2682.22</ele>
        <time>2010-10-10T12:50:28Z</time>
      </trkpt>
      <trkpt lat="45.95477" lon="6.55528">
        <ele>2680.29</ele>
        <time>2010-10-10T12:50:49Z</time>
      </trkpt>
      <trkpt lat="45.95477" lon="6.55528">
        <ele>2678.85</ele>
        <time>2010-10-10T12:50:56Z</time>
      </trkpt>
      <trkpt lat="45.95481" lon="6.55534">
        <ele>2678.85</ele>
        <time>2010-10-10T12:51:03Z</time>
      </trkpt>
      <trkpt lat="45.95485" lon="6.55537">
        <ele>2679.81</ele>
        <time>2010-10-10T12:51:12Z</time>
      </trkpt>
      <trkpt lat="45.95494" lon="6.55545">
        <ele>2681.25</ele>
        <time>2010-10-10T12:51:26Z</time>
      </trkpt>
      <trkpt lat="45.955" lon="6.5555">
        <ele>2683.18</ele>
        <time>2010-10-10T12:51:40Z</time>
      </trkpt>
      <trkpt lat="45.95502" lon="6.55552">
        <ele>2684.14</ele>
        <time>2010-10-10T12:51:45Z</time>
      </trkpt>
      <trkpt lat="45.95504" lon="6.55552">
        <ele>2686.54</ele>
        <time>2010-10-10T12:51:59Z</time>
      </trkpt>
      <trkpt lat="45.95504" lon="6.55553">
        <ele>2687.5</ele>
        <time>2010-10-10T12:52:14Z</time>
      </trkpt>
      <trkpt lat="45.95505" lon="6.55554">
        <ele>2688.46</ele>
        <time>2010-10-10T12:52:28Z</time>
      </trkpt>
      <trkpt lat="45.95505" lon="6.55554">
        <ele>2691.35</ele>
        <time>2010-10-10T12:52:43Z</time>
      </trkpt>
      <trkpt lat="45.95507" lon="6.5556">
        <ele>2693.27</ele>
        <time>2010-10-10T12:52:57Z</time>
      </trkpt>
      <trkpt lat="45.95507" lon="6.55561">
        <ele>2694.23</ele>
        <time>2010-10-10T12:53:10Z</time>
      </trkpt>
      <trkpt lat="45.95508" lon="6.5556">
        <ele>2695.67</ele>
        <time>2010-10-10T12:53:27Z</time>
      </trkpt>
      <trkpt lat="45.95509" lon="6.55561">
        <ele>2697.12</ele>
        <time>2010-10-10T12:53:39Z</time>
      </trkpt>
      <trkpt lat="45.95512" lon="6.55559">
        <ele>2699.52</ele>
        <time>2010-10-10T12:53:54Z</time>
      </trkpt>
      <trkpt lat="45.95514" lon="6.55562">
        <ele>2700.48</ele>
        <time>2010-10-10T12:54:17Z</time>
      </trkpt>
      <trkpt lat="45.95514" lon="6.55565">
        <ele>2701.44</ele>
        <time>2010-10-10T12:54:33Z</time>
      </trkpt>
      <trkpt lat="45.95515" lon="6.55565">
        <ele>2702.88</ele>
        <time>2010-10-10T12:54:47Z</time>
      </trkpt>
      <trkpt lat="45.95518" lon="6.55569">
        <ele>2706.25</ele>
        <time>2010-10-10T12:55:01Z</time>
      </trkpt>
      <trkpt lat="45.95518" lon="6.5557">
        <ele>2707.69</ele>
        <time>2010-10-10T12:55:16Z</time>
      </trkpt>
      <trkpt lat="45.9552" lon="6.55576">
        <ele>2709.61</ele>
        <time>2010-10-10T12:55:30Z</time>
      </trkpt>
      <trkpt lat="45.9552" lon="6.55579">
        <ele>2712.02</ele>
        <time>2010-10-10T12:55:46Z</time>
      </trkpt>
      <trkpt lat="45.9552" lon="6.55579">
        <ele>2712.5</ele>
        <time>2010-10-10T12:56:01Z</time>
      </trkpt>
      <trkpt lat="45.9552" lon="6.5558">
        <ele>2712.02</ele>
        <time>2010-10-10T12:56:20Z</time>
      </trkpt>
      <trkpt lat="45.9552" lon="6.5558">
        <ele>2712.5</ele>
        <time>2010-10-10T12:57:02Z</time>
      </trkpt>
      <trkpt lat="45.95521" lon="6.5558">
        <ele>2712.5</ele>
        <time>2010-10-10T12:57:41Z</time>
      </trkpt>
      <trkpt lat="45.95521" lon="6.5558">
        <ele>2712.98</ele>
        <time>2010-10-10T12:58:18Z</time>
      </trkpt>
      <trkpt lat="45.95521" lon="6.5558">
        <ele>2712.98</ele>
        <time>2010-10-10T12:58:50Z</time>
      </trkpt>
      <trkpt lat="45.95521" lon="6.5558">
        <ele>2713.94</ele>
        <time>2010-10-10T12:59:33Z</time>
      </trkpt>
      <trkpt lat="45.95521" lon="6.5558">
        <ele>2713.94</ele>
        <time>2010-10-10T13:00:11Z</time>
      </trkpt>
      <trkpt lat="45.9552" lon="6.55581">
        <ele>2715.86</ele>
        <time>2010-10-10T13:00:32Z</time>
      </trkpt>
      <trkpt lat="45.9552" lon="6.55582">
        <ele>2715.38</ele>
        <time>2010-10-10T13:00:51Z</time>
      </trkpt>
      <trkpt lat="45.95523" lon="6.55576">
        <ele>2715.86</ele>
        <time>2010-10-10T13:01:05Z</time>
      </trkpt>
      <trkpt lat="45.95525" lon="6.55571">
        <ele>2716.82</ele>
        <time>2010-10-10T13:01:12Z</time>
      </trkpt>
      <trkpt lat="45.9553" lon="6.55562">
        <ele>2718.27</ele>
        <time>2010-10-10T13:01:25Z</time>
      </trkpt>
      <trkpt lat="45.95531" lon="6.55562">
        <ele>2719.23</ele>
        <time>2010-10-10T13:01:38Z</time>
      </trkpt>
      <trkpt lat="45.95532" lon="6.55562">
        <ele>2717.78</ele>
        <time>2010-10-10T13:01:54Z</time>
      </trkpt>
      <trkpt lat="45.95536" lon="6.55562">
        <ele>2722.59</ele>
        <time>2010-10-10T13:02:10Z</time>
      </trkpt>
      <trkpt lat="45.95536" lon="6.55562">
        <ele>2721.63</ele>
        <time>2010-10-10T13:02:11Z</time>
      </trkpt>
      <trkpt lat="45.95536" lon="6.55562">
        <ele>2717.78</ele>
        <time>2010-10-10T13:02:12Z</time>
      </trkpt>
      <trkpt lat="45.95536" lon="6.55563">
        <ele>2718.75</ele>
        <time>2010-10-10T13:02:13Z</time>
      </trkpt>
      <trkpt lat="45.95536" lon="6.55563">
        <ele>2713.94</ele>
        <time>2010-10-10T13:02:14Z</time>
      </trkpt>
      <trkpt lat="45.95536" lon="6.55563">
        <ele>2717.78</ele>
        <time>2010-10-10T13:02:15Z</time>
      </trkpt>
      <trkpt lat="45.95536" lon="6.55563">
        <ele>2704.33</ele>
        <time>2010-10-10T13:02:17Z</time>
      </trkpt>
      <trkpt lat="45.95536" lon="6.55563">
        <ele>2719.71</ele>
        <time>2010-10-10T13:02:18Z</time>
      </trkpt>
      <trkpt lat="45.95536" lon="6.55563">
        <ele>2719.71</ele>
        <time>2010-10-10T13:02:19Z</time>
      </trkpt>
      <trkpt lat="45.95537" lon="6.55563">
        <ele>2715.38</ele>
        <time>2010-10-10T13:02:31Z</time>
      </trkpt>
      <trkpt lat="45.95538" lon="6.55564">
        <ele>2716.82</ele>
        <time>2010-10-10T13:02:35Z</time>
      </trkpt>
      <trkpt lat="45.95544" lon="6.55575">
        <ele>2718.27</ele>
        <time>2010-10-10T13:02:50Z</time>
      </trkpt>
      <trkpt lat="45.95547" lon="6.55577">
        <ele>2719.23</ele>
        <time>2010-10-10T13:03:05Z</time>
      </trkpt>
      <trkpt lat="45.95547" lon="6.5558">
        <ele>2720.19</ele>
        <time>2010-10-10T13:03:21Z</time>
      </trkpt>
      <trkpt lat="45.95547" lon="6.55583">
        <ele>2721.63</ele>
        <time>2010-10-10T13:03:38Z</time>
      </trkpt>
      <trkpt lat="45.95547" lon="6.55583">
        <ele>2722.59</ele>
        <time>2010-10-10T13:03:58Z</time>
      </trkpt>
      <trkpt lat="45.9555" lon="6.55586">
        <ele>2724.03</ele>
        <time>2010-10-10T13:04:13Z</time>
      </trkpt>
      <trkpt lat="45.95552" lon="6.55588">
        <ele>2725.96</ele>
        <time>2010-10-10T13:04:28Z</time>
      </trkpt>
      <trkpt lat="45.95556" lon="6.55593">
        <ele>2728.36</ele>
        <time>2010-10-10T13:04:45Z</time>
      </trkpt>
      <trkpt lat="45.95557" lon="6.55593">
        <ele>2728.84</ele>
        <time>2010-10-10T13:05:02Z</time>
      </trkpt>
      <trkpt lat="45.95562" lon="6.55595">
        <ele>2732.68</ele>
        <time>2010-10-10T13:05:15Z</time>
      </trkpt>
      <trkpt lat="45.95564" lon="6.55594">
        <ele>2734.13</ele>
        <time>2010-10-10T13:05:33Z</time>
      </trkpt>
      <trkpt lat="45.95567" lon="6.55594">
        <ele>2734.13</ele>
        <time>2010-10-10T13:05:50Z</time>
      </trkpt>
      <trkpt lat="45.95571" lon="6.55592">
        <ele>2733.65</ele>
        <time>2010-10-10T13:06:08Z</time>
      </trkpt>
      <trkpt lat="45.95576" lon="6.55592">
        <ele>2736.05</ele>
        <time>2010-10-10T13:06:21Z</time>
      </trkpt>
      <trkpt lat="45.95576" lon="6.55592">
        <ele>2736.05</ele>
        <time>2010-10-10T13:06:24Z</time>
      </trkpt>
      <trkpt lat="45.95577" lon="6.55589">
        <ele>2735.09</ele>
        <time>2010-10-10T13:06:37Z</time>
      </trkpt>
      <trkpt lat="45.95579" lon="6.55589">
        <ele>2735.09</ele>
        <time>2010-10-10T13:06:50Z</time>
      </trkpt>
      <trkpt lat="45.95578" lon="6.55588">
        <ele>2731.24</ele>
        <time>2010-10-10T13:07:00Z</time>
      </trkpt>
      <trkpt lat="45.95578" lon="6.55588">
        <ele>2735.09</ele>
        <time>2010-10-10T13:07:03Z</time>
      </trkpt>
      <trkpt lat="45.95576" lon="6.5559">
        <ele>2735.09</ele>
        <time>2010-10-10T13:07:29Z</time>
      </trkpt>
      <trkpt lat="45.95576" lon="6.5559">
        <ele>2736.05</ele>
        <time>2010-10-10T13:07:48Z</time>
      </trkpt>
      <trkpt lat="45.95576" lon="6.5559">
        <ele>2735.09</ele>
        <time>2010-10-10T13:08:07Z</time>
      </trkpt>
      <trkpt lat="45.95576" lon="6.55591">
        <ele>2735.57</ele>
        <time>2010-10-10T13:08:50Z</time>
      </trkpt>
      <trkpt lat="45.95576" lon="6.55591">
        <ele>2735.57</ele>
        <time>2010-10-10T13:09:30Z</time>
      </trkpt>
      <trkpt lat="45.95576" lon="6.55591">
        <ele>2736.05</ele>
        <time>2010-10-10T13:10:10Z</time>
      </trkpt>
      <trkpt lat="45.95576" lon="6.55591">
        <ele>2735.57</ele>
        <time>2010-10-10T13:10:43Z</time>
      </trkpt>
      <trkpt lat="45.95576" lon="6.55591">
        <ele>2736.05</ele>
        <time>2010-10-10T13:11:20Z</time>
      </trkpt>
      <trkpt lat="45.95576" lon="6.55591">
        <ele>2737.01</ele>
        <time>2010-10-10T13:12:02Z</time>
      </trkpt>
      <trkpt lat="45.95576" lon="6.55591">
        <ele>2737.49</ele>
        <time>2010-10-10T13:12:36Z</time>
      </trkpt>
      <trkpt lat="45.95576" lon="6.55591">
        <ele>2736.53</ele>
        <time>2010-10-10T13:13:11Z</time>
      </trkpt>
      <trkpt lat="45.95576" lon="6.55591">
        <ele>2737.49</ele>
        <time>2010-10-10T13:13:50Z</time>
      </trkpt>
      <trkpt lat="45.95576" lon="6.55591">
        <ele>2737.49</ele>
        <time>2010-10-10T13:14:20Z</time>
      </trkpt>
      <trkpt lat="45.95576" lon="6.55591">
        <ele>2737.49</ele>
        <time>2010-10-10T13:14:57Z</time>
      </trkpt>
      <trkpt lat="45.95576" lon="6.55591">
        <ele>2737.97</ele>
        <time>2010-10-10T13:15:31Z</time>
      </trkpt>
      <trkpt lat="45.95576" lon="6.55592">
        <ele>2737.97</ele>
        <time>2010-10-10T13:16:12Z</time>
      </trkpt>
      <trkpt lat="45.95576" lon="6.55592">
        <ele>2738.45</ele>
        <time>2010-10-10T13:16:52Z</time>
      </trkpt>
      <trkpt lat="45.95576" lon="6.55592">
        <ele>2737.97</ele>
        <time>2010-10-10T13:17:34Z</time>
      </trkpt>
      <trkpt lat="45.95576" lon="6.55592">
        <ele>2737.97</ele>
        <time>2010-10-10T13:17:55Z</time>
      </trkpt>
      <trkpt lat="45.95576" lon="6.55592">
        <ele>2734.61</ele>
        <time>2010-10-10T13:18:14Z</time>
      </trkpt>
      <trkpt lat="45.95576" lon="6.55592">
        <ele>2740.38</ele>
        <time>2010-10-10T13:18:15Z</time>
      </trkpt>
      <trkpt lat="45.95576" lon="6.55592">
        <ele>2737.97</ele>
        <time>2010-10-10T13:18:16Z</time>
      </trkpt>
      <trkpt lat="45.95575" lon="6.55591">
        <ele>2738.45</ele>
        <time>2010-10-10T13:18:37Z</time>
      </trkpt>
      <trkpt lat="45.95575" lon="6.55591">
        <ele>2738.93</ele>
        <time>2010-10-10T13:19:22Z</time>
      </trkpt>
      <trkpt lat="45.95575" lon="6.55591">
        <ele>2738.45</ele>
        <time>2010-10-10T13:20:04Z</time>
      </trkpt>
      <trkpt lat="45.95575" lon="6.55591">
        <ele>2738.93</ele>
        <time>2010-10-10T13:20:46Z</time>
      </trkpt>
      <trkpt lat="45.95575" lon="6.55591">
        <ele>2738.93</ele>
        <time>2010-10-10T13:21:27Z</time>
      </trkpt>
      <trkpt lat="45.95576" lon="6.55591">
        <ele>2738.93</ele>
        <time>2010-10-10T13:22:08Z</time>
      </trkpt>
      <trkpt lat="45.95576" lon="6.5559">
        <ele>2738.93</ele>
        <time>2010-10-10T13:22:52Z</time>
      </trkpt>
      <trkpt lat="45.95576" lon="6.5559">
        <ele>2738.93</ele>
        <time>2010-10-10T13:23:32Z</time>
      </trkpt>
      <trkpt lat="45.95576" lon="6.5559">
        <ele>2739.89</ele>
        <time>2010-10-10T13:24:10Z</time>
      </trkpt>
      <trkpt lat="45.95576" lon="6.5559">
        <ele>2739.89</ele>
        <time>2010-10-10T13:24:54Z</time>
      </trkpt>
      <trkpt lat="45.95576" lon="6.5559">
        <ele>2739.89</ele>
        <time>2010-10-10T13:25:37Z</time>
      </trkpt>
      <trkpt lat="45.95576" lon="6.5559">
        <ele>2739.89</ele>
        <time>2010-10-10T13:26:23Z</time>
      </trkpt>
      <trkpt lat="45.95576" lon="6.5559">
        <ele>2740.38</ele>
        <time>2010-10-10T13:27:00Z</time>
      </trkpt>
      <trkpt lat="45.95576" lon="6.5559">
        <ele>2740.86</ele>
        <time>2010-10-10T13:27:45Z</time>
      </trkpt>
      <trkpt lat="45.95576" lon="6.55589">
        <ele>2740.86</ele>
        <time>2010-10-10T13:28:24Z</time>
      </trkpt>
      <trkpt lat="45.95576" lon="6.55589">
        <ele>2740.38</ele>
        <time>2010-10-10T13:29:07Z</time>
      </trkpt>
      <trkpt lat="45.95576" lon="6.55589">
        <ele>2740.38</ele>
        <time>2010-10-10T13:29:42Z</time>
      </trkpt>
      <trkpt lat="45.95576" lon="6.5559">
        <ele>2745.18</ele>
        <time>2010-10-10T13:29:45Z</time>
      </trkpt>
      <trkpt lat="45.95576" lon="6.5559">
        <ele>2742.3</ele>
        <time>2010-10-10T13:29:46Z</time>
      </trkpt>
      <trkpt lat="45.95576" lon="6.5559">
        <ele>2736.05</ele>
        <time>2010-10-10T13:29:52Z</time>
      </trkpt>
      <trkpt lat="45.95576" lon="6.5559">
        <ele>2743.74</ele>
        <time>2010-10-10T13:29:53Z</time>
      </trkpt>
      <trkpt lat="45.95576" lon="6.5559">
        <ele>2750.95</ele>
        <time>2010-10-10T13:29:56Z</time>
      </trkpt>
      <trkpt lat="45.95576" lon="6.5559">
        <ele>2744.22</ele>
        <time>2010-10-10T13:29:57Z</time>
      </trkpt>
      <trkpt lat="45.95576" lon="6.5559">
        <ele>2737.01</ele>
        <time>2010-10-10T13:29:59Z</time>
      </trkpt>
      <trkpt lat="45.95576" lon="6.5559">
        <ele>2733.17</ele>
        <time>2010-10-10T13:30:00Z</time>
      </trkpt>
      <trkpt lat="45.95576" lon="6.5559">
        <ele>2744.7</ele>
        <time>2010-10-10T13:30:01Z</time>
      </trkpt>
      <trkpt lat="45.95576" lon="6.5559">
        <ele>2741.34</ele>
        <time>2010-10-10T13:30:02Z</time>
      </trkpt>
      <trkpt lat="45.95576" lon="6.55591">
        <ele>2741.34</ele>
        <time>2010-10-10T13:30:24Z</time>
      </trkpt>
      <trkpt lat="45.95576" lon="6.55591">
        <ele>2741.34</ele>
        <time>2010-10-10T13:30:37Z</time>
      </trkpt>
      <trkpt lat="45.95575" lon="6.55591">
        <ele>2741.34</ele>
        <time>2010-10-10T13:31:07Z</time>
      </trkpt>
      <trkpt lat="45.95575" lon="6.55591">
        <ele>2741.82</ele>
        <time>2010-10-10T13:31:48Z</time>
      </trkpt>
      <trkpt lat="45.95575" lon="6.55591">
        <ele>2741.82</ele>
        <time>2010-10-10T13:32:22Z</time>
      </trkpt>
      <trkpt lat="45.95575" lon="6.55591">
        <ele>2742.3</ele>
        <time>2010-10-10T13:33:02Z</time>
      </trkpt>
      <trkpt lat="45.95575" lon="6.55591">
        <ele>2742.3</ele>
        <time>2010-10-10T13:33:38Z</time>
      </trkpt>
      <trkpt lat="45.95575" lon="6.55591">
        <ele>2742.3</ele>
        <time>2010-10-10T13:34:14Z</time>
      </trkpt>
      <trkpt lat="45.95575" lon="6.55591">
        <ele>2742.78</ele>
        <time>2010-10-10T13:34:48Z</time>
      </trkpt>
      <trkpt lat="45.95575" lon="6.55591">
        <ele>2742.3</ele>
        <time>2010-10-10T13:35:25Z</time>
      </trkpt>
      <trkpt lat="45.95575" lon="6.55591">
        <ele>2742.78</ele>
        <time>2010-10-10T13:35:59Z</time>
      </trkpt>
      <trkpt lat="45.95575" lon="6.55591">
        <ele>2742.78</ele>
        <time>2010-10-10T13:36:36Z</time>
      </trkpt>
      <trkpt lat="45.95575" lon="6.55591">
        <ele>2743.26</ele>
        <time>2010-10-10T13:37:14Z</time>
      </trkpt>
      <trkpt lat="45.95574" lon="6.5559">
        <ele>2744.7</ele>
        <time>2010-10-10T13:37:51Z</time>
      </trkpt>
      <trkpt lat="45.95574" lon="6.5559">
        <ele>2744.7</ele>
        <time>2010-10-10T13:38:09Z</time>
      </trkpt>
      <trkpt lat="45.95574" lon="6.5559">
        <ele>2738.93</ele>
        <time>2010-10-10T13:38:24Z</time>
      </trkpt>
      <trkpt lat="45.95574" lon="6.5559">
        <ele>2745.66</ele>
        <time>2010-10-10T13:38:25Z</time>
      </trkpt>
      <trkpt lat="45.95574" lon="6.5559">
        <ele>2741.34</ele>
        <time>2010-10-10T13:38:38Z</time>
      </trkpt>
      <trkpt lat="45.95574" lon="6.5559">
        <ele>2746.62</ele>
        <time>2010-10-10T13:38:41Z</time>
      </trkpt>
      <trkpt lat="45.95574" lon="6.5559">
        <ele>2742.78</ele>
        <time>2010-10-10T13:38:47Z</time>
      </trkpt>
      <trkpt lat="45.9557" lon="6.55592">
        <ele>2742.78</ele>
        <time>2010-10-10T13:39:01Z</time>
      </trkpt>
      <trkpt lat="45.95569" lon="6.55589">
        <ele>2740.86</ele>
        <time>2010-10-10T13:39:13Z</time>
      </trkpt>
      <trkpt lat="45.95567" lon="6.55594">
        <ele>2741.34</ele>
        <time>2010-10-10T13:39:31Z</time>
      </trkpt>
      <trkpt lat="45.95563" lon="6.55597">
        <ele>2741.34</ele>
        <time>2010-10-10T13:39:44Z</time>
      </trkpt>
      <trkpt lat="45.95561" lon="6.55596">
        <ele>2739.89</ele>
        <time>2010-10-10T13:39:59Z</time>
      </trkpt>
      <trkpt lat="45.95558" lon="6.55595">
        <ele>2738.45</ele>
        <time>2010-10-10T13:40:13Z</time>
      </trkpt>
      <trkpt lat="45.95557" lon="6.55592">
        <ele>2737.49</ele>
        <time>2010-10-10T13:40:28Z</time>
      </trkpt>
      <trkpt lat="45.95557" lon="6.55592">
        <ele>2736.53</ele>
        <time>2010-10-10T13:40:34Z</time>
      </trkpt>
      <trkpt lat="45.95555" lon="6.5559">
        <ele>2736.05</ele>
        <time>2010-10-10T13:40:53Z</time>
      </trkpt>
      <trkpt lat="45.95554" lon="6.55589">
        <ele>2734.61</ele>
        <time>2010-10-10T13:41:06Z</time>
      </trkpt>
      <trkpt lat="45.95551" lon="6.55588">
        <ele>2734.61</ele>
        <time>2010-10-10T13:41:20Z</time>
      </trkpt>
      <trkpt lat="45.9555" lon="6.55587">
        <ele>2732.68</ele>
        <time>2010-10-10T13:41:38Z</time>
      </trkpt>
      <trkpt lat="45.9555" lon="6.55587">
        <ele>2731.72</ele>
        <time>2010-10-10T13:41:56Z</time>
      </trkpt>
      <trkpt lat="45.95548" lon="6.55585">
        <ele>2732.2</ele>
        <time>2010-10-10T13:42:10Z</time>
      </trkpt>
      <trkpt lat="45.95547" lon="6.55584">
        <ele>2730.76</ele>
        <time>2010-10-10T13:42:28Z</time>
      </trkpt>
      <trkpt lat="45.95547" lon="6.55584">
        <ele>2730.28</ele>
        <time>2010-10-10T13:42:52Z</time>
      </trkpt>
      <trkpt lat="45.95547" lon="6.55584">
        <ele>2728.84</ele>
        <time>2010-10-10T13:43:16Z</time>
      </trkpt>
      <trkpt lat="45.95547" lon="6.55583">
        <ele>2729.8</ele>
        <time>2010-10-10T13:43:41Z</time>
      </trkpt>
      <trkpt lat="45.95547" lon="6.55583">
        <ele>2729.32</ele>
        <time>2010-10-10T13:44:06Z</time>
      </trkpt>
      <trkpt lat="45.95547" lon="6.55583">
        <ele>2724.51</ele>
        <time>2010-10-10T13:44:08Z</time>
      </trkpt>
      <trkpt lat="45.95547" lon="6.55583">
        <ele>2729.32</ele>
        <time>2010-10-10T13:44:09Z</time>
      </trkpt>
      <trkpt lat="45.95547" lon="6.55583">
        <ele>2728.36</ele>
        <time>2010-10-10T13:44:31Z</time>
      </trkpt>
      <trkpt lat="45.95542" lon="6.55571">
        <ele>2727.88</ele>
        <time>2010-10-10T13:44:45Z</time>
      </trkpt>
      <trkpt lat="45.9554" lon="6.55568">
        <ele>2732.68</ele>
        <time>2010-10-10T13:45:01Z</time>
      </trkpt>
      <trkpt lat="45.9554" lon="6.55568">
        <ele>2728.84</ele>
        <time>2010-10-10T13:45:02Z</time>
      </trkpt>
      <trkpt lat="45.9554" lon="6.55567">
        <ele>2732.2</ele>
        <time>2010-10-10T13:45:16Z</time>
      </trkpt>
      <trkpt lat="45.95535" lon="6.55564">
        <ele>2731.72</ele>
        <time>2010-10-10T13:45:32Z</time>
      </trkpt>
      <trkpt lat="45.9553" lon="6.55562">
        <ele>2730.28</ele>
        <time>2010-10-10T13:45:45Z</time>
      </trkpt>
      <trkpt lat="45.95529" lon="6.55563">
        <ele>2729.32</ele>
        <time>2010-10-10T13:45:47Z</time>
      </trkpt>
      <trkpt lat="45.95525" lon="6.55572">
        <ele>2728.84</ele>
        <time>2010-10-10T13:45:59Z</time>
      </trkpt>
      <trkpt lat="45.95523" lon="6.55575">
        <ele>2727.4</ele>
        <time>2010-10-10T13:46:13Z</time>
      </trkpt>
      <trkpt lat="45.95523" lon="6.55575">
        <ele>2726.44</ele>
        <time>2010-10-10T13:46:33Z</time>
      </trkpt>
      <trkpt lat="45.95523" lon="6.55573">
        <ele>2725.96</ele>
        <time>2010-10-10T13:46:45Z</time>
      </trkpt>
      <trkpt lat="45.95523" lon="6.55573">
        <ele>2724.51</ele>
        <time>2010-10-10T13:46:51Z</time>
      </trkpt>
      <trkpt lat="45.95523" lon="6.55573">
        <ele>2724.99</ele>
        <time>2010-10-10T13:47:05Z</time>
      </trkpt>
      <trkpt lat="45.95523" lon="6.55573">
        <ele>2723.55</ele>
        <time>2010-10-10T13:47:17Z</time>
      </trkpt>
      <trkpt lat="45.9552" lon="6.55569">
        <ele>2722.59</ele>
        <time>2010-10-10T13:47:32Z</time>
      </trkpt>
      <trkpt lat="45.95516" lon="6.55564">
        <ele>2719.71</ele>
        <time>2010-10-10T13:47:46Z</time>
      </trkpt>
      <trkpt lat="45.95515" lon="6.55562">
        <ele>2718.27</ele>
        <time>2010-10-10T13:48:01Z</time>
      </trkpt>
      <trkpt lat="45.95515" lon="6.55562">
        <ele>2716.82</ele>
        <time>2010-10-10T13:48:14Z</time>
      </trkpt>
      <trkpt lat="45.95513" lon="6.55561">
        <ele>2716.82</ele>
        <time>2010-10-10T13:48:31Z</time>
      </trkpt>
      <trkpt lat="45.95513" lon="6.55561">
        <ele>2716.34</ele>
        <time>2010-10-10T13:48:50Z</time>
      </trkpt>
      <trkpt lat="45.95513" lon="6.55561">
        <ele>2714.9</ele>
        <time>2010-10-10T13:49:12Z</time>
      </trkpt>
      <trkpt lat="45.95513" lon="6.55561">
        <ele>2715.38</ele>
        <time>2010-10-10T13:49:33Z</time>
      </trkpt>
      <trkpt lat="45.95513" lon="6.55561">
        <ele>2713.94</ele>
        <time>2010-10-10T13:49:53Z</time>
      </trkpt>
      <trkpt lat="45.95513" lon="6.55561">
        <ele>2712.98</ele>
        <time>2010-10-10T13:50:00Z</time>
      </trkpt>
      <trkpt lat="45.95507" lon="6.55557">
        <ele>2712.5</ele>
        <time>2010-10-10T13:50:14Z</time>
      </trkpt>
      <trkpt lat="45.95502" lon="6.55554">
        <ele>2711.06</ele>
        <time>2010-10-10T13:50:31Z</time>
      </trkpt>
      <trkpt lat="45.955" lon="6.55555">
        <ele>2710.57</ele>
        <time>2010-10-10T13:50:47Z</time>
      </trkpt>
      <trkpt lat="45.955" lon="6.55555">
        <ele>2711.06</ele>
        <time>2010-10-10T13:51:09Z</time>
      </trkpt>
      <trkpt lat="45.955" lon="6.55555">
        <ele>2710.57</ele>
        <time>2010-10-10T13:51:30Z</time>
      </trkpt>
      <trkpt lat="45.955" lon="6.55555">
        <ele>2709.61</ele>
        <time>2010-10-10T13:51:52Z</time>
      </trkpt>
      <trkpt lat="45.955" lon="6.55555">
        <ele>2708.65</ele>
        <time>2010-10-10T13:52:14Z</time>
      </trkpt>
      <trkpt lat="45.955" lon="6.55555">
        <ele>2708.65</ele>
        <time>2010-10-10T13:52:24Z</time>
      </trkpt>
      <trkpt lat="45.955" lon="6.55555">
        <ele>2708.17</ele>
        <time>2010-10-10T13:52:50Z</time>
      </trkpt>
      <trkpt lat="45.955" lon="6.55555">
        <ele>2707.21</ele>
        <time>2010-10-10T13:53:11Z</time>
      </trkpt>
      <trkpt lat="45.955" lon="6.55555">
        <ele>2705.77</ele>
        <time>2010-10-10T13:53:32Z</time>
      </trkpt>
      <trkpt lat="45.95499" lon="6.55552">
        <ele>2704.81</ele>
        <time>2010-10-10T13:53:45Z</time>
      </trkpt>
      <trkpt lat="45.95493" lon="6.55546">
        <ele>2702.88</ele>
        <time>2010-10-10T13:53:59Z</time>
      </trkpt>
      <trkpt lat="45.95481" lon="6.55539">
        <ele>2702.4</ele>
        <time>2010-10-10T13:54:15Z</time>
      </trkpt>
      <trkpt lat="45.95477" lon="6.55536">
        <ele>2701.92</ele>
        <time>2010-10-10T13:54:19Z</time>
      </trkpt>
      <trkpt lat="45.9547" lon="6.55525">
        <ele>2701.44</ele>
        <time>2010-10-10T13:54:34Z</time>
      </trkpt>
      <trkpt lat="45.95466" lon="6.55515">
        <ele>2700.48</ele>
        <time>2010-10-10T13:54:50Z</time>
      </trkpt>
      <trkpt lat="45.95466" lon="6.55515">
        <ele>2700.96</ele>
        <time>2010-10-10T13:55:11Z</time>
      </trkpt>
      <trkpt lat="45.95466" lon="6.55515">
        <ele>2700</ele>
        <time>2010-10-10T13:55:27Z</time>
      </trkpt>
      <trkpt lat="45.95466" lon="6.55515">
        <ele>2699.52</ele>
        <time>2010-10-10T13:55:48Z</time>
      </trkpt>
      <trkpt lat="45.95466" lon="6.55515">
        <ele>2698.56</ele>
        <time>2010-10-10T13:56:09Z</time>
      </trkpt>
      <trkpt lat="45.95466" lon="6.55515">
        <ele>2697.12</ele>
        <time>2010-10-10T13:56:34Z</time>
      </trkpt>
      <trkpt lat="45.95466" lon="6.55515">
        <ele>2696.15</ele>
        <time>2010-10-10T13:56:49Z</time>
      </trkpt>
      <trkpt lat="45.95465" lon="6.55514">
        <ele>2696.15</ele>
        <time>2010-10-10T13:56:52Z</time>
      </trkpt>
      <trkpt lat="45.95466" lon="6.55518">
        <ele>2694.23</ele>
        <time>2010-10-10T13:57:05Z</time>
      </trkpt>
      <trkpt lat="45.95467" lon="6.55513">
        <ele>2692.31</ele>
        <time>2010-10-10T13:57:19Z</time>
      </trkpt>
      <trkpt lat="45.95467" lon="6.5551">
        <ele>2691.35</ele>
        <time>2010-10-10T13:57:33Z</time>
      </trkpt>
      <trkpt lat="45.95469" lon="6.55509">
        <ele>2689.43</ele>
        <time>2010-10-10T13:57:49Z</time>
      </trkpt>
      <trkpt lat="45.95469" lon="6.55509">
        <ele>2686.06</ele>
        <time>2010-10-10T13:58:00Z</time>
      </trkpt>
      <trkpt lat="45.95471" lon="6.55511">
        <ele>2685.58</ele>
        <time>2010-10-10T13:58:03Z</time>
      </trkpt>
      <trkpt lat="45.95474" lon="6.55513">
        <ele>2687.5</ele>
        <time>2010-10-10T13:58:10Z</time>
      </trkpt>
      <trkpt lat="45.95474" lon="6.55513">
        <ele>2683.66</ele>
        <time>2010-10-10T13:58:12Z</time>
      </trkpt>
      <trkpt lat="45.95473" lon="6.55514">
        <ele>2684.14</ele>
        <time>2010-10-10T13:58:13Z</time>
      </trkpt>
      <trkpt lat="45.95477" lon="6.55516">
        <ele>2684.14</ele>
        <time>2010-10-10T13:58:23Z</time>
      </trkpt>
      <trkpt lat="45.95479" lon="6.55517">
        <ele>2684.62</ele>
        <time>2010-10-10T13:58:25Z</time>
      </trkpt>
      <trkpt lat="45.95483" lon="6.55515">
        <ele>2683.66</ele>
        <time>2010-10-10T13:58:32Z</time>
      </trkpt>
      <trkpt lat="45.95485" lon="6.55511">
        <ele>2683.18</ele>
        <time>2010-10-10T13:58:38Z</time>
      </trkpt>
      <trkpt lat="45.9548" lon="6.55499">
        <ele>2679.81</ele>
        <time>2010-10-10T13:58:52Z</time>
      </trkpt>
      <trkpt lat="45.9548" lon="6.55494">
        <ele>2677.89</ele>
        <time>2010-10-10T13:59:05Z</time>
      </trkpt>
      <trkpt lat="45.95479" lon="6.55492">
        <ele>2676.45</ele>
        <time>2010-10-10T13:59:20Z</time>
      </trkpt>
      <trkpt lat="45.95481" lon="6.55495">
        <ele>2674.52</ele>
        <time>2010-10-10T13:59:34Z</time>
      </trkpt>
      <trkpt lat="45.95481" lon="6.55497">
        <ele>2671.64</ele>
        <time>2010-10-10T13:59:49Z</time>
      </trkpt>
      <trkpt lat="45.95485" lon="6.55499">
        <ele>2671.16</ele>
        <time>2010-10-10T14:00:03Z</time>
      </trkpt>
      <trkpt lat="45.95487" lon="6.55499">
        <ele>2669.24</ele>
        <time>2010-10-10T14:00:10Z</time>
      </trkpt>
      <trkpt lat="45.95487" lon="6.55499">
        <ele>2668.76</ele>
        <time>2010-10-10T14:00:11Z</time>
      </trkpt>
      <trkpt lat="45.95488" lon="6.55495">
        <ele>2667.8</ele>
        <time>2010-10-10T14:00:28Z</time>
      </trkpt>
      <trkpt lat="45.9549" lon="6.55494">
        <ele>2666.83</ele>
        <time>2010-10-10T14:00:31Z</time>
      </trkpt>
      <trkpt lat="45.95488" lon="6.55488">
        <ele>2666.35</ele>
        <time>2010-10-10T14:00:44Z</time>
      </trkpt>
      <trkpt lat="45.95488" lon="6.55485">
        <ele>2663.95</ele>
        <time>2010-10-10T14:01:01Z</time>
      </trkpt>
      <trkpt lat="45.95494" lon="6.55488">
        <ele>2662.99</ele>
        <time>2010-10-10T14:01:15Z</time>
      </trkpt>
      <trkpt lat="45.95495" lon="6.5549">
        <ele>2662.51</ele>
        <time>2010-10-10T14:01:32Z</time>
      </trkpt>
      <trkpt lat="45.95495" lon="6.5549">
        <ele>2662.03</ele>
        <time>2010-10-10T14:01:59Z</time>
      </trkpt>
      <trkpt lat="45.95496" lon="6.55491">
        <ele>2662.03</ele>
        <time>2010-10-10T14:02:31Z</time>
      </trkpt>
      <trkpt lat="45.95497" lon="6.55491">
        <ele>2662.51</ele>
        <time>2010-10-10T14:02:45Z</time>
      </trkpt>
      <trkpt lat="45.95501" lon="6.55493">
        <ele>2660.59</ele>
        <time>2010-10-10T14:03:03Z</time>
      </trkpt>
      <trkpt lat="45.95504" lon="6.5549">
        <ele>2659.62</ele>
        <time>2010-10-10T14:03:18Z</time>
      </trkpt>
      <trkpt lat="45.95504" lon="6.5549">
        <ele>2658.66</ele>
        <time>2010-10-10T14:03:38Z</time>
      </trkpt>
      <trkpt lat="45.955" lon="6.55482">
        <ele>2656.74</ele>
        <time>2010-10-10T14:03:56Z</time>
      </trkpt>
      <trkpt lat="45.95499" lon="6.55481">
        <ele>2656.26</ele>
        <time>2010-10-10T14:03:59Z</time>
      </trkpt>
      <trkpt lat="45.95497" lon="6.55475">
        <ele>2650.49</ele>
        <time>2010-10-10T14:04:08Z</time>
      </trkpt>
      <trkpt lat="45.95497" lon="6.55475">
        <ele>2656.74</ele>
        <time>2010-10-10T14:04:09Z</time>
      </trkpt>
      <trkpt lat="45.95498" lon="6.55474">
        <ele>2655.3</ele>
        <time>2010-10-10T14:04:29Z</time>
      </trkpt>
      <trkpt lat="45.95497" lon="6.55474">
        <ele>2655.3</ele>
        <time>2010-10-10T14:04:58Z</time>
      </trkpt>
      <trkpt lat="45.95497" lon="6.55472">
        <ele>2653.38</ele>
        <time>2010-10-10T14:05:16Z</time>
      </trkpt>
      <trkpt lat="45.95493" lon="6.55466">
        <ele>2650.97</ele>
        <time>2010-10-10T14:05:34Z</time>
      </trkpt>
      <trkpt lat="45.95496" lon="6.55465">
        <ele>2649.05</ele>
        <time>2010-10-10T14:05:51Z</time>
      </trkpt>
      <trkpt lat="45.95496" lon="6.55465">
        <ele>2647.13</ele>
        <time>2010-10-10T14:06:09Z</time>
      </trkpt>
      <trkpt lat="45.95496" lon="6.55465">
        <ele>2645.69</ele>
        <time>2010-10-10T14:06:27Z</time>
      </trkpt>
      <trkpt lat="45.95498" lon="6.55464">
        <ele>2643.76</ele>
        <time>2010-10-10T14:06:43Z</time>
      </trkpt>
      <trkpt lat="45.95499" lon="6.55465">
        <ele>2641.36</ele>
        <time>2010-10-10T14:07:02Z</time>
      </trkpt>
      <trkpt lat="45.95499" lon="6.55465">
        <ele>2640.88</ele>
        <time>2010-10-10T14:07:22Z</time>
      </trkpt>
      <trkpt lat="45.95501" lon="6.55463">
        <ele>2639.92</ele>
        <time>2010-10-10T14:07:43Z</time>
      </trkpt>
      <trkpt lat="45.95502" lon="6.55462">
        <ele>2638.48</ele>
        <time>2010-10-10T14:07:51Z</time>
      </trkpt>
      <trkpt lat="45.95509" lon="6.5546">
        <ele>2637.51</ele>
        <time>2010-10-10T14:07:58Z</time>
      </trkpt>
      <trkpt lat="45.95518" lon="6.55457">
        <ele>2637.51</ele>
        <time>2010-10-10T14:08:15Z</time>
      </trkpt>
      <trkpt lat="45.95522" lon="6.55463">
        <ele>2636.55</ele>
        <time>2010-10-10T14:08:30Z</time>
      </trkpt>
      <trkpt lat="45.95525" lon="6.55466">
        <ele>2635.11</ele>
        <time>2010-10-10T14:08:46Z</time>
      </trkpt>
      <trkpt lat="45.95525" lon="6.55466">
        <ele>2633.19</ele>
        <time>2010-10-10T14:09:06Z</time>
      </trkpt>
      <trkpt lat="45.95526" lon="6.55466">
        <ele>2631.75</ele>
        <time>2010-10-10T14:09:24Z</time>
      </trkpt>
      <trkpt lat="45.95531" lon="6.55466">
        <ele>2629.82</ele>
        <time>2010-10-10T14:09:41Z</time>
      </trkpt>
      <trkpt lat="45.95532" lon="6.55466">
        <ele>2629.34</ele>
        <time>2010-10-10T14:09:46Z</time>
      </trkpt>
      <trkpt lat="45.95534" lon="6.55467">
        <ele>2629.34</ele>
        <time>2010-10-10T14:10:03Z</time>
      </trkpt>
      <trkpt lat="45.95534" lon="6.55467">
        <ele>2627.9</ele>
        <time>2010-10-10T14:10:27Z</time>
      </trkpt>
      <trkpt lat="45.95534" lon="6.55468">
        <ele>2628.38</ele>
        <time>2010-10-10T14:10:57Z</time>
      </trkpt>
      <trkpt lat="45.95534" lon="6.55468">
        <ele>2627.9</ele>
        <time>2010-10-10T14:11:25Z</time>
      </trkpt>
      <trkpt lat="45.95534" lon="6.55468">
        <ele>2625.98</ele>
        <time>2010-10-10T14:11:50Z</time>
      </trkpt>
      <trkpt lat="45.95536" lon="6.5547">
        <ele>2625.02</ele>
        <time>2010-10-10T14:12:15Z</time>
      </trkpt>
      <trkpt lat="45.95539" lon="6.55473">
        <ele>2623.58</ele>
        <time>2010-10-10T14:12:31Z</time>
      </trkpt>
      <trkpt lat="45.95542" lon="6.55478">
        <ele>2623.09</ele>
        <time>2010-10-10T14:13:01Z</time>
      </trkpt>
      <trkpt lat="45.95544" lon="6.55475">
        <ele>2621.17</ele>
        <time>2010-10-10T14:13:21Z</time>
      </trkpt>
      <trkpt lat="45.95545" lon="6.55474">
        <ele>2620.69</ele>
        <time>2010-10-10T14:13:39Z</time>
      </trkpt>
      <trkpt lat="45.95547" lon="6.55471">
        <ele>2620.21</ele>
        <time>2010-10-10T14:14:02Z</time>
      </trkpt>
      <trkpt lat="45.95547" lon="6.55471">
        <ele>2618.29</ele>
        <time>2010-10-10T14:14:26Z</time>
      </trkpt>
      <trkpt lat="45.95547" lon="6.55471">
        <ele>2617.81</ele>
        <time>2010-10-10T14:14:55Z</time>
      </trkpt>
      <trkpt lat="45.95548" lon="6.55468">
        <ele>2616.37</ele>
        <time>2010-10-10T14:15:14Z</time>
      </trkpt>
      <trkpt lat="45.95545" lon="6.5547">
        <ele>2616.85</ele>
        <time>2010-10-10T14:15:32Z</time>
      </trkpt>
      <trkpt lat="45.95543" lon="6.55471">
        <ele>2617.33</ele>
        <time>2010-10-10T14:15:37Z</time>
      </trkpt>
      <trkpt lat="45.95543" lon="6.55469">
        <ele>2617.33</ele>
        <time>2010-10-10T14:15:44Z</time>
      </trkpt>
      <trkpt lat="45.95541" lon="6.55459">
        <ele>2615.4</ele>
        <time>2010-10-10T14:15:51Z</time>
      </trkpt>
      <trkpt lat="45.9554" lon="6.55459">
        <ele>2614.44</ele>
        <time>2010-10-10T14:16:08Z</time>
      </trkpt>
      <trkpt lat="45.95544" lon="6.55463">
        <ele>2612.04</ele>
        <time>2010-10-10T14:16:27Z</time>
      </trkpt>
      <trkpt lat="45.95545" lon="6.55463">
        <ele>2609.16</ele>
        <time>2010-10-10T14:16:44Z</time>
      </trkpt>
      <trkpt lat="45.95546" lon="6.55466">
        <ele>2610.12</ele>
        <time>2010-10-10T14:17:04Z</time>
      </trkpt>
      <trkpt lat="45.95547" lon="6.5547">
        <ele>2600.98</ele>
        <time>2010-10-10T14:17:09Z</time>
      </trkpt>
      <trkpt lat="45.95547" lon="6.5547">
        <ele>2611.08</ele>
        <time>2010-10-10T14:17:10Z</time>
      </trkpt>
      <trkpt lat="45.95548" lon="6.55471">
        <ele>2608.67</ele>
        <time>2010-10-10T14:17:27Z</time>
      </trkpt>
      <trkpt lat="45.95553" lon="6.55471">
        <ele>2606.27</ele>
        <time>2010-10-10T14:17:43Z</time>
      </trkpt>
      <trkpt lat="45.95554" lon="6.55471">
        <ele>2604.83</ele>
        <time>2010-10-10T14:18:00Z</time>
      </trkpt>
      <trkpt lat="45.95553" lon="6.5547">
        <ele>2603.39</ele>
        <time>2010-10-10T14:18:15Z</time>
      </trkpt>
      <trkpt lat="45.95557" lon="6.55467">
        <ele>2602.43</ele>
        <time>2010-10-10T14:18:30Z</time>
      </trkpt>
      <trkpt lat="45.95554" lon="6.55465">
        <ele>2601.46</ele>
        <time>2010-10-10T14:18:40Z</time>
      </trkpt>
      <trkpt lat="45.95551" lon="6.55462">
        <ele>2600.5</ele>
        <time>2010-10-10T14:18:58Z</time>
      </trkpt>
      <trkpt lat="45.9555" lon="6.5546">
        <ele>2599.06</ele>
        <time>2010-10-10T14:19:16Z</time>
      </trkpt>
      <trkpt lat="45.9555" lon="6.5546">
        <ele>2598.1</ele>
        <time>2010-10-10T14:19:21Z</time>
      </trkpt>
      <trkpt lat="45.95551" lon="6.55458">
        <ele>2598.58</ele>
        <time>2010-10-10T14:19:25Z</time>
      </trkpt>
      <trkpt lat="45.95556" lon="6.55452">
        <ele>2595.22</ele>
        <time>2010-10-10T14:19:43Z</time>
      </trkpt>
      <trkpt lat="45.95557" lon="6.55452">
        <ele>2593.29</ele>
        <time>2010-10-10T14:19:57Z</time>
      </trkpt>
      <trkpt lat="45.95559" lon="6.55451">
        <ele>2590.41</ele>
        <time>2010-10-10T14:20:10Z</time>
      </trkpt>
      <trkpt lat="45.9556" lon="6.55451">
        <ele>2591.37</ele>
        <time>2010-10-10T14:20:12Z</time>
      </trkpt>
      <trkpt lat="45.95561" lon="6.5545">
        <ele>2590.89</ele>
        <time>2010-10-10T14:20:14Z</time>
      </trkpt>
      <trkpt lat="45.95561" lon="6.5545">
        <ele>2589.45</ele>
        <time>2010-10-10T14:20:30Z</time>
      </trkpt>
      <trkpt lat="45.95561" lon="6.5545">
        <ele>2585.6</ele>
        <time>2010-10-10T14:20:47Z</time>
      </trkpt>
      <trkpt lat="45.95561" lon="6.5545">
        <ele>2589.93</ele>
        <time>2010-10-10T14:20:49Z</time>
      </trkpt>
      <trkpt lat="45.95561" lon="6.5545">
        <ele>2587.04</ele>
        <time>2010-10-10T14:20:57Z</time>
      </trkpt>
      <trkpt lat="45.95567" lon="6.55444">
        <ele>2584.64</ele>
        <time>2010-10-10T14:21:13Z</time>
      </trkpt>
      <trkpt lat="45.95569" lon="6.5544">
        <ele>2583.2</ele>
        <time>2010-10-10T14:21:27Z</time>
      </trkpt>
      <trkpt lat="45.95575" lon="6.55439">
        <ele>2581.28</ele>
        <time>2010-10-10T14:21:41Z</time>
      </trkpt>
      <trkpt lat="45.95575" lon="6.55439">
        <ele>2578.39</ele>
        <time>2010-10-10T14:21:45Z</time>
      </trkpt>
      <trkpt lat="45.95576" lon="6.5544">
        <ele>2584.64</ele>
        <time>2010-10-10T14:21:46Z</time>
      </trkpt>
      <trkpt lat="45.95576" lon="6.5544">
        <ele>2581.28</ele>
        <time>2010-10-10T14:21:47Z</time>
      </trkpt>
      <trkpt lat="45.95577" lon="6.5544">
        <ele>2579.84</ele>
        <time>2010-10-10T14:21:49Z</time>
      </trkpt>
      <trkpt lat="45.95579" lon="6.5544">
        <ele>2577.91</ele>
        <time>2010-10-10T14:22:02Z</time>
      </trkpt>
      <trkpt lat="45.95581" lon="6.55438">
        <ele>2575.99</ele>
        <time>2010-10-10T14:22:17Z</time>
      </trkpt>
      <trkpt lat="45.95582" lon="6.55438">
        <ele>2573.59</ele>
        <time>2010-10-10T14:22:36Z</time>
      </trkpt>
      <trkpt lat="45.95585" lon="6.55434">
        <ele>2571.66</ele>
        <time>2010-10-10T14:22:52Z</time>
      </trkpt>
      <trkpt lat="45.9559" lon="6.55432">
        <ele>2569.74</ele>
        <time>2010-10-10T14:23:06Z</time>
      </trkpt>
      <trkpt lat="45.95589" lon="6.5543">
        <ele>2567.34</ele>
        <time>2010-10-10T14:23:19Z</time>
      </trkpt>
      <trkpt lat="45.95589" lon="6.55429">
        <ele>2568.78</ele>
        <time>2010-10-10T14:23:20Z</time>
      </trkpt>
      <trkpt lat="45.95589" lon="6.55427">
        <ele>2568.78</ele>
        <time>2010-10-10T14:23:37Z</time>
      </trkpt>
      <trkpt lat="45.95589" lon="6.55426">
        <ele>2567.82</ele>
        <time>2010-10-10T14:24:12Z</time>
      </trkpt>
      <trkpt lat="45.9559" lon="6.55426">
        <ele>2568.3</ele>
        <time>2010-10-10T14:24:30Z</time>
      </trkpt>
      <trkpt lat="45.95589" lon="6.55425">
        <ele>2568.3</ele>
        <time>2010-10-10T14:24:52Z</time>
      </trkpt>
      <trkpt lat="45.95589" lon="6.55425">
        <ele>2568.3</ele>
        <time>2010-10-10T14:25:15Z</time>
      </trkpt>
      <trkpt lat="45.95589" lon="6.55425">
        <ele>2568.78</ele>
        <time>2010-10-10T14:25:43Z</time>
      </trkpt>
      <trkpt lat="45.95589" lon="6.55425">
        <ele>2568.3</ele>
        <time>2010-10-10T14:26:18Z</time>
      </trkpt>
      <trkpt lat="45.95589" lon="6.55425">
        <ele>2568.3</ele>
        <time>2010-10-10T14:26:43Z</time>
      </trkpt>
      <trkpt lat="45.95589" lon="6.55425">
        <ele>2568.3</ele>
        <time>2010-10-10T14:27:09Z</time>
      </trkpt>
      <trkpt lat="45.95591" lon="6.5542">
        <ele>2565.42</ele>
        <time>2010-10-10T14:27:25Z</time>
      </trkpt>
      <trkpt lat="45.95592" lon="6.55419">
        <ele>2564.45</ele>
        <time>2010-10-10T14:27:41Z</time>
      </trkpt>
      <trkpt lat="45.95592" lon="6.55419">
        <ele>2562.53</ele>
        <time>2010-10-10T14:27:53Z</time>
      </trkpt>
      <trkpt lat="45.95591" lon="6.55407">
        <ele>2560.13</ele>
        <time>2010-10-10T14:28:05Z</time>
      </trkpt>
      <trkpt lat="45.95597" lon="6.554">
        <ele>2557.24</ele>
        <time>2010-10-10T14:28:20Z</time>
      </trkpt>
      <trkpt lat="45.95599" lon="6.55399">
        <ele>2555.8</ele>
        <time>2010-10-10T14:28:35Z</time>
      </trkpt>
      <trkpt lat="45.95599" lon="6.55397">
        <ele>2552.44</ele>
        <time>2010-10-10T14:28:48Z</time>
      </trkpt>
      <trkpt lat="45.95601" lon="6.55391">
        <ele>2551.48</ele>
        <time>2010-10-10T14:29:02Z</time>
      </trkpt>
      <trkpt lat="45.95603" lon="6.55384">
        <ele>2547.63</ele>
        <time>2010-10-10T14:29:16Z</time>
      </trkpt>
      <trkpt lat="45.95605" lon="6.5538">
        <ele>2545.71</ele>
        <time>2010-10-10T14:29:28Z</time>
      </trkpt>
      <trkpt lat="45.95608" lon="6.55377">
        <ele>2543.79</ele>
        <time>2010-10-10T14:29:33Z</time>
      </trkpt>
      <trkpt lat="45.95613" lon="6.55369">
        <ele>2541.38</ele>
        <time>2010-10-10T14:29:46Z</time>
      </trkpt>
      <trkpt lat="45.95616" lon="6.55367">
        <ele>2539.46</ele>
        <time>2010-10-10T14:30:00Z</time>
      </trkpt>
      <trkpt lat="45.95617" lon="6.55364">
        <ele>2537.06</ele>
        <time>2010-10-10T14:30:09Z</time>
      </trkpt>
      <trkpt lat="45.9562" lon="6.55358">
        <ele>2534.17</ele>
        <time>2010-10-10T14:30:23Z</time>
      </trkpt>
      <trkpt lat="45.95623" lon="6.5535">
        <ele>2531.29</ele>
        <time>2010-10-10T14:30:33Z</time>
      </trkpt>
      <trkpt lat="45.9563" lon="6.55344">
        <ele>2528.89</ele>
        <time>2010-10-10T14:30:47Z</time>
      </trkpt>
      <trkpt lat="45.95632" lon="6.5534">
        <ele>2525.52</ele>
        <time>2010-10-10T14:30:59Z</time>
      </trkpt>
      <trkpt lat="45.95634" lon="6.55339">
        <ele>2524.08</ele>
        <time>2010-10-10T14:31:08Z</time>
      </trkpt>
      <trkpt lat="45.95637" lon="6.55335">
        <ele>2522.64</ele>
        <time>2010-10-10T14:31:22Z</time>
      </trkpt>
      <trkpt lat="45.95638" lon="6.55336">
        <ele>2515.43</ele>
        <time>2010-10-10T14:31:33Z</time>
      </trkpt>
      <trkpt lat="45.95638" lon="6.55336">
        <ele>2522.64</ele>
        <time>2010-10-10T14:31:34Z</time>
      </trkpt>
      <trkpt lat="45.95639" lon="6.55334">
        <ele>2521.19</ele>
        <time>2010-10-10T14:31:40Z</time>
      </trkpt>
      <trkpt lat="45.95642" lon="6.5533">
        <ele>2520.23</ele>
        <time>2010-10-10T14:31:50Z</time>
      </trkpt>
      <trkpt lat="45.95644" lon="6.55326">
        <ele>2517.83</ele>
        <time>2010-10-10T14:32:04Z</time>
      </trkpt>
      <trkpt lat="45.95645" lon="6.55319">
        <ele>2514.95</ele>
        <time>2010-10-10T14:32:15Z</time>
      </trkpt>
      <trkpt lat="45.95645" lon="6.55313">
        <ele>2512.54</ele>
        <time>2010-10-10T14:32:29Z</time>
      </trkpt>
      <trkpt lat="45.95648" lon="6.5531">
        <ele>2510.14</ele>
        <time>2010-10-10T14:32:43Z</time>
      </trkpt>
      <trkpt lat="45.95649" lon="6.55303">
        <ele>2506.77</ele>
        <time>2010-10-10T14:32:58Z</time>
      </trkpt>
      <trkpt lat="45.95651" lon="6.55297">
        <ele>2504.37</ele>
        <time>2010-10-10T14:33:10Z</time>
      </trkpt>
      <trkpt lat="45.95653" lon="6.55292">
        <ele>2502.93</ele>
        <time>2010-10-10T14:33:22Z</time>
      </trkpt>
      <trkpt lat="45.95654" lon="6.55289">
        <ele>2499.57</ele>
        <time>2010-10-10T14:33:37Z</time>
      </trkpt>
      <trkpt lat="45.95656" lon="6.55284">
        <ele>2498.6</ele>
        <time>2010-10-10T14:33:41Z</time>
      </trkpt>
      <trkpt lat="45.95655" lon="6.55281">
        <ele>2497.64</ele>
        <time>2010-10-10T14:33:57Z</time>
      </trkpt>
      <trkpt lat="45.95656" lon="6.55281">
        <ele>2497.64</ele>
        <time>2010-10-10T14:34:17Z</time>
      </trkpt>
      <trkpt lat="45.95661" lon="6.55277">
        <ele>2496.2</ele>
        <time>2010-10-10T14:34:33Z</time>
      </trkpt>
      <trkpt lat="45.95663" lon="6.55269">
        <ele>2492.84</ele>
        <time>2010-10-10T14:34:45Z</time>
      </trkpt>
      <trkpt lat="45.95663" lon="6.55266">
        <ele>2491.87</ele>
        <time>2010-10-10T14:34:51Z</time>
      </trkpt>
      <trkpt lat="45.9565" lon="6.55264">
        <ele>2489.47</ele>
        <time>2010-10-10T14:35:06Z</time>
      </trkpt>
      <trkpt lat="45.95648" lon="6.55263">
        <ele>2487.07</ele>
        <time>2010-10-10T14:35:19Z</time>
      </trkpt>
      <trkpt lat="45.95646" lon="6.55265">
        <ele>2485.63</ele>
        <time>2010-10-10T14:35:36Z</time>
      </trkpt>
      <trkpt lat="45.95646" lon="6.55265">
        <ele>2483.22</ele>
        <time>2010-10-10T14:35:43Z</time>
      </trkpt>
      <trkpt lat="45.95646" lon="6.55265">
        <ele>2487.55</ele>
        <time>2010-10-10T14:35:47Z</time>
      </trkpt>
      <trkpt lat="45.95644" lon="6.55266">
        <ele>2484.18</ele>
        <time>2010-10-10T14:35:50Z</time>
      </trkpt>
      <trkpt lat="45.95643" lon="6.5526">
        <ele>2481.78</ele>
        <time>2010-10-10T14:36:07Z</time>
      </trkpt>
      <trkpt lat="45.95641" lon="6.55258">
        <ele>2480.34</ele>
        <time>2010-10-10T14:36:21Z</time>
      </trkpt>
      <trkpt lat="45.95641" lon="6.55258">
        <ele>2480.34</ele>
        <time>2010-10-10T14:36:51Z</time>
      </trkpt>
      <trkpt lat="45.95641" lon="6.55259">
        <ele>2480.82</ele>
        <time>2010-10-10T14:37:21Z</time>
      </trkpt>
      <trkpt lat="45.95643" lon="6.55253">
        <ele>2477.94</ele>
        <time>2010-10-10T14:37:38Z</time>
      </trkpt>
      <trkpt lat="45.95646" lon="6.55247">
        <ele>2475.05</ele>
        <time>2010-10-10T14:37:51Z</time>
      </trkpt>
      <trkpt lat="45.95646" lon="6.55247">
        <ele>2473.61</ele>
        <time>2010-10-10T14:38:08Z</time>
      </trkpt>
      <trkpt lat="45.95646" lon="6.55241">
        <ele>2470.24</ele>
        <time>2010-10-10T14:38:20Z</time>
      </trkpt>
      <trkpt lat="45.95645" lon="6.55235">
        <ele>2468.8</ele>
        <time>2010-10-10T14:38:33Z</time>
      </trkpt>
      <trkpt lat="45.95643" lon="6.55229">
        <ele>2465.92</ele>
        <time>2010-10-10T14:38:45Z</time>
      </trkpt>
      <trkpt lat="45.95638" lon="6.55227">
        <ele>2464</ele>
        <time>2010-10-10T14:39:01Z</time>
      </trkpt>
      <trkpt lat="45.95639" lon="6.55225">
        <ele>2462.55</ele>
        <time>2010-10-10T14:39:24Z</time>
      </trkpt>
      <trkpt lat="45.95637" lon="6.5522">
        <ele>2461.11</ele>
        <time>2010-10-10T14:39:40Z</time>
      </trkpt>
      <trkpt lat="45.95632" lon="6.55222">
        <ele>2459.67</ele>
        <time>2010-10-10T14:39:57Z</time>
      </trkpt>
      <trkpt lat="45.9563" lon="6.55222">
        <ele>2456.79</ele>
        <time>2010-10-10T14:40:12Z</time>
      </trkpt>
      <trkpt lat="45.9563" lon="6.55222">
        <ele>2455.34</ele>
        <time>2010-10-10T14:40:31Z</time>
      </trkpt>
      <trkpt lat="45.9563" lon="6.55222">
        <ele>2454.86</ele>
        <time>2010-10-10T14:40:48Z</time>
      </trkpt>
      <trkpt lat="45.95629" lon="6.55222">
        <ele>2454.86</ele>
        <time>2010-10-10T14:41:12Z</time>
      </trkpt>
      <trkpt lat="45.95629" lon="6.55223">
        <ele>2452.46</ele>
        <time>2010-10-10T14:41:33Z</time>
      </trkpt>
      <trkpt lat="45.95629" lon="6.55222">
        <ele>2449.1</ele>
        <time>2010-10-10T14:41:45Z</time>
      </trkpt>
      <trkpt lat="45.95626" lon="6.55222">
        <ele>2447.65</ele>
        <time>2010-10-10T14:41:52Z</time>
      </trkpt>
      <trkpt lat="45.95623" lon="6.55223">
        <ele>2448.13</ele>
        <time>2010-10-10T14:41:55Z</time>
      </trkpt>
      <trkpt lat="45.95622" lon="6.55223">
        <ele>2447.65</ele>
        <time>2010-10-10T14:42:17Z</time>
      </trkpt>
      <trkpt lat="45.95622" lon="6.55223">
        <ele>2444.77</ele>
        <time>2010-10-10T14:42:35Z</time>
      </trkpt>
      <trkpt lat="45.95607" lon="6.55227">
        <ele>2443.81</ele>
        <time>2010-10-10T14:42:44Z</time>
      </trkpt>
      <trkpt lat="45.95603" lon="6.55224">
        <ele>2443.33</ele>
        <time>2010-10-10T14:42:47Z</time>
      </trkpt>
      <trkpt lat="45.95598" lon="6.55215">
        <ele>2440.44</ele>
        <time>2010-10-10T14:43:01Z</time>
      </trkpt>
      <trkpt lat="45.95598" lon="6.55213">
        <ele>2439</ele>
        <time>2010-10-10T14:43:08Z</time>
      </trkpt>
      <trkpt lat="45.95597" lon="6.55211">
        <ele>2438.52</ele>
        <time>2010-10-10T14:43:28Z</time>
      </trkpt>
      <trkpt lat="45.95597" lon="6.55211">
        <ele>2437.08</ele>
        <time>2010-10-10T14:43:57Z</time>
      </trkpt>
      <trkpt lat="45.95597" lon="6.55211">
        <ele>2437.08</ele>
        <time>2010-10-10T14:44:22Z</time>
      </trkpt>
      <trkpt lat="45.95595" lon="6.5521">
        <ele>2435.64</ele>
        <time>2010-10-10T14:44:40Z</time>
      </trkpt>
      <trkpt lat="45.95595" lon="6.5521">
        <ele>2433.23</ele>
        <time>2010-10-10T14:44:56Z</time>
      </trkpt>
      <trkpt lat="45.95595" lon="6.55209">
        <ele>2432.27</ele>
        <time>2010-10-10T14:45:14Z</time>
      </trkpt>
      <trkpt lat="45.95595" lon="6.55209">
        <ele>2430.35</ele>
        <time>2010-10-10T14:45:27Z</time>
      </trkpt>
      <trkpt lat="45.95595" lon="6.55209">
        <ele>2429.39</ele>
        <time>2010-10-10T14:45:30Z</time>
      </trkpt>
      <trkpt lat="45.95591" lon="6.55211">
        <ele>2428.43</ele>
        <time>2010-10-10T14:45:45Z</time>
      </trkpt>
      <trkpt lat="45.95591" lon="6.55211">
        <ele>2425.54</ele>
        <time>2010-10-10T14:46:00Z</time>
      </trkpt>
      <trkpt lat="45.95591" lon="6.55208">
        <ele>2425.06</ele>
        <time>2010-10-10T14:46:14Z</time>
      </trkpt>
      <trkpt lat="45.9559" lon="6.55206">
        <ele>2424.58</ele>
        <time>2010-10-10T14:46:27Z</time>
      </trkpt>
      <trkpt lat="45.95591" lon="6.55202">
        <ele>2422.18</ele>
        <time>2010-10-10T14:46:39Z</time>
      </trkpt>
      <trkpt lat="45.95589" lon="6.55202">
        <ele>2420.74</ele>
        <time>2010-10-10T14:46:52Z</time>
      </trkpt>
      <trkpt lat="45.95588" lon="6.55201">
        <ele>2418.81</ele>
        <time>2010-10-10T14:47:07Z</time>
      </trkpt>
      <trkpt lat="45.95588" lon="6.55198">
        <ele>2417.37</ele>
        <time>2010-10-10T14:47:21Z</time>
      </trkpt>
      <trkpt lat="45.95587" lon="6.55196">
        <ele>2415.45</ele>
        <time>2010-10-10T14:47:36Z</time>
      </trkpt>
      <trkpt lat="45.95587" lon="6.55195">
        <ele>2414.01</ele>
        <time>2010-10-10T14:47:49Z</time>
      </trkpt>
      <trkpt lat="45.95589" lon="6.55194">
        <ele>2411.12</ele>
        <time>2010-10-10T14:48:01Z</time>
      </trkpt>
      <trkpt lat="45.9559" lon="6.55193">
        <ele>2410.64</ele>
        <time>2010-10-10T14:48:18Z</time>
      </trkpt>
      <trkpt lat="45.95591" lon="6.55194">
        <ele>2409.68</ele>
        <time>2010-10-10T14:48:40Z</time>
      </trkpt>
      <trkpt lat="45.95591" lon="6.55191">
        <ele>2406.8</ele>
        <time>2010-10-10T14:49:02Z</time>
      </trkpt>
      <trkpt lat="45.95592" lon="6.55189">
        <ele>2405.84</ele>
        <time>2010-10-10T14:49:16Z</time>
      </trkpt>
      <trkpt lat="45.95591" lon="6.55191">
        <ele>2407.28</ele>
        <time>2010-10-10T14:49:19Z</time>
      </trkpt>
      <trkpt lat="45.95589" lon="6.552">
        <ele>2408.24</ele>
        <time>2010-10-10T14:49:26Z</time>
      </trkpt>
      <trkpt lat="45.95584" lon="6.55202">
        <ele>2406.8</ele>
        <time>2010-10-10T14:49:37Z</time>
      </trkpt>
      <trkpt lat="45.9559" lon="6.55194">
        <ele>2404.88</ele>
        <time>2010-10-10T14:49:54Z</time>
      </trkpt>
      <trkpt lat="45.95588" lon="6.55188">
        <ele>2403.43</ele>
        <time>2010-10-10T14:50:07Z</time>
      </trkpt>
      <trkpt lat="45.95588" lon="6.55188">
        <ele>2402.95</ele>
        <time>2010-10-10T14:50:23Z</time>
      </trkpt>
      <trkpt lat="45.95587" lon="6.55189">
        <ele>2391.9</ele>
        <time>2010-10-10T14:50:29Z</time>
      </trkpt>
      <trkpt lat="45.95587" lon="6.55189">
        <ele>2402.47</ele>
        <time>2010-10-10T14:50:30Z</time>
      </trkpt>
      <trkpt lat="45.95587" lon="6.55189">
        <ele>2401.51</ele>
        <time>2010-10-10T14:51:00Z</time>
      </trkpt>
      <trkpt lat="45.95587" lon="6.55189">
        <ele>2401.99</ele>
        <time>2010-10-10T14:51:35Z</time>
      </trkpt>
      <trkpt lat="45.95587" lon="6.55189">
        <ele>2401.99</ele>
        <time>2010-10-10T14:52:09Z</time>
      </trkpt>
      <trkpt lat="45.95587" lon="6.55189">
        <ele>2401.51</ele>
        <time>2010-10-10T14:52:47Z</time>
      </trkpt>
      <trkpt lat="45.95587" lon="6.55189">
        <ele>2400.55</ele>
        <time>2010-10-10T14:53:20Z</time>
      </trkpt>
      <trkpt lat="45.95587" lon="6.55189">
        <ele>2401.99</ele>
        <time>2010-10-10T14:53:41Z</time>
      </trkpt>
      <trkpt lat="45.95585" lon="6.55185">
        <ele>2399.11</ele>
        <time>2010-10-10T14:53:55Z</time>
      </trkpt>
      <trkpt lat="45.95585" lon="6.55178">
        <ele>2396.7</ele>
        <time>2010-10-10T14:54:00Z</time>
      </trkpt>
      <trkpt lat="45.95585" lon="6.55175">
        <ele>2395.74</ele>
        <time>2010-10-10T14:54:02Z</time>
      </trkpt>
      <trkpt lat="45.95585" lon="6.5517">
        <ele>2392.38</ele>
        <time>2010-10-10T14:54:08Z</time>
      </trkpt>
      <trkpt lat="45.95585" lon="6.55169">
        <ele>2392.38</ele>
        <time>2010-10-10T14:54:09Z</time>
      </trkpt>
      <trkpt lat="45.95584" lon="6.55167">
        <ele>2391.42</ele>
        <time>2010-10-10T14:54:10Z</time>
      </trkpt>
      <trkpt lat="45.95582" lon="6.55156">
        <ele>2388.05</ele>
        <time>2010-10-10T14:54:17Z</time>
      </trkpt>
      <trkpt lat="45.95582" lon="6.55147">
        <ele>2384.69</ele>
        <time>2010-10-10T14:54:24Z</time>
      </trkpt>
      <trkpt lat="45.95582" lon="6.55141">
        <ele>2382.76</ele>
        <time>2010-10-10T14:54:28Z</time>
      </trkpt>
      <trkpt lat="45.95581" lon="6.55134">
        <ele>2380.36</ele>
        <time>2010-10-10T14:54:33Z</time>
      </trkpt>
      <trkpt lat="45.95582" lon="6.55131">
        <ele>2379.4</ele>
        <time>2010-10-10T14:54:35Z</time>
      </trkpt>
      <trkpt lat="45.95583" lon="6.55128">
        <ele>2377.96</ele>
        <time>2010-10-10T14:54:37Z</time>
      </trkpt>
      <trkpt lat="45.95584" lon="6.55126">
        <ele>2374.59</ele>
        <time>2010-10-10T14:54:43Z</time>
      </trkpt>
      <trkpt lat="45.95584" lon="6.55126">
        <ele>2374.11</ele>
        <time>2010-10-10T14:54:44Z</time>
      </trkpt>
      <trkpt lat="45.95586" lon="6.55117">
        <ele>2371.71</ele>
        <time>2010-10-10T14:54:50Z</time>
      </trkpt>
      <trkpt lat="45.95587" lon="6.55113">
        <ele>2369.31</ele>
        <time>2010-10-10T14:54:54Z</time>
      </trkpt>
      <trkpt lat="45.95589" lon="6.55107">
        <ele>2366.9</ele>
        <time>2010-10-10T14:54:58Z</time>
      </trkpt>
      <trkpt lat="45.9559" lon="6.55104">
        <ele>2365.46</ele>
        <time>2010-10-10T14:55:01Z</time>
      </trkpt>
      <trkpt lat="45.9559" lon="6.55098">
        <ele>2364.02</ele>
        <time>2010-10-10T14:55:05Z</time>
      </trkpt>
      <trkpt lat="45.9559" lon="6.55096">
        <ele>2362.58</ele>
        <time>2010-10-10T14:55:06Z</time>
      </trkpt>
      <trkpt lat="45.95591" lon="6.55092">
        <ele>2361.62</ele>
        <time>2010-10-10T14:55:09Z</time>
      </trkpt>
      <trkpt lat="45.95591" lon="6.55089">
        <ele>2360.65</ele>
        <time>2010-10-10T14:55:11Z</time>
      </trkpt>
      <trkpt lat="45.95589" lon="6.55085">
        <ele>2358.25</ele>
        <time>2010-10-10T14:55:15Z</time>
      </trkpt>
      <trkpt lat="45.95589" lon="6.55084">
        <ele>2358.25</ele>
        <time>2010-10-10T14:55:16Z</time>
      </trkpt>
      <trkpt lat="45.9559" lon="6.5508">
        <ele>2356.81</ele>
        <time>2010-10-10T14:55:19Z</time>
      </trkpt>
      <trkpt lat="45.95586" lon="6.55074">
        <ele>2353.44</ele>
        <time>2010-10-10T14:55:29Z</time>
      </trkpt>
      <trkpt lat="45.95586" lon="6.55074">
        <ele>2358.25</ele>
        <time>2010-10-10T14:55:38Z</time>
      </trkpt>
      <trkpt lat="45.95586" lon="6.55074">
        <ele>2353.93</ele>
        <time>2010-10-10T14:55:39Z</time>
      </trkpt>
      <trkpt lat="45.95587" lon="6.55071">
        <ele>2352.48</ele>
        <time>2010-10-10T14:55:44Z</time>
      </trkpt>
      <trkpt lat="45.95588" lon="6.55063">
        <ele>2350.08</ele>
        <time>2010-10-10T14:55:51Z</time>
      </trkpt>
      <trkpt lat="45.95587" lon="6.55061">
        <ele>2348.64</ele>
        <time>2010-10-10T14:55:53Z</time>
      </trkpt>
      <trkpt lat="45.95583" lon="6.55054">
        <ele>2345.27</ele>
        <time>2010-10-10T14:55:58Z</time>
      </trkpt>
      <trkpt lat="45.95581" lon="6.5505">
        <ele>2344.31</ele>
        <time>2010-10-10T14:56:01Z</time>
      </trkpt>
      <trkpt lat="45.95583" lon="6.55041">
        <ele>2341.91</ele>
        <time>2010-10-10T14:56:12Z</time>
      </trkpt>
      <trkpt lat="45.95585" lon="6.55039">
        <ele>2340.95</ele>
        <time>2010-10-10T14:56:14Z</time>
      </trkpt>
      <trkpt lat="45.95588" lon="6.55034">
        <ele>2337.58</ele>
        <time>2010-10-10T14:56:28Z</time>
      </trkpt>
      <trkpt lat="45.95587" lon="6.55025">
        <ele>2334.22</ele>
        <time>2010-10-10T14:56:39Z</time>
      </trkpt>
      <trkpt lat="45.95587" lon="6.55024">
        <ele>2334.22</ele>
        <time>2010-10-10T14:56:40Z</time>
      </trkpt>
      <trkpt lat="45.9559" lon="6.5502">
        <ele>2332.78</ele>
        <time>2010-10-10T14:56:45Z</time>
      </trkpt>
      <trkpt lat="45.9559" lon="6.55018">
        <ele>2332.3</ele>
        <time>2010-10-10T14:56:47Z</time>
      </trkpt>
      <trkpt lat="45.9559" lon="6.55016">
        <ele>2331.81</ele>
        <time>2010-10-10T14:56:48Z</time>
      </trkpt>
      <trkpt lat="45.95585" lon="6.55008">
        <ele>2328.93</ele>
        <time>2010-10-10T14:56:57Z</time>
      </trkpt>
      <trkpt lat="45.95585" lon="6.55005">
        <ele>2327.97</ele>
        <time>2010-10-10T14:56:59Z</time>
      </trkpt>
      <trkpt lat="45.95584" lon="6.55004">
        <ele>2327.49</ele>
        <time>2010-10-10T14:57:00Z</time>
      </trkpt>
      <trkpt lat="45.95577" lon="6.54991">
        <ele>2326.05</ele>
        <time>2010-10-10T14:57:14Z</time>
      </trkpt>
      <trkpt lat="45.95575" lon="6.54982">
        <ele>2324.61</ele>
        <time>2010-10-10T14:57:27Z</time>
      </trkpt>
      <trkpt lat="45.95574" lon="6.54978">
        <ele>2323.16</ele>
        <time>2010-10-10T14:57:32Z</time>
      </trkpt>
      <trkpt lat="45.95572" lon="6.54971">
        <ele>2321.72</ele>
        <time>2010-10-10T14:57:46Z</time>
      </trkpt>
      <trkpt lat="45.95575" lon="6.54972">
        <ele>2320.76</ele>
        <time>2010-10-10T14:57:49Z</time>
      </trkpt>
      <trkpt lat="45.95577" lon="6.54967">
        <ele>2318.36</ele>
        <time>2010-10-10T14:58:00Z</time>
      </trkpt>
      <trkpt lat="45.95581" lon="6.54963">
        <ele>2316.91</ele>
        <time>2010-10-10T14:58:12Z</time>
      </trkpt>
      <trkpt lat="45.9558" lon="6.54962">
        <ele>2315.95</ele>
        <time>2010-10-10T14:58:16Z</time>
      </trkpt>
      <trkpt lat="45.95582" lon="6.54957">
        <ele>2312.59</ele>
        <time>2010-10-10T14:58:29Z</time>
      </trkpt>
      <trkpt lat="45.95589" lon="6.54955">
        <ele>2310.67</ele>
        <time>2010-10-10T14:58:43Z</time>
      </trkpt>
      <trkpt lat="45.95594" lon="6.54948">
        <ele>2307.3</ele>
        <time>2010-10-10T14:58:55Z</time>
      </trkpt>
      <trkpt lat="45.95591" lon="6.54948">
        <ele>2306.34</ele>
        <time>2010-10-10T14:59:09Z</time>
      </trkpt>
      <trkpt lat="45.95589" lon="6.54949">
        <ele>2305.86</ele>
        <time>2010-10-10T14:59:27Z</time>
      </trkpt>
      <trkpt lat="45.95587" lon="6.5495">
        <ele>2304.9</ele>
        <time>2010-10-10T14:59:37Z</time>
      </trkpt>
      <trkpt lat="45.95584" lon="6.54947">
        <ele>2302.98</ele>
        <time>2010-10-10T14:59:49Z</time>
      </trkpt>
      <trkpt lat="45.95582" lon="6.54938">
        <ele>2300.09</ele>
        <time>2010-10-10T15:00:00Z</time>
      </trkpt>
      <trkpt lat="45.95577" lon="6.54938">
        <ele>2299.13</ele>
        <time>2010-10-10T15:00:05Z</time>
      </trkpt>
      <trkpt lat="45.95567" lon="6.54939">
        <ele>2295.77</ele>
        <time>2010-10-10T15:00:14Z</time>
      </trkpt>
      <trkpt lat="45.95563" lon="6.54937">
        <ele>2295.28</ele>
        <time>2010-10-10T15:00:19Z</time>
      </trkpt>
      <trkpt lat="45.95556" lon="6.54931">
        <ele>2291.92</ele>
        <time>2010-10-10T15:00:32Z</time>
      </trkpt>
      <trkpt lat="45.95548" lon="6.54929">
        <ele>2288.56</ele>
        <time>2010-10-10T15:00:41Z</time>
      </trkpt>
      <trkpt lat="45.95546" lon="6.54929">
        <ele>2288.08</ele>
        <time>2010-10-10T15:00:44Z</time>
      </trkpt>
      <trkpt lat="45.95544" lon="6.54929">
        <ele>2287.59</ele>
        <time>2010-10-10T15:00:46Z</time>
      </trkpt>
      <trkpt lat="45.95535" lon="6.54922">
        <ele>2284.71</ele>
        <time>2010-10-10T15:01:02Z</time>
      </trkpt>
      <trkpt lat="45.95535" lon="6.54918">
        <ele>2283.27</ele>
        <time>2010-10-10T15:01:06Z</time>
      </trkpt>
      <trkpt lat="45.95534" lon="6.54914">
        <ele>2281.83</ele>
        <time>2010-10-10T15:01:14Z</time>
      </trkpt>
      <trkpt lat="45.95533" lon="6.54912">
        <ele>2281.35</ele>
        <time>2010-10-10T15:01:16Z</time>
      </trkpt>
      <trkpt lat="45.9552" lon="6.54904">
        <ele>2278.94</ele>
        <time>2010-10-10T15:01:31Z</time>
      </trkpt>
      <trkpt lat="45.9552" lon="6.54901">
        <ele>2278.46</ele>
        <time>2010-10-10T15:01:33Z</time>
      </trkpt>
      <trkpt lat="45.95521" lon="6.54898">
        <ele>2278.46</ele>
        <time>2010-10-10T15:01:35Z</time>
      </trkpt>
      <trkpt lat="45.95527" lon="6.54884">
        <ele>2278.46</ele>
        <time>2010-10-10T15:01:49Z</time>
      </trkpt>
      <trkpt lat="45.95534" lon="6.54875">
        <ele>2277.5</ele>
        <time>2010-10-10T15:02:02Z</time>
      </trkpt>
      <trkpt lat="45.95537" lon="6.54868">
        <ele>2277.5</ele>
        <time>2010-10-10T15:02:14Z</time>
      </trkpt>
      <trkpt lat="45.95537" lon="6.54868">
        <ele>2277.5</ele>
        <time>2010-10-10T15:02:39Z</time>
      </trkpt>
      <trkpt lat="45.95537" lon="6.54868">
        <ele>2277.5</ele>
        <time>2010-10-10T15:02:59Z</time>
      </trkpt>
      <trkpt lat="45.95537" lon="6.54868">
        <ele>2277.02</ele>
        <time>2010-10-10T15:03:17Z</time>
      </trkpt>
      <trkpt lat="45.95536" lon="6.54869">
        <ele>2277.02</ele>
        <time>2010-10-10T15:03:36Z</time>
      </trkpt>
      <trkpt lat="45.95535" lon="6.54863">
        <ele>2274.62</ele>
        <time>2010-10-10T15:03:46Z</time>
      </trkpt>
      <trkpt lat="45.95534" lon="6.54861">
        <ele>2273.66</ele>
        <time>2010-10-10T15:04:00Z</time>
      </trkpt>
      <trkpt lat="45.95535" lon="6.54858">
        <ele>2271.25</ele>
        <time>2010-10-10T15:04:07Z</time>
      </trkpt>
      <trkpt lat="45.95535" lon="6.54852">
        <ele>2270.77</ele>
        <time>2010-10-10T15:04:11Z</time>
      </trkpt>
      <trkpt lat="45.95536" lon="6.54842">
        <ele>2270.77</ele>
        <time>2010-10-10T15:04:17Z</time>
      </trkpt>
      <trkpt lat="45.95535" lon="6.54833">
        <ele>2267.89</ele>
        <time>2010-10-10T15:04:29Z</time>
      </trkpt>
      <trkpt lat="45.95534" lon="6.54827">
        <ele>2265.96</ele>
        <time>2010-10-10T15:04:45Z</time>
      </trkpt>
      <trkpt lat="45.95531" lon="6.54825">
        <ele>2263.56</ele>
        <time>2010-10-10T15:04:55Z</time>
      </trkpt>
      <trkpt lat="45.95529" lon="6.54822">
        <ele>2263.56</ele>
        <time>2010-10-10T15:04:57Z</time>
      </trkpt>
      <trkpt lat="45.95526" lon="6.54814">
        <ele>2263.08</ele>
        <time>2010-10-10T15:05:04Z</time>
      </trkpt>
      <trkpt lat="45.95525" lon="6.5481">
        <ele>2263.56</ele>
        <time>2010-10-10T15:05:07Z</time>
      </trkpt>
      <trkpt lat="45.95529" lon="6.54797">
        <ele>2261.16</ele>
        <time>2010-10-10T15:05:22Z</time>
      </trkpt>
      <trkpt lat="45.95529" lon="6.54794">
        <ele>2260.2</ele>
        <time>2010-10-10T15:05:24Z</time>
      </trkpt>
      <trkpt lat="45.95529" lon="6.54792">
        <ele>2260.68</ele>
        <time>2010-10-10T15:05:26Z</time>
      </trkpt>
      <trkpt lat="45.95535" lon="6.54784">
        <ele>2259.24</ele>
        <time>2010-10-10T15:05:38Z</time>
      </trkpt>
      <trkpt lat="45.9554" lon="6.54775">
        <ele>2260.68</ele>
        <time>2010-10-10T15:05:51Z</time>
      </trkpt>
      <trkpt lat="45.95545" lon="6.54764">
        <ele>2258.75</ele>
        <time>2010-10-10T15:06:01Z</time>
      </trkpt>
      <trkpt lat="45.9555" lon="6.54759">
        <ele>2258.27</ele>
        <time>2010-10-10T15:06:14Z</time>
      </trkpt>
      <trkpt lat="45.95548" lon="6.54751">
        <ele>2255.87</ele>
        <time>2010-10-10T15:06:28Z</time>
      </trkpt>
      <trkpt lat="45.95547" lon="6.5475">
        <ele>2255.87</ele>
        <time>2010-10-10T15:06:42Z</time>
      </trkpt>
      <trkpt lat="45.95547" lon="6.54751">
        <ele>2255.39</ele>
        <time>2010-10-10T15:07:01Z</time>
      </trkpt>
      <trkpt lat="45.95548" lon="6.54752">
        <ele>2255.87</ele>
        <time>2010-10-10T15:07:26Z</time>
      </trkpt>
      <trkpt lat="45.95549" lon="6.54754">
        <ele>2256.83</ele>
        <time>2010-10-10T15:07:30Z</time>
      </trkpt>
      <trkpt lat="45.95553" lon="6.54756">
        <ele>2257.79</ele>
        <time>2010-10-10T15:07:45Z</time>
      </trkpt>
      <trkpt lat="45.95552" lon="6.54759">
        <ele>2257.79</ele>
        <time>2010-10-10T15:08:01Z</time>
      </trkpt>
      <trkpt lat="45.9555" lon="6.54757">
        <ele>2257.31</ele>
        <time>2010-10-10T15:08:17Z</time>
      </trkpt>
      <trkpt lat="45.95548" lon="6.54753">
        <ele>2256.35</ele>
        <time>2010-10-10T15:08:30Z</time>
      </trkpt>
      <trkpt lat="45.95548" lon="6.54753">
        <ele>2256.35</ele>
        <time>2010-10-10T15:08:50Z</time>
      </trkpt>
      <trkpt lat="45.95545" lon="6.54753">
        <ele>2254.91</ele>
        <time>2010-10-10T15:09:06Z</time>
      </trkpt>
      <trkpt lat="45.95545" lon="6.54751">
        <ele>2255.39</ele>
        <time>2010-10-10T15:09:20Z</time>
      </trkpt>
      <trkpt lat="45.95546" lon="6.54748">
        <ele>2254.91</ele>
        <time>2010-10-10T15:09:35Z</time>
      </trkpt>
      <trkpt lat="45.95547" lon="6.54749">
        <ele>2254.91</ele>
        <time>2010-10-10T15:09:49Z</time>
      </trkpt>
      <trkpt lat="45.95547" lon="6.54749">
        <ele>2254.91</ele>
        <time>2010-10-10T15:10:15Z</time>
      </trkpt>
      <trkpt lat="45.95545" lon="6.54747">
        <ele>2253.95</ele>
        <time>2010-10-10T15:10:35Z</time>
      </trkpt>
      <trkpt lat="45.95537" lon="6.54741">
        <ele>2252.99</ele>
        <time>2010-10-10T15:10:47Z</time>
      </trkpt>
      <trkpt lat="45.95536" lon="6.54741">
        <ele>2252.51</ele>
        <time>2010-10-10T15:10:48Z</time>
      </trkpt>
      <trkpt lat="45.95535" lon="6.54739">
        <ele>2252.51</ele>
        <time>2010-10-10T15:11:01Z</time>
      </trkpt>
      <trkpt lat="45.95532" lon="6.54733">
        <ele>2252.51</ele>
        <time>2010-10-10T15:11:14Z</time>
      </trkpt>
      <trkpt lat="45.95531" lon="6.54725">
        <ele>2250.58</ele>
        <time>2010-10-10T15:11:29Z</time>
      </trkpt>
      <trkpt lat="45.9553" lon="6.54724">
        <ele>2249.62</ele>
        <time>2010-10-10T15:11:33Z</time>
      </trkpt>
      <trkpt lat="45.95529" lon="6.5472">
        <ele>2249.14</ele>
        <time>2010-10-10T15:11:35Z</time>
      </trkpt>
      <trkpt lat="45.9553" lon="6.54711">
        <ele>2246.74</ele>
        <time>2010-10-10T15:11:47Z</time>
      </trkpt>
      <trkpt lat="45.95533" lon="6.54709">
        <ele>2244.33</ele>
        <time>2010-10-10T15:11:59Z</time>
      </trkpt>
      <trkpt lat="45.95537" lon="6.54708">
        <ele>2243.37</ele>
        <time>2010-10-10T15:12:13Z</time>
      </trkpt>
      <trkpt lat="45.95539" lon="6.54707">
        <ele>2241.93</ele>
        <time>2010-10-10T15:12:25Z</time>
      </trkpt>
      <trkpt lat="45.95542" lon="6.54706">
        <ele>2240.97</ele>
        <time>2010-10-10T15:12:38Z</time>
      </trkpt>
      <trkpt lat="45.95545" lon="6.54701">
        <ele>2237.61</ele>
        <time>2010-10-10T15:12:47Z</time>
      </trkpt>
      <trkpt lat="45.95549" lon="6.54695">
        <ele>2237.13</ele>
        <time>2010-10-10T15:12:59Z</time>
      </trkpt>
      <trkpt lat="45.95555" lon="6.5469">
        <ele>2234.72</ele>
        <time>2010-10-10T15:13:11Z</time>
      </trkpt>
      <trkpt lat="45.95555" lon="6.5468">
        <ele>2231.36</ele>
        <time>2010-10-10T15:13:23Z</time>
      </trkpt>
      <trkpt lat="45.95556" lon="6.54672">
        <ele>2230.4</ele>
        <time>2010-10-10T15:13:36Z</time>
      </trkpt>
      <trkpt lat="45.95558" lon="6.54667">
        <ele>2227.99</ele>
        <time>2010-10-10T15:13:48Z</time>
      </trkpt>
      <trkpt lat="45.95562" lon="6.54658">
        <ele>2226.07</ele>
        <time>2010-10-10T15:14:02Z</time>
      </trkpt>
      <trkpt lat="45.95561" lon="6.54657">
        <ele>2226.07</ele>
        <time>2010-10-10T15:14:06Z</time>
      </trkpt>
      <trkpt lat="45.95563" lon="6.54648">
        <ele>2224.15</ele>
        <time>2010-10-10T15:14:18Z</time>
      </trkpt>
      <trkpt lat="45.95563" lon="6.54643">
        <ele>2222.22</ele>
        <time>2010-10-10T15:14:32Z</time>
      </trkpt>
      <trkpt lat="45.95563" lon="6.54638">
        <ele>2221.26</ele>
        <time>2010-10-10T15:14:38Z</time>
      </trkpt>
      <trkpt lat="45.95566" lon="6.54634">
        <ele>2219.82</ele>
        <time>2010-10-10T15:14:46Z</time>
      </trkpt>
      <trkpt lat="45.95566" lon="6.54625">
        <ele>2219.34</ele>
        <time>2010-10-10T15:14:59Z</time>
      </trkpt>
      <trkpt lat="45.9557" lon="6.54619">
        <ele>2216.46</ele>
        <time>2010-10-10T15:15:12Z</time>
      </trkpt>
      <trkpt lat="45.95571" lon="6.54612">
        <ele>2214.53</ele>
        <time>2010-10-10T15:15:23Z</time>
      </trkpt>
      <trkpt lat="45.95576" lon="6.54606">
        <ele>2212.61</ele>
        <time>2010-10-10T15:15:36Z</time>
      </trkpt>
      <trkpt lat="45.95577" lon="6.54603">
        <ele>2210.69</ele>
        <time>2010-10-10T15:15:48Z</time>
      </trkpt>
      <trkpt lat="45.95579" lon="6.546">
        <ele>2209.73</ele>
        <time>2010-10-10T15:15:55Z</time>
      </trkpt>
      <trkpt lat="45.95581" lon="6.54592">
        <ele>2209.25</ele>
        <time>2010-10-10T15:16:04Z</time>
      </trkpt>
      <trkpt lat="45.95586" lon="6.54585">
        <ele>2207.32</ele>
        <time>2010-10-10T15:16:14Z</time>
      </trkpt>
      <trkpt lat="45.9559" lon="6.54577">
        <ele>2205.88</ele>
        <time>2010-10-10T15:16:26Z</time>
      </trkpt>
      <trkpt lat="45.95589" lon="6.54575">
        <ele>2204.92</ele>
        <time>2010-10-10T15:16:31Z</time>
      </trkpt>
      <trkpt lat="45.95588" lon="6.54569">
        <ele>2202.04</ele>
        <time>2010-10-10T15:16:43Z</time>
      </trkpt>
      <trkpt lat="45.95589" lon="6.54563">
        <ele>2200.59</ele>
        <time>2010-10-10T15:16:56Z</time>
      </trkpt>
      <trkpt lat="45.95588" lon="6.5456">
        <ele>2199.63</ele>
        <time>2010-10-10T15:17:05Z</time>
      </trkpt>
      <trkpt lat="45.9559" lon="6.54555">
        <ele>2197.71</ele>
        <time>2010-10-10T15:17:18Z</time>
      </trkpt>
      <trkpt lat="45.95593" lon="6.54549">
        <ele>2195.79</ele>
        <time>2010-10-10T15:17:30Z</time>
      </trkpt>
      <trkpt lat="45.95598" lon="6.54538">
        <ele>2194.35</ele>
        <time>2010-10-10T15:17:42Z</time>
      </trkpt>
      <trkpt lat="45.956" lon="6.54536">
        <ele>2192.9</ele>
        <time>2010-10-10T15:17:54Z</time>
      </trkpt>
      <trkpt lat="45.95599" lon="6.54533">
        <ele>2190.5</ele>
        <time>2010-10-10T15:18:09Z</time>
      </trkpt>
      <trkpt lat="45.95594" lon="6.54536">
        <ele>2191.46</ele>
        <time>2010-10-10T15:18:21Z</time>
      </trkpt>
      <trkpt lat="45.95593" lon="6.54531">
        <ele>2189.06</ele>
        <time>2010-10-10T15:18:34Z</time>
      </trkpt>
      <trkpt lat="45.95593" lon="6.54523">
        <ele>2186.66</ele>
        <time>2010-10-10T15:18:47Z</time>
      </trkpt>
      <trkpt lat="45.95588" lon="6.54516">
        <ele>2186.66</ele>
        <time>2010-10-10T15:19:00Z</time>
      </trkpt>
      <trkpt lat="45.95589" lon="6.54509">
        <ele>2182.81</ele>
        <time>2010-10-10T15:19:14Z</time>
      </trkpt>
      <trkpt lat="45.95591" lon="6.54501">
        <ele>2179.45</ele>
        <time>2010-10-10T15:19:27Z</time>
      </trkpt>
      <trkpt lat="45.95588" lon="6.54497">
        <ele>2179.93</ele>
        <time>2010-10-10T15:19:31Z</time>
      </trkpt>
      <trkpt lat="45.95582" lon="6.54486">
        <ele>2177.52</ele>
        <time>2010-10-10T15:19:43Z</time>
      </trkpt>
      <trkpt lat="45.9558" lon="6.54479">
        <ele>2174.64</ele>
        <time>2010-10-10T15:19:53Z</time>
      </trkpt>
      <trkpt lat="45.95577" lon="6.54478">
        <ele>2174.16</ele>
        <time>2010-10-10T15:20:07Z</time>
      </trkpt>
      <trkpt lat="45.9557" lon="6.54481">
        <ele>2172.24</ele>
        <time>2010-10-10T15:20:21Z</time>
      </trkpt>
      <trkpt lat="45.95569" lon="6.54481">
        <ele>2172.24</ele>
        <time>2010-10-10T15:20:22Z</time>
      </trkpt>
      <trkpt lat="45.95567" lon="6.54482">
        <ele>2172.24</ele>
        <time>2010-10-10T15:20:24Z</time>
      </trkpt>
      <trkpt lat="45.95562" lon="6.54474">
        <ele>2170.31</ele>
        <time>2010-10-10T15:20:38Z</time>
      </trkpt>
      <trkpt lat="45.95564" lon="6.5447">
        <ele>2169.83</ele>
        <time>2010-10-10T15:20:42Z</time>
      </trkpt>
      <trkpt lat="45.95565" lon="6.5446">
        <ele>2166.47</ele>
        <time>2010-10-10T15:20:54Z</time>
      </trkpt>
      <trkpt lat="45.95558" lon="6.54452">
        <ele>2165.51</ele>
        <time>2010-10-10T15:21:07Z</time>
      </trkpt>
      <trkpt lat="45.95558" lon="6.54446">
        <ele>2165.99</ele>
        <time>2010-10-10T15:21:13Z</time>
      </trkpt>
      <trkpt lat="45.95553" lon="6.54439">
        <ele>2168.87</ele>
        <time>2010-10-10T15:21:25Z</time>
      </trkpt>
      <trkpt lat="45.95541" lon="6.54444">
        <ele>2170.79</ele>
        <time>2010-10-10T15:21:39Z</time>
      </trkpt>
      <trkpt lat="45.95542" lon="6.54435">
        <ele>2172.24</ele>
        <time>2010-10-10T15:21:52Z</time>
      </trkpt>
      <trkpt lat="45.95541" lon="6.54426">
        <ele>2172.24</ele>
        <time>2010-10-10T15:22:07Z</time>
      </trkpt>
      <trkpt lat="45.95539" lon="6.54424">
        <ele>2171.27</ele>
        <time>2010-10-10T15:22:24Z</time>
      </trkpt>
      <trkpt lat="45.95539" lon="6.54424">
        <ele>2171.76</ele>
        <time>2010-10-10T15:22:43Z</time>
      </trkpt>
      <trkpt lat="45.95542" lon="6.54426">
        <ele>2171.27</ele>
        <time>2010-10-10T15:22:48Z</time>
      </trkpt>
      <trkpt lat="45.95539" lon="6.54434">
        <ele>2171.27</ele>
        <time>2010-10-10T15:23:00Z</time>
      </trkpt>
      <trkpt lat="45.95537" lon="6.54434">
        <ele>2170.79</ele>
        <time>2010-10-10T15:23:20Z</time>
      </trkpt>
      <trkpt lat="45.95534" lon="6.54433">
        <ele>2168.87</ele>
        <time>2010-10-10T15:23:40Z</time>
      </trkpt>
      <trkpt lat="45.95534" lon="6.54432">
        <ele>2168.87</ele>
        <time>2010-10-10T15:23:41Z</time>
      </trkpt>
      <trkpt lat="45.95531" lon="6.54428">
        <ele>2169.35</ele>
        <time>2010-10-10T15:23:57Z</time>
      </trkpt>
      <trkpt lat="45.95532" lon="6.54425">
        <ele>2168.87</ele>
        <time>2010-10-10T15:24:17Z</time>
      </trkpt>
      <trkpt lat="45.95532" lon="6.54425">
        <ele>2168.39</ele>
        <time>2010-10-10T15:24:46Z</time>
      </trkpt>
      <trkpt lat="45.95534" lon="6.5443">
        <ele>2167.91</ele>
        <time>2010-10-10T15:25:08Z</time>
      </trkpt>
      <trkpt lat="45.95529" lon="6.54433">
        <ele>2167.91</ele>
        <time>2010-10-10T15:25:22Z</time>
      </trkpt>
      <trkpt lat="45.9553" lon="6.54432">
        <ele>2167.91</ele>
        <time>2010-10-10T15:25:35Z</time>
      </trkpt>
      <trkpt lat="45.95534" lon="6.54431">
        <ele>2167.91</ele>
        <time>2010-10-10T15:25:52Z</time>
      </trkpt>
      <trkpt lat="45.95531" lon="6.54431">
        <ele>2167.91</ele>
        <time>2010-10-10T15:25:57Z</time>
      </trkpt>
      <trkpt lat="45.95528" lon="6.54432">
        <ele>2167.91</ele>
        <time>2010-10-10T15:26:15Z</time>
      </trkpt>
      <trkpt lat="45.9553" lon="6.54431">
        <ele>2167.91</ele>
        <time>2010-10-10T15:26:22Z</time>
      </trkpt>
      <trkpt lat="45.9554" lon="6.54431">
        <ele>2170.31</ele>
        <time>2010-10-10T15:26:34Z</time>
      </trkpt>
      <trkpt lat="45.95542" lon="6.54424">
        <ele>2170.31</ele>
        <time>2010-10-10T15:26:47Z</time>
      </trkpt>
      <trkpt lat="45.9554" lon="6.54425">
        <ele>2170.31</ele>
        <time>2010-10-10T15:27:01Z</time>
      </trkpt>
      <trkpt lat="45.95542" lon="6.54422">
        <ele>2169.83</ele>
        <time>2010-10-10T15:27:16Z</time>
      </trkpt>
      <trkpt lat="45.95541" lon="6.54425">
        <ele>2169.83</ele>
        <time>2010-10-10T15:27:34Z</time>
      </trkpt>
      <trkpt lat="45.95541" lon="6.54425">
        <ele>2169.83</ele>
        <time>2010-10-10T15:27:54Z</time>
      </trkpt>
      <trkpt lat="45.95544" lon="6.54425">
        <ele>2169.83</ele>
        <time>2010-10-10T15:28:13Z</time>
      </trkpt>
      <trkpt lat="45.95545" lon="6.5443">
        <ele>2169.83</ele>
        <time>2010-10-10T15:28:30Z</time>
      </trkpt>
      <trkpt lat="45.95545" lon="6.5443">
        <ele>2169.35</ele>
        <time>2010-10-10T15:28:58Z</time>
      </trkpt>
      <trkpt lat="45.95545" lon="6.54436">
        <ele>2169.35</ele>
        <time>2010-10-10T15:29:14Z</time>
      </trkpt>
      <trkpt lat="45.95545" lon="6.54436">
        <ele>2169.35</ele>
        <time>2010-10-10T15:29:35Z</time>
      </trkpt>
      <trkpt lat="45.95545" lon="6.54436">
        <ele>2169.83</ele>
        <time>2010-10-10T15:29:53Z</time>
      </trkpt>
      <trkpt lat="45.95545" lon="6.54436">
        <ele>2169.35</ele>
        <time>2010-10-10T15:30:19Z</time>
      </trkpt>
      <trkpt lat="45.95544" lon="6.54437">
        <ele>2170.79</ele>
        <time>2010-10-10T15:30:42Z</time>
      </trkpt>
      <trkpt lat="45.95545" lon="6.54441">
        <ele>2167.43</ele>
        <time>2010-10-10T15:30:50Z</time>
      </trkpt>
      <trkpt lat="45.95545" lon="6.54443">
        <ele>2167.43</ele>
        <time>2010-10-10T15:30:54Z</time>
      </trkpt>
      <trkpt lat="45.95556" lon="6.54435">
        <ele>2165.03</ele>
        <time>2010-10-10T15:31:08Z</time>
      </trkpt>
      <trkpt lat="45.95557" lon="6.54433">
        <ele>2165.51</ele>
        <time>2010-10-10T15:31:11Z</time>
      </trkpt>
      <trkpt lat="45.95563" lon="6.54432">
        <ele>2164.55</ele>
        <time>2010-10-10T15:31:19Z</time>
      </trkpt>
      <trkpt lat="45.95576" lon="6.54419">
        <ele>2160.7</ele>
        <time>2010-10-10T15:31:33Z</time>
      </trkpt>
      <trkpt lat="45.9558" lon="6.54414">
        <ele>2159.26</ele>
        <time>2010-10-10T15:31:46Z</time>
      </trkpt>
      <trkpt lat="45.9558" lon="6.54414">
        <ele>2159.26</ele>
        <time>2010-10-10T15:32:19Z</time>
      </trkpt>
      <trkpt lat="45.95582" lon="6.54414">
        <ele>2159.26</ele>
        <time>2010-10-10T15:32:21Z</time>
      </trkpt>
      <trkpt lat="45.95588" lon="6.54417">
        <ele>2158.78</ele>
        <time>2010-10-10T15:32:26Z</time>
      </trkpt>
      <trkpt lat="45.9559" lon="6.54418">
        <ele>2158.78</ele>
        <time>2010-10-10T15:32:28Z</time>
      </trkpt>
      <trkpt lat="45.95599" lon="6.54418">
        <ele>2156.86</ele>
        <time>2010-10-10T15:32:34Z</time>
      </trkpt>
      <trkpt lat="45.95604" lon="6.54416">
        <ele>2155.41</ele>
        <time>2010-10-10T15:32:38Z</time>
      </trkpt>
      <trkpt lat="45.95612" lon="6.54416">
        <ele>2153.49</ele>
        <time>2010-10-10T15:32:45Z</time>
      </trkpt>
      <trkpt lat="45.95618" lon="6.54412">
        <ele>2152.05</ele>
        <time>2010-10-10T15:32:53Z</time>
      </trkpt>
      <trkpt lat="45.9562" lon="6.54413">
        <ele>2151.09</ele>
        <time>2010-10-10T15:32:56Z</time>
      </trkpt>
      <trkpt lat="45.95628" lon="6.54407">
        <ele>2147.72</ele>
        <time>2010-10-10T15:33:08Z</time>
      </trkpt>
      <trkpt lat="45.95632" lon="6.54405">
        <ele>2146.76</ele>
        <time>2010-10-10T15:33:12Z</time>
      </trkpt>
      <trkpt lat="45.95646" lon="6.54395">
        <ele>2143.88</ele>
        <time>2010-10-10T15:33:26Z</time>
      </trkpt>
      <trkpt lat="45.95648" lon="6.54395">
        <ele>2142.92</ele>
        <time>2010-10-10T15:33:28Z</time>
      </trkpt>
      <trkpt lat="45.95652" lon="6.54396">
        <ele>2141.95</ele>
        <time>2010-10-10T15:33:32Z</time>
      </trkpt>
      <trkpt lat="45.95659" lon="6.54392">
        <ele>2140.03</ele>
        <time>2010-10-10T15:33:37Z</time>
      </trkpt>
      <trkpt lat="45.95665" lon="6.54389">
        <ele>2136.67</ele>
        <time>2010-10-10T15:33:49Z</time>
      </trkpt>
      <trkpt lat="45.95657" lon="6.54382">
        <ele>2135.23</ele>
        <time>2010-10-10T15:33:55Z</time>
      </trkpt>
      <trkpt lat="45.95654" lon="6.5438">
        <ele>2134.74</ele>
        <time>2010-10-10T15:33:57Z</time>
      </trkpt>
      <trkpt lat="45.9565" lon="6.5438">
        <ele>2134.26</ele>
        <time>2010-10-10T15:34:00Z</time>
      </trkpt>
      <trkpt lat="45.95643" lon="6.54364">
        <ele>2130.9</ele>
        <time>2010-10-10T15:34:12Z</time>
      </trkpt>
      <trkpt lat="45.95643" lon="6.54359">
        <ele>2129.46</ele>
        <time>2010-10-10T15:34:17Z</time>
      </trkpt>
      <trkpt lat="45.95643" lon="6.54341">
        <ele>2127.05</ele>
        <time>2010-10-10T15:34:27Z</time>
      </trkpt>
      <trkpt lat="45.95644" lon="6.54322">
        <ele>2123.21</ele>
        <time>2010-10-10T15:34:39Z</time>
      </trkpt>
      <trkpt lat="45.95644" lon="6.5432">
        <ele>2123.21</ele>
        <time>2010-10-10T15:34:40Z</time>
      </trkpt>
      <trkpt lat="45.95642" lon="6.54315">
        <ele>2122.25</ele>
        <time>2010-10-10T15:34:44Z</time>
      </trkpt>
      <trkpt lat="45.95639" lon="6.54302">
        <ele>2119.36</ele>
        <time>2010-10-10T15:34:54Z</time>
      </trkpt>
      <trkpt lat="45.95633" lon="6.54282">
        <ele>2116</ele>
        <time>2010-10-10T15:35:07Z</time>
      </trkpt>
      <trkpt lat="45.95633" lon="6.5427">
        <ele>2113.12</ele>
        <time>2010-10-10T15:35:15Z</time>
      </trkpt>
      <trkpt lat="45.95635" lon="6.54252">
        <ele>2109.27</ele>
        <time>2010-10-10T15:35:29Z</time>
      </trkpt>
      <trkpt lat="45.95635" lon="6.54251">
        <ele>2109.27</ele>
        <time>2010-10-10T15:35:31Z</time>
      </trkpt>
      <trkpt lat="45.95638" lon="6.54242">
        <ele>2107.35</ele>
        <time>2010-10-10T15:35:36Z</time>
      </trkpt>
      <trkpt lat="45.95642" lon="6.54239">
        <ele>2105.42</ele>
        <time>2010-10-10T15:35:41Z</time>
      </trkpt>
      <trkpt lat="45.95648" lon="6.54239">
        <ele>2103.98</ele>
        <time>2010-10-10T15:35:47Z</time>
      </trkpt>
      <trkpt lat="45.95651" lon="6.54241">
        <ele>2103.5</ele>
        <time>2010-10-10T15:35:50Z</time>
      </trkpt>
      <trkpt lat="45.95653" lon="6.54239">
        <ele>2102.54</ele>
        <time>2010-10-10T15:35:53Z</time>
      </trkpt>
      <trkpt lat="45.95651" lon="6.54236">
        <ele>2102.54</ele>
        <time>2010-10-10T15:35:55Z</time>
      </trkpt>
      <trkpt lat="45.9564" lon="6.54221">
        <ele>2099.18</ele>
        <time>2010-10-10T15:36:06Z</time>
      </trkpt>
      <trkpt lat="45.95639" lon="6.54216">
        <ele>2098.21</ele>
        <time>2010-10-10T15:36:11Z</time>
      </trkpt>
      <trkpt lat="45.95645" lon="6.54218">
        <ele>2097.25</ele>
        <time>2010-10-10T15:36:17Z</time>
      </trkpt>
      <trkpt lat="45.95659" lon="6.54216">
        <ele>2093.89</ele>
        <time>2010-10-10T15:36:30Z</time>
      </trkpt>
      <trkpt lat="45.95659" lon="6.54215">
        <ele>2093.89</ele>
        <time>2010-10-10T15:36:31Z</time>
      </trkpt>
      <trkpt lat="45.95654" lon="6.54204">
        <ele>2091.97</ele>
        <time>2010-10-10T15:36:38Z</time>
      </trkpt>
      <trkpt lat="45.95651" lon="6.54199">
        <ele>2090.52</ele>
        <time>2010-10-10T15:36:41Z</time>
      </trkpt>
      <trkpt lat="45.95648" lon="6.54196">
        <ele>2090.52</ele>
        <time>2010-10-10T15:36:44Z</time>
      </trkpt>
      <trkpt lat="45.9564" lon="6.54186">
        <ele>2088.12</ele>
        <time>2010-10-10T15:36:54Z</time>
      </trkpt>
      <trkpt lat="45.95642" lon="6.54182">
        <ele>2086.68</ele>
        <time>2010-10-10T15:36:57Z</time>
      </trkpt>
      <trkpt lat="45.95658" lon="6.54179">
        <ele>2084.28</ele>
        <time>2010-10-10T15:37:11Z</time>
      </trkpt>
      <trkpt lat="45.95656" lon="6.54173">
        <ele>2084.76</ele>
        <time>2010-10-10T15:37:17Z</time>
      </trkpt>
      <trkpt lat="45.95653" lon="6.54171">
        <ele>2082.35</ele>
        <time>2010-10-10T15:37:21Z</time>
      </trkpt>
      <trkpt lat="45.95652" lon="6.5417">
        <ele>2081.39</ele>
        <time>2010-10-10T15:37:22Z</time>
      </trkpt>
      <trkpt lat="45.95645" lon="6.54165">
        <ele>2080.43</ele>
        <time>2010-10-10T15:37:28Z</time>
      </trkpt>
      <trkpt lat="45.95646" lon="6.54156">
        <ele>2078.51</ele>
        <time>2010-10-10T15:37:36Z</time>
      </trkpt>
      <trkpt lat="45.95658" lon="6.54153">
        <ele>2075.62</ele>
        <time>2010-10-10T15:37:46Z</time>
      </trkpt>
      <trkpt lat="45.9566" lon="6.54151">
        <ele>2075.14</ele>
        <time>2010-10-10T15:37:50Z</time>
      </trkpt>
      <trkpt lat="45.95656" lon="6.54141">
        <ele>2071.78</ele>
        <time>2010-10-10T15:37:58Z</time>
      </trkpt>
      <trkpt lat="45.95653" lon="6.54137">
        <ele>2072.26</ele>
        <time>2010-10-10T15:38:02Z</time>
      </trkpt>
      <trkpt lat="45.95651" lon="6.54132">
        <ele>2070.34</ele>
        <time>2010-10-10T15:38:06Z</time>
      </trkpt>
      <trkpt lat="45.95646" lon="6.54128">
        <ele>2069.38</ele>
        <time>2010-10-10T15:38:12Z</time>
      </trkpt>
      <trkpt lat="45.95649" lon="6.54123">
        <ele>2067.93</ele>
        <time>2010-10-10T15:38:15Z</time>
      </trkpt>
      <trkpt lat="45.95659" lon="6.54118">
        <ele>2066.01</ele>
        <time>2010-10-10T15:38:24Z</time>
      </trkpt>
      <trkpt lat="45.95649" lon="6.5411">
        <ele>2063.61</ele>
        <time>2010-10-10T15:38:37Z</time>
      </trkpt>
      <trkpt lat="45.95658" lon="6.54102">
        <ele>2061.68</ele>
        <time>2010-10-10T15:38:45Z</time>
      </trkpt>
      <trkpt lat="45.95671" lon="6.54094">
        <ele>2058.32</ele>
        <time>2010-10-10T15:38:57Z</time>
      </trkpt>
      <trkpt lat="45.95672" lon="6.54094">
        <ele>2058.8</ele>
        <time>2010-10-10T15:38:58Z</time>
      </trkpt>
      <trkpt lat="45.95678" lon="6.54091">
        <ele>2056.4</ele>
        <time>2010-10-10T15:39:04Z</time>
      </trkpt>
      <trkpt lat="45.95682" lon="6.54086">
        <ele>2054.96</ele>
        <time>2010-10-10T15:39:10Z</time>
      </trkpt>
      <trkpt lat="45.95685" lon="6.54088">
        <ele>2054.47</ele>
        <time>2010-10-10T15:39:13Z</time>
      </trkpt>
      <trkpt lat="45.95679" lon="6.54072">
        <ele>2051.59</ele>
        <time>2010-10-10T15:39:25Z</time>
      </trkpt>
      <trkpt lat="45.95671" lon="6.54067">
        <ele>2049.67</ele>
        <time>2010-10-10T15:39:32Z</time>
      </trkpt>
      <trkpt lat="45.95671" lon="6.54062">
        <ele>2049.19</ele>
        <time>2010-10-10T15:39:36Z</time>
      </trkpt>
      <trkpt lat="45.95674" lon="6.54062">
        <ele>2048.71</ele>
        <time>2010-10-10T15:39:39Z</time>
      </trkpt>
      <trkpt lat="45.95691" lon="6.5406">
        <ele>2045.34</ele>
        <time>2010-10-10T15:39:53Z</time>
      </trkpt>
      <trkpt lat="45.95693" lon="6.54059">
        <ele>2044.38</ele>
        <time>2010-10-10T15:39:56Z</time>
      </trkpt>
      <trkpt lat="45.95703" lon="6.54058">
        <ele>2042.46</ele>
        <time>2010-10-10T15:40:04Z</time>
      </trkpt>
      <trkpt lat="45.95705" lon="6.54057">
        <ele>2041.5</ele>
        <time>2010-10-10T15:40:08Z</time>
      </trkpt>
      <trkpt lat="45.95698" lon="6.54047">
        <ele>2039.09</ele>
        <time>2010-10-10T15:40:18Z</time>
      </trkpt>
      <trkpt lat="45.95697" lon="6.54044">
        <ele>2038.13</ele>
        <time>2010-10-10T15:40:20Z</time>
      </trkpt>
      <trkpt lat="45.95696" lon="6.54041">
        <ele>2038.13</ele>
        <time>2010-10-10T15:40:22Z</time>
      </trkpt>
      <trkpt lat="45.95694" lon="6.54038">
        <ele>2037.17</ele>
        <time>2010-10-10T15:40:24Z</time>
      </trkpt>
      <trkpt lat="45.9569" lon="6.54035">
        <ele>2035.73</ele>
        <time>2010-10-10T15:40:29Z</time>
      </trkpt>
      <trkpt lat="45.95689" lon="6.54029">
        <ele>2034.77</ele>
        <time>2010-10-10T15:40:35Z</time>
      </trkpt>
      <trkpt lat="45.957" lon="6.54024">
        <ele>2031.88</ele>
        <time>2010-10-10T15:40:43Z</time>
      </trkpt>
      <trkpt lat="45.95706" lon="6.54022">
        <ele>2031.4</ele>
        <time>2010-10-10T15:40:48Z</time>
      </trkpt>
      <trkpt lat="45.95709" lon="6.5402">
        <ele>2031.4</ele>
        <time>2010-10-10T15:40:51Z</time>
      </trkpt>
      <trkpt lat="45.95712" lon="6.54015">
        <ele>2029.48</ele>
        <time>2010-10-10T15:40:56Z</time>
      </trkpt>
      <trkpt lat="45.95716" lon="6.54012">
        <ele>2028.52</ele>
        <time>2010-10-10T15:40:59Z</time>
      </trkpt>
      <trkpt lat="45.95725" lon="6.54002">
        <ele>2025.15</ele>
        <time>2010-10-10T15:41:14Z</time>
      </trkpt>
      <trkpt lat="45.95725" lon="6.54002">
        <ele>2025.64</ele>
        <time>2010-10-10T15:41:32Z</time>
      </trkpt>
      <trkpt lat="45.95726" lon="6.53998">
        <ele>2025.15</ele>
        <time>2010-10-10T15:41:53Z</time>
      </trkpt>
      <trkpt lat="45.95726" lon="6.53998">
        <ele>2024.67</ele>
        <time>2010-10-10T15:42:15Z</time>
      </trkpt>
      <trkpt lat="45.95728" lon="6.53999">
        <ele>2025.15</ele>
        <time>2010-10-10T15:42:20Z</time>
      </trkpt>
      <trkpt lat="45.95734" lon="6.54">
        <ele>2023.23</ele>
        <time>2010-10-10T15:42:24Z</time>
      </trkpt>
      <trkpt lat="45.9574" lon="6.54003">
        <ele>2022.75</ele>
        <time>2010-10-10T15:42:29Z</time>
      </trkpt>
      <trkpt lat="45.95752" lon="6.54017">
        <ele>2020.83</ele>
        <time>2010-10-10T15:42:40Z</time>
      </trkpt>
      <trkpt lat="45.95757" lon="6.5402">
        <ele>2018.91</ele>
        <time>2010-10-10T15:42:44Z</time>
      </trkpt>
      <trkpt lat="45.95774" lon="6.54017">
        <ele>2016.02</ele>
        <time>2010-10-10T15:42:56Z</time>
      </trkpt>
      <trkpt lat="45.95792" lon="6.54015">
        <ele>2015.06</ele>
        <time>2010-10-10T15:43:09Z</time>
      </trkpt>
      <trkpt lat="45.95794" lon="6.54018">
        <ele>2015.54</ele>
        <time>2010-10-10T15:43:12Z</time>
      </trkpt>
      <trkpt lat="45.95802" lon="6.5402">
        <ele>2015.54</ele>
        <time>2010-10-10T15:43:18Z</time>
      </trkpt>
      <trkpt lat="45.95818" lon="6.54015">
        <ele>2011.7</ele>
        <time>2010-10-10T15:43:32Z</time>
      </trkpt>
      <trkpt lat="45.95834" lon="6.5401">
        <ele>2008.33</ele>
        <time>2010-10-10T15:43:44Z</time>
      </trkpt>
      <trkpt lat="45.95836" lon="6.54009">
        <ele>2008.81</ele>
        <time>2010-10-10T15:43:45Z</time>
      </trkpt>
      <trkpt lat="45.95848" lon="6.54003">
        <ele>2004.97</ele>
        <time>2010-10-10T15:43:56Z</time>
      </trkpt>
      <trkpt lat="45.95862" lon="6.53998">
        <ele>2003.52</ele>
        <time>2010-10-10T15:44:07Z</time>
      </trkpt>
      <trkpt lat="45.95865" lon="6.53994">
        <ele>2003.04</ele>
        <time>2010-10-10T15:44:11Z</time>
      </trkpt>
      <trkpt lat="45.95874" lon="6.53991">
        <ele>1999.2</ele>
        <time>2010-10-10T15:44:22Z</time>
      </trkpt>
      <trkpt lat="45.95876" lon="6.5399">
        <ele>1998.72</ele>
        <time>2010-10-10T15:44:26Z</time>
      </trkpt>
      <trkpt lat="45.95881" lon="6.53987">
        <ele>1997.76</ele>
        <time>2010-10-10T15:44:30Z</time>
      </trkpt>
      <trkpt lat="45.95893" lon="6.53985">
        <ele>1994.87</ele>
        <time>2010-10-10T15:44:43Z</time>
      </trkpt>
      <trkpt lat="45.95905" lon="6.53988">
        <ele>1994.39</ele>
        <time>2010-10-10T15:44:56Z</time>
      </trkpt>
      <trkpt lat="45.9591" lon="6.53987">
        <ele>1993.91</ele>
        <time>2010-10-10T15:45:09Z</time>
      </trkpt>
      <trkpt lat="45.95913" lon="6.53988">
        <ele>1991.99</ele>
        <time>2010-10-10T15:45:24Z</time>
      </trkpt>
      <trkpt lat="45.95922" lon="6.53986">
        <ele>1990.07</ele>
        <time>2010-10-10T15:45:36Z</time>
      </trkpt>
      <trkpt lat="45.95922" lon="6.5398">
        <ele>1986.7</ele>
        <time>2010-10-10T15:45:50Z</time>
      </trkpt>
      <trkpt lat="45.95921" lon="6.53976">
        <ele>1985.74</ele>
        <time>2010-10-10T15:45:54Z</time>
      </trkpt>
      <trkpt lat="45.95927" lon="6.53967">
        <ele>1984.3</ele>
        <time>2010-10-10T15:46:06Z</time>
      </trkpt>
      <trkpt lat="45.95931" lon="6.53966">
        <ele>1983.34</ele>
        <time>2010-10-10T15:46:10Z</time>
      </trkpt>
      <trkpt lat="45.95939" lon="6.53957">
        <ele>1980.93</ele>
        <time>2010-10-10T15:46:24Z</time>
      </trkpt>
      <trkpt lat="45.95942" lon="6.53955">
        <ele>1979.01</ele>
        <time>2010-10-10T15:46:37Z</time>
      </trkpt>
      <trkpt lat="45.95945" lon="6.53955">
        <ele>1978.05</ele>
        <time>2010-10-10T15:46:41Z</time>
      </trkpt>
      <trkpt lat="45.95946" lon="6.53964">
        <ele>1976.61</ele>
        <time>2010-10-10T15:46:55Z</time>
      </trkpt>
      <trkpt lat="45.95952" lon="6.53964">
        <ele>1974.2</ele>
        <time>2010-10-10T15:47:07Z</time>
      </trkpt>
      <trkpt lat="45.95953" lon="6.53963">
        <ele>1974.2</ele>
        <time>2010-10-10T15:47:09Z</time>
      </trkpt>
      <trkpt lat="45.95965" lon="6.53957">
        <ele>1974.2</ele>
        <time>2010-10-10T15:47:22Z</time>
      </trkpt>
      <trkpt lat="45.95969" lon="6.53955">
        <ele>1973.72</ele>
        <time>2010-10-10T15:47:27Z</time>
      </trkpt>
      <trkpt lat="45.95974" lon="6.53955">
        <ele>1972.28</ele>
        <time>2010-10-10T15:47:32Z</time>
      </trkpt>
      <trkpt lat="45.95983" lon="6.53947">
        <ele>1971.32</ele>
        <time>2010-10-10T15:47:45Z</time>
      </trkpt>
      <trkpt lat="45.95987" lon="6.53947">
        <ele>1971.32</ele>
        <time>2010-10-10T15:47:51Z</time>
      </trkpt>
      <trkpt lat="45.95991" lon="6.53947">
        <ele>1970.36</ele>
        <time>2010-10-10T15:47:54Z</time>
      </trkpt>
      <trkpt lat="45.95997" lon="6.53944">
        <ele>1971.8</ele>
        <time>2010-10-10T15:48:08Z</time>
      </trkpt>
      <trkpt lat="45.95999" lon="6.53942">
        <ele>1972.28</ele>
        <time>2010-10-10T15:48:15Z</time>
      </trkpt>
      <trkpt lat="45.96009" lon="6.5394">
        <ele>1972.76</ele>
        <time>2010-10-10T15:48:28Z</time>
      </trkpt>
      <trkpt lat="45.9601" lon="6.53939">
        <ele>1970.84</ele>
        <time>2010-10-10T15:48:41Z</time>
      </trkpt>
      <trkpt lat="45.96013" lon="6.53938">
        <ele>1968.92</ele>
        <time>2010-10-10T15:48:53Z</time>
      </trkpt>
      <trkpt lat="45.96018" lon="6.53936">
        <ele>1966.03</ele>
        <time>2010-10-10T15:49:06Z</time>
      </trkpt>
      <trkpt lat="45.96029" lon="6.53933">
        <ele>1966.51</ele>
        <time>2010-10-10T15:49:20Z</time>
      </trkpt>
      <trkpt lat="45.96033" lon="6.53931">
        <ele>1963.15</ele>
        <time>2010-10-10T15:49:33Z</time>
      </trkpt>
      <trkpt lat="45.96035" lon="6.53932">
        <ele>1961.23</ele>
        <time>2010-10-10T15:49:45Z</time>
      </trkpt>
      <trkpt lat="45.9604" lon="6.53932">
        <ele>1959.3</ele>
        <time>2010-10-10T15:49:57Z</time>
      </trkpt>
      <trkpt lat="45.96045" lon="6.53933">
        <ele>1956.42</ele>
        <time>2010-10-10T15:50:10Z</time>
      </trkpt>
      <trkpt lat="45.96049" lon="6.53929">
        <ele>1953.06</ele>
        <time>2010-10-10T15:50:22Z</time>
      </trkpt>
      <trkpt lat="45.96054" lon="6.53929">
        <ele>1951.13</ele>
        <time>2010-10-10T15:50:34Z</time>
      </trkpt>
      <trkpt lat="45.96059" lon="6.5393">
        <ele>1948.25</ele>
        <time>2010-10-10T15:50:47Z</time>
      </trkpt>
      <trkpt lat="45.96063" lon="6.53931">
        <ele>1946.33</ele>
        <time>2010-10-10T15:51:02Z</time>
      </trkpt>
      <trkpt lat="45.96064" lon="6.53929">
        <ele>1944.88</ele>
        <time>2010-10-10T15:51:25Z</time>
      </trkpt>
      <trkpt lat="45.96066" lon="6.53928">
        <ele>1944.4</ele>
        <time>2010-10-10T15:51:44Z</time>
      </trkpt>
      <trkpt lat="45.96066" lon="6.53928">
        <ele>1943.92</ele>
        <time>2010-10-10T15:51:59Z</time>
      </trkpt>
      <trkpt lat="45.96068" lon="6.53928">
        <ele>1942.96</ele>
        <time>2010-10-10T15:52:19Z</time>
      </trkpt>
      <trkpt lat="45.96068" lon="6.53928">
        <ele>1943.44</ele>
        <time>2010-10-10T15:52:41Z</time>
      </trkpt>
      <trkpt lat="45.96072" lon="6.53928">
        <ele>1942</ele>
        <time>2010-10-10T15:53:00Z</time>
      </trkpt>
      <trkpt lat="45.96072" lon="6.53928">
        <ele>1942</ele>
        <time>2010-10-10T15:53:20Z</time>
      </trkpt>
      <trkpt lat="45.96074" lon="6.53926">
        <ele>1941.52</ele>
        <time>2010-10-10T15:53:37Z</time>
      </trkpt>
      <trkpt lat="45.96076" lon="6.53924">
        <ele>1940.56</ele>
        <time>2010-10-10T15:53:57Z</time>
      </trkpt>
      <trkpt lat="45.96077" lon="6.53924">
        <ele>1940.08</ele>
        <time>2010-10-10T15:54:16Z</time>
      </trkpt>
      <trkpt lat="45.96078" lon="6.53925">
        <ele>1940.08</ele>
        <time>2010-10-10T15:54:33Z</time>
      </trkpt>
      <trkpt lat="45.96079" lon="6.53925">
        <ele>1939.6</ele>
        <time>2010-10-10T15:55:00Z</time>
      </trkpt>
      <trkpt lat="45.96084" lon="6.53926">
        <ele>1936.71</ele>
        <time>2010-10-10T15:55:14Z</time>
      </trkpt>
      <trkpt lat="45.96087" lon="6.53927">
        <ele>1934.79</ele>
        <time>2010-10-10T15:55:20Z</time>
      </trkpt>
      <trkpt lat="45.96097" lon="6.53917">
        <ele>1934.79</ele>
        <time>2010-10-10T15:55:32Z</time>
      </trkpt>
      <trkpt lat="45.96097" lon="6.53917">
        <ele>1934.79</ele>
        <time>2010-10-10T15:55:51Z</time>
      </trkpt>
      <trkpt lat="45.96099" lon="6.53915">
        <ele>1934.31</ele>
        <time>2010-10-10T15:56:15Z</time>
      </trkpt>
      <trkpt lat="45.9611" lon="6.53913">
        <ele>1932.87</ele>
        <time>2010-10-10T15:56:29Z</time>
      </trkpt>
      <trkpt lat="45.96123" lon="6.53918">
        <ele>1932.87</ele>
        <time>2010-10-10T15:56:43Z</time>
      </trkpt>
      <trkpt lat="45.96124" lon="6.53918">
        <ele>1932.39</ele>
        <time>2010-10-10T15:56:44Z</time>
      </trkpt>
      <trkpt lat="45.96128" lon="6.53917">
        <ele>1931.43</ele>
        <time>2010-10-10T15:56:48Z</time>
      </trkpt>
      <trkpt lat="45.96135" lon="6.53912">
        <ele>1930.95</ele>
        <time>2010-10-10T15:56:54Z</time>
      </trkpt>
      <trkpt lat="45.96141" lon="6.53905">
        <ele>1929.98</ele>
        <time>2010-10-10T15:57:00Z</time>
      </trkpt>
      <trkpt lat="45.96144" lon="6.53901">
        <ele>1929.02</ele>
        <time>2010-10-10T15:57:05Z</time>
      </trkpt>
      <trkpt lat="45.96149" lon="6.53899">
        <ele>1926.14</ele>
        <time>2010-10-10T15:57:18Z</time>
      </trkpt>
      <trkpt lat="45.96154" lon="6.53899">
        <ele>1923.74</ele>
        <time>2010-10-10T15:57:28Z</time>
      </trkpt>
      <trkpt lat="45.96159" lon="6.53901">
        <ele>1921.33</ele>
        <time>2010-10-10T15:57:36Z</time>
      </trkpt>
      <trkpt lat="45.96176" lon="6.53915">
        <ele>1920.85</ele>
        <time>2010-10-10T15:57:51Z</time>
      </trkpt>
      <trkpt lat="45.96188" lon="6.53928">
        <ele>1924.22</ele>
        <time>2010-10-10T15:58:05Z</time>
      </trkpt>
      <trkpt lat="45.96198" lon="6.53934">
        <ele>1923.74</ele>
        <time>2010-10-10T15:58:13Z</time>
      </trkpt>
      <trkpt lat="45.96202" lon="6.53941">
        <ele>1923.74</ele>
        <time>2010-10-10T15:58:20Z</time>
      </trkpt>
      <trkpt lat="45.9621" lon="6.53927">
        <ele>1923.74</ele>
        <time>2010-10-10T15:58:29Z</time>
      </trkpt>
      <trkpt lat="45.96212" lon="6.5392">
        <ele>1924.22</ele>
        <time>2010-10-10T15:58:34Z</time>
      </trkpt>
      <trkpt lat="45.96222" lon="6.53917">
        <ele>1924.7</ele>
        <time>2010-10-10T15:58:44Z</time>
      </trkpt>
      <trkpt lat="45.96228" lon="6.53902">
        <ele>1926.62</ele>
        <time>2010-10-10T15:58:58Z</time>
      </trkpt>
      <trkpt lat="45.96235" lon="6.53893">
        <ele>1925.18</ele>
        <time>2010-10-10T15:59:07Z</time>
      </trkpt>
      <trkpt lat="45.96238" lon="6.53877">
        <ele>1927.58</ele>
        <time>2010-10-10T15:59:17Z</time>
      </trkpt>
      <trkpt lat="45.96247" lon="6.53875">
        <ele>1925.18</ele>
        <time>2010-10-10T15:59:26Z</time>
      </trkpt>
      <trkpt lat="45.9625" lon="6.53872">
        <ele>1924.22</ele>
        <time>2010-10-10T15:59:30Z</time>
      </trkpt>
      <trkpt lat="45.9625" lon="6.53869">
        <ele>1923.25</ele>
        <time>2010-10-10T15:59:32Z</time>
      </trkpt>
      <trkpt lat="45.96253" lon="6.53864">
        <ele>1921.81</ele>
        <time>2010-10-10T15:59:36Z</time>
      </trkpt>
      <trkpt lat="45.96258" lon="6.53859">
        <ele>1919.89</ele>
        <time>2010-10-10T15:59:41Z</time>
      </trkpt>
      <trkpt lat="45.96261" lon="6.53856">
        <ele>1918.93</ele>
        <time>2010-10-10T15:59:44Z</time>
      </trkpt>
      <trkpt lat="45.96262" lon="6.53855">
        <ele>1918.93</ele>
        <time>2010-10-10T15:59:45Z</time>
      </trkpt>
      <trkpt lat="45.96265" lon="6.53851">
        <ele>1917.01</ele>
        <time>2010-10-10T15:59:49Z</time>
      </trkpt>
      <trkpt lat="45.96285" lon="6.53837">
        <ele>1914.12</ele>
        <time>2010-10-10T16:00:05Z</time>
      </trkpt>
      <trkpt lat="45.96305" lon="6.53833">
        <ele>1910.76</ele>
        <time>2010-10-10T16:00:19Z</time>
      </trkpt>
      <trkpt lat="45.96322" lon="6.53832">
        <ele>1912.68</ele>
        <time>2010-10-10T16:00:32Z</time>
      </trkpt>
      <trkpt lat="45.9634" lon="6.53818">
        <ele>1915.56</ele>
        <time>2010-10-10T16:00:47Z</time>
      </trkpt>
      <trkpt lat="45.96351" lon="6.53813">
        <ele>1917.97</ele>
        <time>2010-10-10T16:01:00Z</time>
      </trkpt>
      <trkpt lat="45.96352" lon="6.53813">
        <ele>1917.97</ele>
        <time>2010-10-10T16:01:01Z</time>
      </trkpt>
      <trkpt lat="45.96356" lon="6.53808">
        <ele>1918.93</ele>
        <time>2010-10-10T16:01:06Z</time>
      </trkpt>
      <trkpt lat="45.96364" lon="6.538">
        <ele>1922.29</ele>
        <time>2010-10-10T16:01:18Z</time>
      </trkpt>
      <trkpt lat="45.96368" lon="6.53793">
        <ele>1925.18</ele>
        <time>2010-10-10T16:01:30Z</time>
      </trkpt>
      <trkpt lat="45.96369" lon="6.53797">
        <ele>1927.58</ele>
        <time>2010-10-10T16:01:40Z</time>
      </trkpt>
      <trkpt lat="45.96375" lon="6.53787">
        <ele>1929.98</ele>
        <time>2010-10-10T16:01:55Z</time>
      </trkpt>
      <trkpt lat="45.96376" lon="6.53783">
        <ele>1929.02</ele>
        <time>2010-10-10T16:01:58Z</time>
      </trkpt>
      <trkpt lat="45.96382" lon="6.53766">
        <ele>1930.95</ele>
        <time>2010-10-10T16:02:12Z</time>
      </trkpt>
      <trkpt lat="45.96383" lon="6.53762">
        <ele>1931.43</ele>
        <time>2010-10-10T16:02:17Z</time>
      </trkpt>
      <trkpt lat="45.9639" lon="6.53748">
        <ele>1934.79</ele>
        <time>2010-10-10T16:02:32Z</time>
      </trkpt>
      <trkpt lat="45.96394" lon="6.53742">
        <ele>1938.16</ele>
        <time>2010-10-10T16:02:45Z</time>
      </trkpt>
      <trkpt lat="45.96398" lon="6.53736">
        <ele>1941.04</ele>
        <time>2010-10-10T16:03:01Z</time>
      </trkpt>
      <trkpt lat="45.96399" lon="6.53732">
        <ele>1943.44</ele>
        <time>2010-10-10T16:03:09Z</time>
      </trkpt>
      <trkpt lat="45.96399" lon="6.53729">
        <ele>1944.88</ele>
        <time>2010-10-10T16:03:13Z</time>
      </trkpt>
      <trkpt lat="45.964" lon="6.53722">
        <ele>1945.85</ele>
        <time>2010-10-10T16:03:19Z</time>
      </trkpt>
      <trkpt lat="45.96407" lon="6.53705">
        <ele>1945.85</ele>
        <time>2010-10-10T16:03:36Z</time>
      </trkpt>
      <trkpt lat="45.96406" lon="6.53708">
        <ele>1946.33</ele>
        <time>2010-10-10T16:03:57Z</time>
      </trkpt>
      <trkpt lat="45.96406" lon="6.53708">
        <ele>1945.85</ele>
        <time>2010-10-10T16:04:16Z</time>
      </trkpt>
      <trkpt lat="45.96409" lon="6.53702">
        <ele>1944.88</ele>
        <time>2010-10-10T16:04:30Z</time>
      </trkpt>
      <trkpt lat="45.96411" lon="6.53692">
        <ele>1944.88</ele>
        <time>2010-10-10T16:04:40Z</time>
      </trkpt>
      <trkpt lat="45.96421" lon="6.53672">
        <ele>1944.88</ele>
        <time>2010-10-10T16:04:55Z</time>
      </trkpt>
      <trkpt lat="45.96434" lon="6.53651">
        <ele>1946.33</ele>
        <time>2010-10-10T16:05:12Z</time>
      </trkpt>
      <trkpt lat="45.96453" lon="6.53636">
        <ele>1949.21</ele>
        <time>2010-10-10T16:05:29Z</time>
      </trkpt>
      <trkpt lat="45.96454" lon="6.53635">
        <ele>1949.21</ele>
        <time>2010-10-10T16:05:31Z</time>
      </trkpt>
      <trkpt lat="45.96458" lon="6.53627">
        <ele>1947.77</ele>
        <time>2010-10-10T16:05:36Z</time>
      </trkpt>
      <trkpt lat="45.96466" lon="6.53621">
        <ele>1947.77</ele>
        <time>2010-10-10T16:05:43Z</time>
      </trkpt>
      <trkpt lat="45.96473" lon="6.53603">
        <ele>1947.29</ele>
        <time>2010-10-10T16:05:56Z</time>
      </trkpt>
      <trkpt lat="45.96467" lon="6.53591">
        <ele>1947.77</ele>
        <time>2010-10-10T16:06:06Z</time>
      </trkpt>
      <trkpt lat="45.96464" lon="6.53583">
        <ele>1948.25</ele>
        <time>2010-10-10T16:06:11Z</time>
      </trkpt>
      <trkpt lat="45.96453" lon="6.53573">
        <ele>1951.13</ele>
        <time>2010-10-10T16:06:26Z</time>
      </trkpt>
      <trkpt lat="45.96452" lon="6.53573">
        <ele>1951.61</ele>
        <time>2010-10-10T16:06:27Z</time>
      </trkpt>
      <trkpt lat="45.96451" lon="6.53573">
        <ele>1951.61</ele>
        <time>2010-10-10T16:06:28Z</time>
      </trkpt>
      <trkpt lat="45.96448" lon="6.53571">
        <ele>1952.09</ele>
        <time>2010-10-10T16:06:31Z</time>
      </trkpt>
      <trkpt lat="45.96447" lon="6.5357">
        <ele>1952.57</ele>
        <time>2010-10-10T16:06:33Z</time>
      </trkpt>
      <trkpt lat="45.96435" lon="6.5356">
        <ele>1954.5</ele>
        <time>2010-10-10T16:06:50Z</time>
      </trkpt>
      <trkpt lat="45.96433" lon="6.53558">
        <ele>1954.98</ele>
        <time>2010-10-10T16:06:54Z</time>
      </trkpt>
      <trkpt lat="45.96434" lon="6.53538">
        <ele>1954.02</ele>
        <time>2010-10-10T16:07:09Z</time>
      </trkpt>
      <trkpt lat="45.96433" lon="6.53533">
        <ele>1953.06</ele>
        <time>2010-10-10T16:07:14Z</time>
      </trkpt>
      <trkpt lat="45.96428" lon="6.53521">
        <ele>1948.73</ele>
        <time>2010-10-10T16:07:30Z</time>
      </trkpt>
      <trkpt lat="45.96426" lon="6.53518">
        <ele>1946.81</ele>
        <time>2010-10-10T16:07:35Z</time>
      </trkpt>
      <trkpt lat="45.96422" lon="6.5351">
        <ele>1943.92</ele>
        <time>2010-10-10T16:07:50Z</time>
      </trkpt>
      <trkpt lat="45.96423" lon="6.53506">
        <ele>1942</ele>
        <time>2010-10-10T16:07:59Z</time>
      </trkpt>
      <trkpt lat="45.96421" lon="6.53501">
        <ele>1941.52</ele>
        <time>2010-10-10T16:08:03Z</time>
      </trkpt>
      <trkpt lat="45.96408" lon="6.53484">
        <ele>1938.16</ele>
        <time>2010-10-10T16:08:17Z</time>
      </trkpt>
      <trkpt lat="45.96404" lon="6.53473">
        <ele>1935.75</ele>
        <time>2010-10-10T16:08:28Z</time>
      </trkpt>
      <trkpt lat="45.96407" lon="6.53473">
        <ele>1935.27</ele>
        <time>2010-10-10T16:08:32Z</time>
      </trkpt>
      <trkpt lat="45.96409" lon="6.53472">
        <ele>1933.83</ele>
        <time>2010-10-10T16:08:38Z</time>
      </trkpt>
      <trkpt lat="45.96408" lon="6.53469">
        <ele>1933.35</ele>
        <time>2010-10-10T16:08:40Z</time>
      </trkpt>
      <trkpt lat="45.96405" lon="6.53461">
        <ele>1930.46</ele>
        <time>2010-10-10T16:08:50Z</time>
      </trkpt>
      <trkpt lat="45.96392" lon="6.5344">
        <ele>1929.02</ele>
        <time>2010-10-10T16:09:05Z</time>
      </trkpt>
      <trkpt lat="45.96386" lon="6.53426">
        <ele>1929.02</ele>
        <time>2010-10-10T16:09:14Z</time>
      </trkpt>
      <trkpt lat="45.96378" lon="6.53422">
        <ele>1930.95</ele>
        <time>2010-10-10T16:09:28Z</time>
      </trkpt>
      <trkpt lat="45.96378" lon="6.53423">
        <ele>1931.43</ele>
        <time>2010-10-10T16:09:45Z</time>
      </trkpt>
      <trkpt lat="45.96378" lon="6.53423">
        <ele>1930.95</ele>
        <time>2010-10-10T16:10:09Z</time>
      </trkpt>
      <trkpt lat="45.96378" lon="6.53423">
        <ele>1931.43</ele>
        <time>2010-10-10T16:10:42Z</time>
      </trkpt>
      <trkpt lat="45.96378" lon="6.53423">
        <ele>1931.43</ele>
        <time>2010-10-10T16:10:59Z</time>
      </trkpt>
      <trkpt lat="45.96376" lon="6.53421">
        <ele>1930.95</ele>
        <time>2010-10-10T16:11:01Z</time>
      </trkpt>
      <trkpt lat="45.96373" lon="6.53415">
        <ele>1929.5</ele>
        <time>2010-10-10T16:11:06Z</time>
      </trkpt>
      <trkpt lat="45.96373" lon="6.53411">
        <ele>1929.02</ele>
        <time>2010-10-10T16:11:08Z</time>
      </trkpt>
      <trkpt lat="45.96372" lon="6.53404">
        <ele>1928.54</ele>
        <time>2010-10-10T16:11:12Z</time>
      </trkpt>
      <trkpt lat="45.96369" lon="6.53391">
        <ele>1929.98</ele>
        <time>2010-10-10T16:11:19Z</time>
      </trkpt>
      <trkpt lat="45.96367" lon="6.53384">
        <ele>1931.43</ele>
        <time>2010-10-10T16:11:24Z</time>
      </trkpt>
      <trkpt lat="45.96366" lon="6.53376">
        <ele>1932.39</ele>
        <time>2010-10-10T16:11:31Z</time>
      </trkpt>
      <trkpt lat="45.96365" lon="6.53373">
        <ele>1933.35</ele>
        <time>2010-10-10T16:11:33Z</time>
      </trkpt>
      <trkpt lat="45.96362" lon="6.53362">
        <ele>1933.83</ele>
        <time>2010-10-10T16:11:40Z</time>
      </trkpt>
      <trkpt lat="45.96353" lon="6.53344">
        <ele>1930.95</ele>
        <time>2010-10-10T16:11:54Z</time>
      </trkpt>
      <trkpt lat="45.96344" lon="6.53324">
        <ele>1929.5</ele>
        <time>2010-10-10T16:12:08Z</time>
      </trkpt>
      <trkpt lat="45.96343" lon="6.5332">
        <ele>1929.02</ele>
        <time>2010-10-10T16:12:10Z</time>
      </trkpt>
      <trkpt lat="45.96334" lon="6.53298">
        <ele>1928.06</ele>
        <time>2010-10-10T16:12:24Z</time>
      </trkpt>
      <trkpt lat="45.96332" lon="6.53292">
        <ele>1926.62</ele>
        <time>2010-10-10T16:12:28Z</time>
      </trkpt>
      <trkpt lat="45.96322" lon="6.53269">
        <ele>1923.74</ele>
        <time>2010-10-10T16:12:43Z</time>
      </trkpt>
      <trkpt lat="45.96322" lon="6.53268">
        <ele>1923.25</ele>
        <time>2010-10-10T16:12:44Z</time>
      </trkpt>
      <trkpt lat="45.96322" lon="6.53256">
        <ele>1921.81</ele>
        <time>2010-10-10T16:12:51Z</time>
      </trkpt>
      <trkpt lat="45.96321" lon="6.53247">
        <ele>1920.85</ele>
        <time>2010-10-10T16:12:58Z</time>
      </trkpt>
      <trkpt lat="45.96321" lon="6.53238">
        <ele>1918.93</ele>
        <time>2010-10-10T16:13:04Z</time>
      </trkpt>
      <trkpt lat="45.96323" lon="6.53235">
        <ele>1917.49</ele>
        <time>2010-10-10T16:13:11Z</time>
      </trkpt>
      <trkpt lat="45.96323" lon="6.53231">
        <ele>1916.04</ele>
        <time>2010-10-10T16:13:14Z</time>
      </trkpt>
      <trkpt lat="45.96323" lon="6.53231">
        <ele>1916.04</ele>
        <time>2010-10-10T16:13:15Z</time>
      </trkpt>
      <trkpt lat="45.96327" lon="6.53228">
        <ele>1914.12</ele>
        <time>2010-10-10T16:13:18Z</time>
      </trkpt>
      <trkpt lat="45.96329" lon="6.53226">
        <ele>1913.16</ele>
        <time>2010-10-10T16:13:21Z</time>
      </trkpt>
      <trkpt lat="45.96331" lon="6.53226">
        <ele>1912.68</ele>
        <time>2010-10-10T16:13:23Z</time>
      </trkpt>
      <trkpt lat="45.96333" lon="6.53225">
        <ele>1912.68</ele>
        <time>2010-10-10T16:13:25Z</time>
      </trkpt>
      <trkpt lat="45.9634" lon="6.53238">
        <ele>1908.83</ele>
        <time>2010-10-10T16:13:36Z</time>
      </trkpt>
      <trkpt lat="45.96342" lon="6.53239">
        <ele>1908.35</ele>
        <time>2010-10-10T16:13:39Z</time>
      </trkpt>
      <trkpt lat="45.96347" lon="6.53237">
        <ele>1907.39</ele>
        <time>2010-10-10T16:13:43Z</time>
      </trkpt>
      <trkpt lat="45.96348" lon="6.5323">
        <ele>1906.43</ele>
        <time>2010-10-10T16:13:49Z</time>
      </trkpt>
      <trkpt lat="45.96345" lon="6.53209">
        <ele>1904.51</ele>
        <time>2010-10-10T16:14:01Z</time>
      </trkpt>
      <trkpt lat="45.96345" lon="6.53203">
        <ele>1903.07</ele>
        <time>2010-10-10T16:14:05Z</time>
      </trkpt>
      <trkpt lat="45.96345" lon="6.53195">
        <ele>1902.11</ele>
        <time>2010-10-10T16:14:10Z</time>
      </trkpt>
      <trkpt lat="45.96347" lon="6.53181">
        <ele>1899.22</ele>
        <time>2010-10-10T16:14:23Z</time>
      </trkpt>
      <trkpt lat="45.96346" lon="6.53178">
        <ele>1898.74</ele>
        <time>2010-10-10T16:14:25Z</time>
      </trkpt>
      <trkpt lat="45.96346" lon="6.53173">
        <ele>1898.26</ele>
        <time>2010-10-10T16:14:28Z</time>
      </trkpt>
      <trkpt lat="45.96344" lon="6.53168">
        <ele>1897.3</ele>
        <time>2010-10-10T16:14:32Z</time>
      </trkpt>
      <trkpt lat="45.96345" lon="6.53163">
        <ele>1897.78</ele>
        <time>2010-10-10T16:14:36Z</time>
      </trkpt>
      <trkpt lat="45.96344" lon="6.53158">
        <ele>1896.34</ele>
        <time>2010-10-10T16:14:39Z</time>
      </trkpt>
      <trkpt lat="45.96343" lon="6.53145">
        <ele>1894.9</ele>
        <time>2010-10-10T16:14:47Z</time>
      </trkpt>
      <trkpt lat="45.96352" lon="6.53129">
        <ele>1891.05</ele>
        <time>2010-10-10T16:15:00Z</time>
      </trkpt>
      <trkpt lat="45.96357" lon="6.53123">
        <ele>1889.61</ele>
        <time>2010-10-10T16:15:07Z</time>
      </trkpt>
      <trkpt lat="45.96358" lon="6.53119">
        <ele>1889.13</ele>
        <time>2010-10-10T16:15:10Z</time>
      </trkpt>
      <trkpt lat="45.96358" lon="6.53114">
        <ele>1888.65</ele>
        <time>2010-10-10T16:15:13Z</time>
      </trkpt>
      <trkpt lat="45.96359" lon="6.53097">
        <ele>1885.76</ele>
        <time>2010-10-10T16:15:27Z</time>
      </trkpt>
      <trkpt lat="45.96364" lon="6.53086">
        <ele>1882.88</ele>
        <time>2010-10-10T16:15:39Z</time>
      </trkpt>
      <trkpt lat="45.96367" lon="6.53073">
        <ele>1880.96</ele>
        <time>2010-10-10T16:15:53Z</time>
      </trkpt>
      <trkpt lat="45.96367" lon="6.5307">
        <ele>1880.96</ele>
        <time>2010-10-10T16:15:56Z</time>
      </trkpt>
      <trkpt lat="45.96369" lon="6.53043">
        <ele>1879.03</ele>
        <time>2010-10-10T16:16:12Z</time>
      </trkpt>
      <trkpt lat="45.96368" lon="6.53016">
        <ele>1880</ele>
        <time>2010-10-10T16:16:28Z</time>
      </trkpt>
      <trkpt lat="45.96366" lon="6.52997">
        <ele>1878.55</ele>
        <time>2010-10-10T16:16:42Z</time>
      </trkpt>
      <trkpt lat="45.96368" lon="6.52989">
        <ele>1876.63</ele>
        <time>2010-10-10T16:16:53Z</time>
      </trkpt>
      <trkpt lat="45.96368" lon="6.52986">
        <ele>1876.15</ele>
        <time>2010-10-10T16:16:55Z</time>
      </trkpt>
      <trkpt lat="45.9637" lon="6.52967">
        <ele>1878.07</ele>
        <time>2010-10-10T16:17:13Z</time>
      </trkpt>
      <trkpt lat="45.96372" lon="6.52949">
        <ele>1878.55</ele>
        <time>2010-10-10T16:17:27Z</time>
      </trkpt>
      <trkpt lat="45.96373" lon="6.52941">
        <ele>1878.55</ele>
        <time>2010-10-10T16:17:32Z</time>
      </trkpt>
      <trkpt lat="45.96381" lon="6.52927">
        <ele>1879.03</ele>
        <time>2010-10-10T16:17:42Z</time>
      </trkpt>
      <trkpt lat="45.96387" lon="6.52924">
        <ele>1880.48</ele>
        <time>2010-10-10T16:17:46Z</time>
      </trkpt>
      <trkpt lat="45.96398" lon="6.5292">
        <ele>1879.51</ele>
        <time>2010-10-10T16:17:52Z</time>
      </trkpt>
      <trkpt lat="45.964" lon="6.52913">
        <ele>1877.11</ele>
        <time>2010-10-10T16:17:58Z</time>
      </trkpt>
      <trkpt lat="45.96401" lon="6.52908">
        <ele>1876.15</ele>
        <time>2010-10-10T16:18:02Z</time>
      </trkpt>
      <trkpt lat="45.96405" lon="6.52899">
        <ele>1873.75</ele>
        <time>2010-10-10T16:18:09Z</time>
      </trkpt>
      <trkpt lat="45.96406" lon="6.52893">
        <ele>1872.79</ele>
        <time>2010-10-10T16:18:13Z</time>
      </trkpt>
      <trkpt lat="45.96407" lon="6.52891">
        <ele>1872.3</ele>
        <time>2010-10-10T16:18:15Z</time>
      </trkpt>
      <trkpt lat="45.9642" lon="6.52873">
        <ele>1868.94</ele>
        <time>2010-10-10T16:18:30Z</time>
      </trkpt>
      <trkpt lat="45.96433" lon="6.52848">
        <ele>1867.02</ele>
        <time>2010-10-10T16:18:47Z</time>
      </trkpt>
      <trkpt lat="45.96437" lon="6.52841">
        <ele>1865.58</ele>
        <time>2010-10-10T16:19:00Z</time>
      </trkpt>
      <trkpt lat="45.96438" lon="6.5284">
        <ele>1866.06</ele>
        <time>2010-10-10T16:19:01Z</time>
      </trkpt>
      <trkpt lat="45.96439" lon="6.52837">
        <ele>1865.09</ele>
        <time>2010-10-10T16:19:03Z</time>
      </trkpt>
      <trkpt lat="45.96453" lon="6.52828">
        <ele>1863.17</ele>
        <time>2010-10-10T16:19:16Z</time>
      </trkpt>
      <trkpt lat="45.9647" lon="6.52809">
        <ele>1861.25</ele>
        <time>2010-10-10T16:19:33Z</time>
      </trkpt>
      <trkpt lat="45.96473" lon="6.52784">
        <ele>1862.69</ele>
        <time>2010-10-10T16:19:48Z</time>
      </trkpt>
      <trkpt lat="45.96474" lon="6.52783">
        <ele>1862.21</ele>
        <time>2010-10-10T16:19:58Z</time>
      </trkpt>
      <trkpt lat="45.96474" lon="6.52779">
        <ele>1861.73</ele>
        <time>2010-10-10T16:20:01Z</time>
      </trkpt>
      <trkpt lat="45.9648" lon="6.52757">
        <ele>1864.13</ele>
        <time>2010-10-10T16:20:15Z</time>
      </trkpt>
      <trkpt lat="45.96493" lon="6.52737">
        <ele>1864.61</ele>
        <time>2010-10-10T16:20:29Z</time>
      </trkpt>
      <trkpt lat="45.96494" lon="6.52735">
        <ele>1864.61</ele>
        <time>2010-10-10T16:20:30Z</time>
      </trkpt>
      <trkpt lat="45.96503" lon="6.52718">
        <ele>1865.58</ele>
        <time>2010-10-10T16:20:44Z</time>
      </trkpt>
      <trkpt lat="45.96503" lon="6.52718">
        <ele>1864.61</ele>
        <time>2010-10-10T16:21:12Z</time>
      </trkpt>
      <trkpt lat="45.96504" lon="6.52716">
        <ele>1866.06</ele>
        <time>2010-10-10T16:21:20Z</time>
      </trkpt>
      <trkpt lat="45.96505" lon="6.52714">
        <ele>1865.09</ele>
        <time>2010-10-10T16:21:22Z</time>
      </trkpt>
      <trkpt lat="45.96507" lon="6.52709">
        <ele>1864.13</ele>
        <time>2010-10-10T16:21:25Z</time>
      </trkpt>
      <trkpt lat="45.9651" lon="6.52706">
        <ele>1862.69</ele>
        <time>2010-10-10T16:21:28Z</time>
      </trkpt>
      <trkpt lat="45.96518" lon="6.52698">
        <ele>1858.85</ele>
        <time>2010-10-10T16:21:37Z</time>
      </trkpt>
      <trkpt lat="45.96521" lon="6.52695">
        <ele>1856.92</ele>
        <time>2010-10-10T16:21:41Z</time>
      </trkpt>
      <trkpt lat="45.96529" lon="6.52693">
        <ele>1853.08</ele>
        <time>2010-10-10T16:21:49Z</time>
      </trkpt>
      <trkpt lat="45.96532" lon="6.52691">
        <ele>1851.16</ele>
        <time>2010-10-10T16:21:53Z</time>
      </trkpt>
      <trkpt lat="45.96536" lon="6.52694">
        <ele>1848.75</ele>
        <time>2010-10-10T16:21:57Z</time>
      </trkpt>
      <trkpt lat="45.96551" lon="6.52692">
        <ele>1845.39</ele>
        <time>2010-10-10T16:22:08Z</time>
      </trkpt>
      <trkpt lat="45.96554" lon="6.52691">
        <ele>1843.95</ele>
        <time>2010-10-10T16:22:11Z</time>
      </trkpt>
      <trkpt lat="45.96557" lon="6.52689">
        <ele>1842.02</ele>
        <time>2010-10-10T16:22:18Z</time>
      </trkpt>
      <trkpt lat="45.9656" lon="6.52688">
        <ele>1840.58</ele>
        <time>2010-10-10T16:22:21Z</time>
      </trkpt>
      <trkpt lat="45.96564" lon="6.52683">
        <ele>1838.18</ele>
        <time>2010-10-10T16:22:27Z</time>
      </trkpt>
      <trkpt lat="45.96565" lon="6.52683">
        <ele>1837.7</ele>
        <time>2010-10-10T16:22:28Z</time>
      </trkpt>
      <trkpt lat="45.96568" lon="6.52682">
        <ele>1836.74</ele>
        <time>2010-10-10T16:22:31Z</time>
      </trkpt>
      <trkpt lat="45.96576" lon="6.52678">
        <ele>1832.41</ele>
        <time>2010-10-10T16:22:40Z</time>
      </trkpt>
      <trkpt lat="45.96578" lon="6.52677">
        <ele>1829.05</ele>
        <time>2010-10-10T16:22:53Z</time>
      </trkpt>
      <trkpt lat="45.96579" lon="6.52677">
        <ele>1829.53</ele>
        <time>2010-10-10T16:22:54Z</time>
      </trkpt>
      <trkpt lat="45.96582" lon="6.52675">
        <ele>1828.56</ele>
        <time>2010-10-10T16:22:56Z</time>
      </trkpt>
      <trkpt lat="45.96585" lon="6.52672">
        <ele>1827.12</ele>
        <time>2010-10-10T16:22:59Z</time>
      </trkpt>
      <trkpt lat="45.96595" lon="6.52666">
        <ele>1823.76</ele>
        <time>2010-10-10T16:23:10Z</time>
      </trkpt>
      <trkpt lat="45.96598" lon="6.52665">
        <ele>1821.84</ele>
        <time>2010-10-10T16:23:13Z</time>
      </trkpt>
      <trkpt lat="45.96599" lon="6.52665">
        <ele>1821.84</ele>
        <time>2010-10-10T16:23:14Z</time>
      </trkpt>
      <trkpt lat="45.96601" lon="6.52661">
        <ele>1820.87</ele>
        <time>2010-10-10T16:23:17Z</time>
      </trkpt>
      <trkpt lat="45.96603" lon="6.52659">
        <ele>1819.91</ele>
        <time>2010-10-10T16:23:22Z</time>
      </trkpt>
      <trkpt lat="45.96604" lon="6.52658">
        <ele>1819.43</ele>
        <time>2010-10-10T16:23:24Z</time>
      </trkpt>
      <trkpt lat="45.96606" lon="6.52658">
        <ele>1818.95</ele>
        <time>2010-10-10T16:23:26Z</time>
      </trkpt>
      <trkpt lat="45.96608" lon="6.52656">
        <ele>1817.51</ele>
        <time>2010-10-10T16:23:29Z</time>
      </trkpt>
      <trkpt lat="45.9661" lon="6.52653">
        <ele>1817.51</ele>
        <time>2010-10-10T16:23:31Z</time>
      </trkpt>
      <trkpt lat="45.96613" lon="6.52652">
        <ele>1816.07</ele>
        <time>2010-10-10T16:23:35Z</time>
      </trkpt>
      <trkpt lat="45.96617" lon="6.52652">
        <ele>1814.63</ele>
        <time>2010-10-10T16:23:38Z</time>
      </trkpt>
      <trkpt lat="45.9662" lon="6.52653">
        <ele>1814.15</ele>
        <time>2010-10-10T16:23:40Z</time>
      </trkpt>
      <trkpt lat="45.96629" lon="6.52654">
        <ele>1810.78</ele>
        <time>2010-10-10T16:23:49Z</time>
      </trkpt>
      <trkpt lat="45.96632" lon="6.52651">
        <ele>1810.3</ele>
        <time>2010-10-10T16:23:52Z</time>
      </trkpt>
      <trkpt lat="45.96634" lon="6.5265">
        <ele>1809.34</ele>
        <time>2010-10-10T16:23:54Z</time>
      </trkpt>
      <trkpt lat="45.96641" lon="6.52654">
        <ele>1806.45</ele>
        <time>2010-10-10T16:24:01Z</time>
      </trkpt>
      <trkpt lat="45.96645" lon="6.52655">
        <ele>1805.01</ele>
        <time>2010-10-10T16:24:05Z</time>
      </trkpt>
      <trkpt lat="45.96646" lon="6.52655">
        <ele>1804.53</ele>
        <time>2010-10-10T16:24:07Z</time>
      </trkpt>
      <trkpt lat="45.96649" lon="6.52653">
        <ele>1802.13</ele>
        <time>2010-10-10T16:24:10Z</time>
      </trkpt>
      <trkpt lat="45.96658" lon="6.52649">
        <ele>1798.76</ele>
        <time>2010-10-10T16:24:18Z</time>
      </trkpt>
      <trkpt lat="45.96667" lon="6.52652">
        <ele>1796.36</ele>
        <time>2010-10-10T16:24:23Z</time>
      </trkpt>
      <trkpt lat="45.96672" lon="6.52645">
        <ele>1795.4</ele>
        <time>2010-10-10T16:24:28Z</time>
      </trkpt>
      <trkpt lat="45.96673" lon="6.52643">
        <ele>1794.44</ele>
        <time>2010-10-10T16:24:29Z</time>
      </trkpt>
      <trkpt lat="45.96678" lon="6.5263">
        <ele>1790.11</ele>
        <time>2010-10-10T16:24:37Z</time>
      </trkpt>
      <trkpt lat="45.96678" lon="6.52629">
        <ele>1790.11</ele>
        <time>2010-10-10T16:24:38Z</time>
      </trkpt>
      <trkpt lat="45.96676" lon="6.52633">
        <ele>1791.07</ele>
        <time>2010-10-10T16:24:52Z</time>
      </trkpt>
      <trkpt lat="45.96675" lon="6.52637">
        <ele>1793.96</ele>
        <time>2010-10-10T16:25:13Z</time>
      </trkpt>
      <trkpt lat="45.96675" lon="6.52637">
        <ele>1793.48</ele>
        <time>2010-10-10T16:25:30Z</time>
      </trkpt>
      <trkpt lat="45.96675" lon="6.52637">
        <ele>1793</ele>
        <time>2010-10-10T16:25:49Z</time>
      </trkpt>
      <trkpt lat="45.96677" lon="6.52631">
        <ele>1790.59</ele>
        <time>2010-10-10T16:25:54Z</time>
      </trkpt>
      <trkpt lat="45.9668" lon="6.52618">
        <ele>1787.23</ele>
        <time>2010-10-10T16:26:00Z</time>
      </trkpt>
      <trkpt lat="45.96681" lon="6.52616">
        <ele>1787.23</ele>
        <time>2010-10-10T16:26:01Z</time>
      </trkpt>
      <trkpt lat="45.96683" lon="6.52608">
        <ele>1783.86</ele>
        <time>2010-10-10T16:26:05Z</time>
      </trkpt>
      <trkpt lat="45.96685" lon="6.52602">
        <ele>1781.94</ele>
        <time>2010-10-10T16:26:08Z</time>
      </trkpt>
      <trkpt lat="45.96689" lon="6.52589">
        <ele>1778.1</ele>
        <time>2010-10-10T16:26:14Z</time>
      </trkpt>
      <trkpt lat="45.96692" lon="6.52583">
        <ele>1776.65</ele>
        <time>2010-10-10T16:26:17Z</time>
      </trkpt>
      <trkpt lat="45.96715" lon="6.52587">
        <ele>1773.77</ele>
        <time>2010-10-10T16:26:31Z</time>
      </trkpt>
      <trkpt lat="45.96725" lon="6.52591">
        <ele>1771.85</ele>
        <time>2010-10-10T16:26:37Z</time>
      </trkpt>
      <trkpt lat="45.96746" lon="6.526">
        <ele>1769.92</ele>
        <time>2010-10-10T16:26:50Z</time>
      </trkpt>
      <trkpt lat="45.96764" lon="6.52601">
        <ele>1766.56</ele>
        <time>2010-10-10T16:27:02Z</time>
      </trkpt>
      <trkpt lat="45.9678" lon="6.52605">
        <ele>1763.2</ele>
        <time>2010-10-10T16:27:12Z</time>
      </trkpt>
      <trkpt lat="45.968" lon="6.52623">
        <ele>1759.83</ele>
        <time>2010-10-10T16:27:27Z</time>
      </trkpt>
      <trkpt lat="45.96805" lon="6.52627">
        <ele>1758.39</ele>
        <time>2010-10-10T16:27:31Z</time>
      </trkpt>
      <trkpt lat="45.96821" lon="6.52623">
        <ele>1755.02</ele>
        <time>2010-10-10T16:27:42Z</time>
      </trkpt>
      <trkpt lat="45.96836" lon="6.52603">
        <ele>1752.14</ele>
        <time>2010-10-10T16:27:56Z</time>
      </trkpt>
      <trkpt lat="45.96847" lon="6.52589">
        <ele>1749.26</ele>
        <time>2010-10-10T16:28:08Z</time>
      </trkpt>
      <trkpt lat="45.96855" lon="6.52575">
        <ele>1746.37</ele>
        <time>2010-10-10T16:28:17Z</time>
      </trkpt>
      <trkpt lat="45.96857" lon="6.52572">
        <ele>1744.93</ele>
        <time>2010-10-10T16:28:19Z</time>
      </trkpt>
      <trkpt lat="45.96866" lon="6.52551">
        <ele>1742.05</ele>
        <time>2010-10-10T16:28:32Z</time>
      </trkpt>
      <trkpt lat="45.96882" lon="6.52539">
        <ele>1739.64</ele>
        <time>2010-10-10T16:28:44Z</time>
      </trkpt>
      <trkpt lat="45.96902" lon="6.52532">
        <ele>1736.76</ele>
        <time>2010-10-10T16:28:58Z</time>
      </trkpt>
      <trkpt lat="45.96919" lon="6.52522">
        <ele>1733.88</ele>
        <time>2010-10-10T16:29:12Z</time>
      </trkpt>
      <trkpt lat="45.96939" lon="6.52505">
        <ele>1731.95</ele>
        <time>2010-10-10T16:29:27Z</time>
      </trkpt>
      <trkpt lat="45.96955" lon="6.52487">
        <ele>1730.03</ele>
        <time>2010-10-10T16:29:40Z</time>
      </trkpt>
      <trkpt lat="45.96969" lon="6.52465">
        <ele>1727.63</ele>
        <time>2010-10-10T16:29:55Z</time>
      </trkpt>
      <trkpt lat="45.9698" lon="6.52448">
        <ele>1726.67</ele>
        <time>2010-10-10T16:30:09Z</time>
      </trkpt>
      <trkpt lat="45.9698" lon="6.52448">
        <ele>1726.67</ele>
        <time>2010-10-10T16:30:36Z</time>
      </trkpt>
      <trkpt lat="45.96982" lon="6.52447">
        <ele>1726.18</ele>
        <time>2010-10-10T16:30:41Z</time>
      </trkpt>
      <trkpt lat="45.96986" lon="6.52443">
        <ele>1726.18</ele>
        <time>2010-10-10T16:30:45Z</time>
      </trkpt>
      <trkpt lat="45.96992" lon="6.52437">
        <ele>1726.18</ele>
        <time>2010-10-10T16:30:50Z</time>
      </trkpt>
      <trkpt lat="45.97007" lon="6.52431">
        <ele>1726.67</ele>
        <time>2010-10-10T16:31:02Z</time>
      </trkpt>
      <trkpt lat="45.9702" lon="6.5241">
        <ele>1726.18</ele>
        <time>2010-10-10T16:31:17Z</time>
      </trkpt>
      <trkpt lat="45.97033" lon="6.52398">
        <ele>1725.7</ele>
        <time>2010-10-10T16:31:29Z</time>
      </trkpt>
      <trkpt lat="45.97049" lon="6.5242">
        <ele>1723.3</ele>
        <time>2010-10-10T16:31:45Z</time>
      </trkpt>
      <trkpt lat="45.97065" lon="6.5243">
        <ele>1723.3</ele>
        <time>2010-10-10T16:32:01Z</time>
      </trkpt>
      <trkpt lat="45.97065" lon="6.5243">
        <ele>1722.82</ele>
        <time>2010-10-10T16:32:22Z</time>
      </trkpt>
      <trkpt lat="45.97065" lon="6.5243">
        <ele>1723.3</ele>
        <time>2010-10-10T16:32:54Z</time>
      </trkpt>
      <trkpt lat="45.97064" lon="6.52431">
        <ele>1723.3</ele>
        <time>2010-10-10T16:33:22Z</time>
      </trkpt>
      <trkpt lat="45.97064" lon="6.52431">
        <ele>1722.34</ele>
        <time>2010-10-10T16:33:42Z</time>
      </trkpt>
    </trkseg>
  </trk>
</gpx>